<?xml version="1.0" encoding="UTF-8" standalone="no" ?>
<gpx xmlns="http://www.topografix.com/GPX/1/1" xmlns:xsi="http://www.w3.org/2001/XMLSchema-instance" xsi:schemaLocation="http://www.topografix.com/GPX/1/1 http://www.topografix.com/GPX/1/1/gpx.xsd" version="1.1" creator="VisuGPX - https://www.visugpx.com">
  <metadata>
    <name>GR20</name>
    <desc><![CDATA[GR20 - Juin 2015]]></desc>
  </metadata>
  <trk>
    <name><![CDATA[GR20 Prati - E Capannelle]]></name>
    <trkseg>
      <trkpt lat="42.0089" lon="9.21813">
        <ele>671</ele>
        <time>2015-06-22T03:45:11Z</time>
      </trkpt>
      <trkpt lat="42.0089" lon="9.21813">
        <ele>666.4</ele>
        <time>2015-06-22T03:45:12Z</time>
      </trkpt>
      <trkpt lat="42.00892" lon="9.21812">
        <ele>682</ele>
        <time>2015-06-22T03:45:14Z</time>
      </trkpt>
      <trkpt lat="42.00894" lon="9.21811">
        <ele>708.8</ele>
        <time>2015-06-22T03:45:15Z</time>
      </trkpt>
      <trkpt lat="42.00897" lon="9.2181">
        <ele>740.6</ele>
        <time>2015-06-22T03:45:16Z</time>
      </trkpt>
      <trkpt lat="42.009" lon="9.21809">
        <ele>774.4</ele>
        <time>2015-06-22T03:45:17Z</time>
      </trkpt>
      <trkpt lat="42.00902" lon="9.21808">
        <ele>808.6</ele>
        <time>2015-06-22T03:45:18Z</time>
      </trkpt>
      <trkpt lat="42.00904" lon="9.21808">
        <ele>842.4</ele>
        <time>2015-06-22T03:45:19Z</time>
      </trkpt>
      <trkpt lat="42.00905" lon="9.21808">
        <ele>871.6</ele>
        <time>2015-06-22T03:45:20Z</time>
      </trkpt>
      <trkpt lat="42.00906" lon="9.21807">
        <ele>894</ele>
        <time>2015-06-22T03:45:21Z</time>
      </trkpt>
      <trkpt lat="42.00907" lon="9.21807">
        <ele>916.6</ele>
        <time>2015-06-22T03:45:22Z</time>
      </trkpt>
      <trkpt lat="42.00908" lon="9.21807">
        <ele>943</ele>
        <time>2015-06-22T03:45:23Z</time>
      </trkpt>
      <trkpt lat="42.00909" lon="9.21807">
        <ele>974.6</ele>
        <time>2015-06-22T03:45:25Z</time>
      </trkpt>
      <trkpt lat="42.00911" lon="9.21807">
        <ele>1000.2</ele>
        <time>2015-06-22T03:45:26Z</time>
      </trkpt>
      <trkpt lat="42.00913" lon="9.21807">
        <ele>1026.6</ele>
        <time>2015-06-22T03:45:27Z</time>
      </trkpt>
      <trkpt lat="42.00915" lon="9.21808">
        <ele>1052.6</ele>
        <time>2015-06-22T03:45:28Z</time>
      </trkpt>
      <trkpt lat="42.00917" lon="9.21808">
        <ele>1078</ele>
        <time>2015-06-22T03:45:29Z</time>
      </trkpt>
      <trkpt lat="42.00918" lon="9.21809">
        <ele>1103</ele>
        <time>2015-06-22T03:45:30Z</time>
      </trkpt>
      <trkpt lat="42.00918" lon="9.21808">
        <ele>1127.2</ele>
        <time>2015-06-22T03:45:31Z</time>
      </trkpt>
      <trkpt lat="42.00918" lon="9.21808">
        <ele>1150.8</ele>
        <time>2015-06-22T03:45:32Z</time>
      </trkpt>
      <trkpt lat="42.00917" lon="9.21807">
        <ele>1173.4</ele>
        <time>2015-06-22T03:45:33Z</time>
      </trkpt>
      <trkpt lat="42.00916" lon="9.21805">
        <ele>1195.4</ele>
        <time>2015-06-22T03:45:34Z</time>
      </trkpt>
      <trkpt lat="42.00916" lon="9.21803">
        <ele>1808.8</ele>
        <time>2015-06-22T03:45:35Z</time>
      </trkpt>
      <trkpt lat="42.00917" lon="9.21802">
        <ele>1808.8</ele>
        <time>2015-06-22T03:45:36Z</time>
      </trkpt>
      <trkpt lat="42.00919" lon="9.21801">
        <ele>1808.8</ele>
        <time>2015-06-22T03:45:37Z</time>
      </trkpt>
      <trkpt lat="42.00921" lon="9.218">
        <ele>1809</ele>
        <time>2015-06-22T03:45:38Z</time>
      </trkpt>
      <trkpt lat="42.00923" lon="9.218">
        <ele>1809</ele>
        <time>2015-06-22T03:45:39Z</time>
      </trkpt>
      <trkpt lat="42.00924" lon="9.21799">
        <ele>1809.2</ele>
        <time>2015-06-22T03:45:40Z</time>
      </trkpt>
      <trkpt lat="42.00925" lon="9.21799">
        <ele>1809.2</ele>
        <time>2015-06-22T03:45:41Z</time>
      </trkpt>
      <trkpt lat="42.00926" lon="9.21799">
        <ele>1809.2</ele>
        <time>2015-06-22T03:45:42Z</time>
      </trkpt>
      <trkpt lat="42.00927" lon="9.21799">
        <ele>1809.4</ele>
        <time>2015-06-22T03:45:43Z</time>
      </trkpt>
      <trkpt lat="42.00927" lon="9.218">
        <ele>1809.4</ele>
        <time>2015-06-22T03:45:44Z</time>
      </trkpt>
      <trkpt lat="42.00928" lon="9.218">
        <ele>1809.4</ele>
        <time>2015-06-22T03:45:45Z</time>
      </trkpt>
      <trkpt lat="42.00928" lon="9.218">
        <ele>1809.6</ele>
        <time>2015-06-22T03:45:46Z</time>
      </trkpt>
      <trkpt lat="42.00929" lon="9.218">
        <ele>1809.6</ele>
        <time>2015-06-22T03:45:47Z</time>
      </trkpt>
      <trkpt lat="42.00929" lon="9.21801">
        <ele>1809.6</ele>
        <time>2015-06-22T03:45:48Z</time>
      </trkpt>
      <trkpt lat="42.0093" lon="9.21801">
        <ele>1809.8</ele>
        <time>2015-06-22T03:45:49Z</time>
      </trkpt>
      <trkpt lat="42.00931" lon="9.21802">
        <ele>1809.8</ele>
        <time>2015-06-22T03:45:50Z</time>
      </trkpt>
      <trkpt lat="42.00931" lon="9.21802">
        <ele>1809.8</ele>
        <time>2015-06-22T03:45:51Z</time>
      </trkpt>
      <trkpt lat="42.00932" lon="9.21803">
        <ele>1809.8</ele>
        <time>2015-06-22T03:45:52Z</time>
      </trkpt>
      <trkpt lat="42.00933" lon="9.21803">
        <ele>1809.8</ele>
        <time>2015-06-22T03:45:53Z</time>
      </trkpt>
      <trkpt lat="42.00934" lon="9.21804">
        <ele>1809.8</ele>
        <time>2015-06-22T03:45:54Z</time>
      </trkpt>
      <trkpt lat="42.00934" lon="9.21804">
        <ele>1809.8</ele>
        <time>2015-06-22T03:45:55Z</time>
      </trkpt>
      <trkpt lat="42.00935" lon="9.21804">
        <ele>1809.8</ele>
        <time>2015-06-22T03:45:56Z</time>
      </trkpt>
      <trkpt lat="42.00936" lon="9.21804">
        <ele>1810</ele>
        <time>2015-06-22T03:45:57Z</time>
      </trkpt>
      <trkpt lat="42.00936" lon="9.21804">
        <ele>1810</ele>
        <time>2015-06-22T03:45:58Z</time>
      </trkpt>
      <trkpt lat="42.00937" lon="9.21804">
        <ele>1810</ele>
        <time>2015-06-22T03:45:59Z</time>
      </trkpt>
      <trkpt lat="42.00937" lon="9.21804">
        <ele>1810</ele>
        <time>2015-06-22T03:46:00Z</time>
      </trkpt>
      <trkpt lat="42.00938" lon="9.21804">
        <ele>1810.2</ele>
        <time>2015-06-22T03:46:01Z</time>
      </trkpt>
      <trkpt lat="42.00938" lon="9.21805">
        <ele>1810</ele>
        <time>2015-06-22T03:46:02Z</time>
      </trkpt>
      <trkpt lat="42.00938" lon="9.21805">
        <ele>1810.2</ele>
        <time>2015-06-22T03:46:03Z</time>
      </trkpt>
      <trkpt lat="42.00939" lon="9.21805">
        <ele>1810.2</ele>
        <time>2015-06-22T03:46:04Z</time>
      </trkpt>
      <trkpt lat="42.00939" lon="9.21805">
        <ele>1810.4</ele>
        <time>2015-06-22T03:46:05Z</time>
      </trkpt>
      <trkpt lat="42.0094" lon="9.21806">
        <ele>1810.4</ele>
        <time>2015-06-22T03:46:06Z</time>
      </trkpt>
      <trkpt lat="42.0094" lon="9.21806">
        <ele>1810.6</ele>
        <time>2015-06-22T03:46:07Z</time>
      </trkpt>
      <trkpt lat="42.00941" lon="9.21806">
        <ele>1810.6</ele>
        <time>2015-06-22T03:46:08Z</time>
      </trkpt>
      <trkpt lat="42.00942" lon="9.21806">
        <ele>1810.6</ele>
        <time>2015-06-22T03:46:09Z</time>
      </trkpt>
      <trkpt lat="42.00943" lon="9.21806">
        <ele>1810.8</ele>
        <time>2015-06-22T03:46:10Z</time>
      </trkpt>
      <trkpt lat="42.00943" lon="9.21807">
        <ele>1810.8</ele>
        <time>2015-06-22T03:46:11Z</time>
      </trkpt>
      <trkpt lat="42.00944" lon="9.21807">
        <ele>1811</ele>
        <time>2015-06-22T03:46:12Z</time>
      </trkpt>
      <trkpt lat="42.00944" lon="9.21807">
        <ele>1811.2</ele>
        <time>2015-06-22T03:46:13Z</time>
      </trkpt>
      <trkpt lat="42.00945" lon="9.21807">
        <ele>1811.2</ele>
        <time>2015-06-22T03:46:14Z</time>
      </trkpt>
      <trkpt lat="42.00945" lon="9.21806">
        <ele>1811.4</ele>
        <time>2015-06-22T03:46:15Z</time>
      </trkpt>
      <trkpt lat="42.00945" lon="9.21806">
        <ele>1811.6</ele>
        <time>2015-06-22T03:46:16Z</time>
      </trkpt>
      <trkpt lat="42.00946" lon="9.21806">
        <ele>1811.6</ele>
        <time>2015-06-22T03:46:17Z</time>
      </trkpt>
      <trkpt lat="42.00946" lon="9.21805">
        <ele>1811.8</ele>
        <time>2015-06-22T03:46:18Z</time>
      </trkpt>
      <trkpt lat="42.00946" lon="9.21805">
        <ele>1811.8</ele>
        <time>2015-06-22T03:46:19Z</time>
      </trkpt>
      <trkpt lat="42.00946" lon="9.21805">
        <ele>1812</ele>
        <time>2015-06-22T03:46:20Z</time>
      </trkpt>
      <trkpt lat="42.00946" lon="9.21804">
        <ele>1812</ele>
        <time>2015-06-22T03:46:21Z</time>
      </trkpt>
      <trkpt lat="42.00946" lon="9.21804">
        <ele>1812.2</ele>
        <time>2015-06-22T03:46:22Z</time>
      </trkpt>
      <trkpt lat="42.00946" lon="9.21804">
        <ele>1812.4</ele>
        <time>2015-06-22T03:46:23Z</time>
      </trkpt>
      <trkpt lat="42.00946" lon="9.21804">
        <ele>1812.8</ele>
        <time>2015-06-22T03:46:24Z</time>
      </trkpt>
      <trkpt lat="42.00946" lon="9.21804">
        <ele>1812.8</ele>
        <time>2015-06-22T03:46:25Z</time>
      </trkpt>
      <trkpt lat="42.00947" lon="9.21804">
        <ele>1813</ele>
        <time>2015-06-22T03:46:26Z</time>
      </trkpt>
      <trkpt lat="42.00948" lon="9.21804">
        <ele>1813.2</ele>
        <time>2015-06-22T03:46:27Z</time>
      </trkpt>
      <trkpt lat="42.00948" lon="9.21803">
        <ele>1813.4</ele>
        <time>2015-06-22T03:46:28Z</time>
      </trkpt>
      <trkpt lat="42.00949" lon="9.21803">
        <ele>1813.4</ele>
        <time>2015-06-22T03:46:29Z</time>
      </trkpt>
      <trkpt lat="42.0095" lon="9.21802">
        <ele>1813.6</ele>
        <time>2015-06-22T03:46:30Z</time>
      </trkpt>
      <trkpt lat="42.00951" lon="9.21802">
        <ele>1814</ele>
        <time>2015-06-22T03:46:31Z</time>
      </trkpt>
      <trkpt lat="42.00952" lon="9.21801">
        <ele>1814</ele>
        <time>2015-06-22T03:46:32Z</time>
      </trkpt>
      <trkpt lat="42.00953" lon="9.21801">
        <ele>1814.4</ele>
        <time>2015-06-22T03:46:33Z</time>
      </trkpt>
      <trkpt lat="42.00954" lon="9.21801">
        <ele>1814.8</ele>
        <time>2015-06-22T03:46:34Z</time>
      </trkpt>
      <trkpt lat="42.00954" lon="9.21801">
        <ele>1814.8</ele>
        <time>2015-06-22T03:46:35Z</time>
      </trkpt>
      <trkpt lat="42.00955" lon="9.21801">
        <ele>1815.2</ele>
        <time>2015-06-22T03:46:36Z</time>
      </trkpt>
      <trkpt lat="42.00956" lon="9.21802">
        <ele>1815.4</ele>
        <time>2015-06-22T03:46:37Z</time>
      </trkpt>
      <trkpt lat="42.00956" lon="9.21802">
        <ele>1815.6</ele>
        <time>2015-06-22T03:46:38Z</time>
      </trkpt>
      <trkpt lat="42.00957" lon="9.21802">
        <ele>1815.6</ele>
        <time>2015-06-22T03:46:39Z</time>
      </trkpt>
      <trkpt lat="42.00957" lon="9.21803">
        <ele>1815.8</ele>
        <time>2015-06-22T03:46:40Z</time>
      </trkpt>
      <trkpt lat="42.00958" lon="9.21803">
        <ele>1816</ele>
        <time>2015-06-22T03:46:41Z</time>
      </trkpt>
      <trkpt lat="42.00958" lon="9.21803">
        <ele>1816</ele>
        <time>2015-06-22T03:46:42Z</time>
      </trkpt>
      <trkpt lat="42.00959" lon="9.21804">
        <ele>1817.4</ele>
        <time>2015-06-22T03:46:43Z</time>
      </trkpt>
      <trkpt lat="42.00969" lon="9.21805">
        <ele>1818.8</ele>
        <time>2015-06-22T03:46:55Z</time>
      </trkpt>
      <trkpt lat="42.00977" lon="9.21814">
        <ele>1818.8</ele>
        <time>2015-06-22T03:47:07Z</time>
      </trkpt>
      <trkpt lat="42.00993" lon="9.21814">
        <ele>1819.4</ele>
        <time>2015-06-22T03:47:23Z</time>
      </trkpt>
      <trkpt lat="42.00999" lon="9.21816">
        <ele>1820</ele>
        <time>2015-06-22T03:47:31Z</time>
      </trkpt>
      <trkpt lat="42.01006" lon="9.21817">
        <ele>1820.6</ele>
        <time>2015-06-22T03:47:42Z</time>
      </trkpt>
      <trkpt lat="42.01008" lon="9.21818">
        <ele>1821.4</ele>
        <time>2015-06-22T03:47:48Z</time>
      </trkpt>
      <trkpt lat="42.01014" lon="9.21821">
        <ele>1822.6</ele>
        <time>2015-06-22T03:47:58Z</time>
      </trkpt>
      <trkpt lat="42.01021" lon="9.21821">
        <ele>1823</ele>
        <time>2015-06-22T03:48:05Z</time>
      </trkpt>
      <trkpt lat="42.01025" lon="9.21821">
        <ele>1823.8</ele>
        <time>2015-06-22T03:48:13Z</time>
      </trkpt>
      <trkpt lat="42.01029" lon="9.21822">
        <ele>1824.6</ele>
        <time>2015-06-22T03:48:21Z</time>
      </trkpt>
      <trkpt lat="42.01034" lon="9.21825">
        <ele>1825.8</ele>
        <time>2015-06-22T03:48:29Z</time>
      </trkpt>
      <trkpt lat="42.01036" lon="9.21834">
        <ele>1826.8</ele>
        <time>2015-06-22T03:48:38Z</time>
      </trkpt>
      <trkpt lat="42.01038" lon="9.21834">
        <ele>1827</ele>
        <time>2015-06-22T03:48:44Z</time>
      </trkpt>
      <trkpt lat="42.01041" lon="9.21831">
        <ele>1828.2</ele>
        <time>2015-06-22T03:48:52Z</time>
      </trkpt>
      <trkpt lat="42.01044" lon="9.21832">
        <ele>1829.2</ele>
        <time>2015-06-22T03:49:00Z</time>
      </trkpt>
      <trkpt lat="42.01047" lon="9.21834">
        <ele>1829.8</ele>
        <time>2015-06-22T03:49:06Z</time>
      </trkpt>
      <trkpt lat="42.01051" lon="9.21835">
        <ele>1830.8</ele>
        <time>2015-06-22T03:49:12Z</time>
      </trkpt>
      <trkpt lat="42.01052" lon="9.21838">
        <ele>1831.8</ele>
        <time>2015-06-22T03:49:19Z</time>
      </trkpt>
      <trkpt lat="42.01055" lon="9.21842">
        <ele>1832.6</ele>
        <time>2015-06-22T03:49:28Z</time>
      </trkpt>
      <trkpt lat="42.01059" lon="9.21846">
        <ele>1833.6</ele>
        <time>2015-06-22T03:49:36Z</time>
      </trkpt>
      <trkpt lat="42.01064" lon="9.21847">
        <ele>1834.2</ele>
        <time>2015-06-22T03:49:43Z</time>
      </trkpt>
      <trkpt lat="42.01069" lon="9.21849">
        <ele>1835.2</ele>
        <time>2015-06-22T03:49:50Z</time>
      </trkpt>
      <trkpt lat="42.01077" lon="9.21851">
        <ele>1836.4</ele>
        <time>2015-06-22T03:50:00Z</time>
      </trkpt>
      <trkpt lat="42.01078" lon="9.21851">
        <ele>1836.4</ele>
        <time>2015-06-22T03:50:01Z</time>
      </trkpt>
      <trkpt lat="42.01079" lon="9.21852">
        <ele>1836.4</ele>
        <time>2015-06-22T03:50:03Z</time>
      </trkpt>
      <trkpt lat="42.01085" lon="9.21855">
        <ele>1837</ele>
        <time>2015-06-22T03:50:10Z</time>
      </trkpt>
      <trkpt lat="42.0109" lon="9.21856">
        <ele>1837.8</ele>
        <time>2015-06-22T03:50:17Z</time>
      </trkpt>
      <trkpt lat="42.01096" lon="9.21857">
        <ele>1838.8</ele>
        <time>2015-06-22T03:50:26Z</time>
      </trkpt>
      <trkpt lat="42.011" lon="9.21857">
        <ele>1839.6</ele>
        <time>2015-06-22T03:50:34Z</time>
      </trkpt>
      <trkpt lat="42.01105" lon="9.21856">
        <ele>1840.6</ele>
        <time>2015-06-22T03:50:47Z</time>
      </trkpt>
      <trkpt lat="42.0111" lon="9.21856">
        <ele>1841.4</ele>
        <time>2015-06-22T03:50:55Z</time>
      </trkpt>
      <trkpt lat="42.01108" lon="9.21859">
        <ele>1842.6</ele>
        <time>2015-06-22T03:51:05Z</time>
      </trkpt>
      <trkpt lat="42.01107" lon="9.21859">
        <ele>1843.6</ele>
        <time>2015-06-22T03:51:30Z</time>
      </trkpt>
      <trkpt lat="42.01118" lon="9.21854">
        <ele>1843.8</ele>
        <time>2015-06-22T03:51:48Z</time>
      </trkpt>
      <trkpt lat="42.01127" lon="9.21851">
        <ele>1844.6</ele>
        <time>2015-06-22T03:51:59Z</time>
      </trkpt>
      <trkpt lat="42.01138" lon="9.21851">
        <ele>1845.4</ele>
        <time>2015-06-22T03:52:12Z</time>
      </trkpt>
      <trkpt lat="42.01183" lon="9.21861">
        <ele>1845.8</ele>
        <time>2015-06-22T03:52:56Z</time>
      </trkpt>
      <trkpt lat="42.01204" lon="9.21875">
        <ele>1845.8</ele>
        <time>2015-06-22T03:53:18Z</time>
      </trkpt>
      <trkpt lat="42.01208" lon="9.21874">
        <ele>1845.8</ele>
        <time>2015-06-22T03:53:23Z</time>
      </trkpt>
      <trkpt lat="42.01248" lon="9.21891">
        <ele>1843.4</ele>
        <time>2015-06-22T03:54:09Z</time>
      </trkpt>
      <trkpt lat="42.01251" lon="9.2189">
        <ele>1843.2</ele>
        <time>2015-06-22T03:54:12Z</time>
      </trkpt>
      <trkpt lat="42.01264" lon="9.21896">
        <ele>1842.4</ele>
        <time>2015-06-22T03:54:28Z</time>
      </trkpt>
      <trkpt lat="42.01267" lon="9.21897">
        <ele>1841.8</ele>
        <time>2015-06-22T03:54:31Z</time>
      </trkpt>
      <trkpt lat="42.01269" lon="9.21898">
        <ele>1841.6</ele>
        <time>2015-06-22T03:54:33Z</time>
      </trkpt>
      <trkpt lat="42.01275" lon="9.21896">
        <ele>1841</ele>
        <time>2015-06-22T03:54:39Z</time>
      </trkpt>
      <trkpt lat="42.01281" lon="9.21898">
        <ele>1840.8</ele>
        <time>2015-06-22T03:54:46Z</time>
      </trkpt>
      <trkpt lat="42.01288" lon="9.2189">
        <ele>1840.2</ele>
        <time>2015-06-22T03:55:39Z</time>
      </trkpt>
      <trkpt lat="42.01284" lon="9.21894">
        <ele>1839.8</ele>
        <time>2015-06-22T03:57:25Z</time>
      </trkpt>
      <trkpt lat="42.01295" lon="9.21901">
        <ele>1838.8</ele>
        <time>2015-06-22T03:57:45Z</time>
      </trkpt>
      <trkpt lat="42.01305" lon="9.21904">
        <ele>1838.2</ele>
        <time>2015-06-22T03:57:54Z</time>
      </trkpt>
      <trkpt lat="42.01331" lon="9.21909">
        <ele>1836</ele>
        <time>2015-06-22T03:58:16Z</time>
      </trkpt>
      <trkpt lat="42.01332" lon="9.2191">
        <ele>1836</ele>
        <time>2015-06-22T03:58:17Z</time>
      </trkpt>
      <trkpt lat="42.01341" lon="9.21913">
        <ele>1835.4</ele>
        <time>2015-06-22T03:58:24Z</time>
      </trkpt>
      <trkpt lat="42.01347" lon="9.21918">
        <ele>1834.8</ele>
        <time>2015-06-22T03:58:30Z</time>
      </trkpt>
      <trkpt lat="42.01365" lon="9.21924">
        <ele>1834</ele>
        <time>2015-06-22T03:58:44Z</time>
      </trkpt>
      <trkpt lat="42.01367" lon="9.21925">
        <ele>1833.6</ele>
        <time>2015-06-22T03:58:46Z</time>
      </trkpt>
      <trkpt lat="42.01373" lon="9.21927">
        <ele>1833.6</ele>
        <time>2015-06-22T03:58:50Z</time>
      </trkpt>
      <trkpt lat="42.01384" lon="9.21922">
        <ele>1832.6</ele>
        <time>2015-06-22T03:59:00Z</time>
      </trkpt>
      <trkpt lat="42.01418" lon="9.21943">
        <ele>1831.2</ele>
        <time>2015-06-22T03:59:31Z</time>
      </trkpt>
      <trkpt lat="42.01426" lon="9.21947">
        <ele>1831</ele>
        <time>2015-06-22T03:59:38Z</time>
      </trkpt>
      <trkpt lat="42.01431" lon="9.2195">
        <ele>1831.2</ele>
        <time>2015-06-22T03:59:43Z</time>
      </trkpt>
      <trkpt lat="42.01446" lon="9.21959">
        <ele>1831.2</ele>
        <time>2015-06-22T03:59:56Z</time>
      </trkpt>
      <trkpt lat="42.01452" lon="9.21958">
        <ele>1831.2</ele>
        <time>2015-06-22T04:00:02Z</time>
      </trkpt>
      <trkpt lat="42.01458" lon="9.21959">
        <ele>1831</ele>
        <time>2015-06-22T04:00:07Z</time>
      </trkpt>
      <trkpt lat="42.01467" lon="9.21959">
        <ele>1830.8</ele>
        <time>2015-06-22T04:00:15Z</time>
      </trkpt>
      <trkpt lat="42.01492" lon="9.2197">
        <ele>1830.2</ele>
        <time>2015-06-22T04:00:38Z</time>
      </trkpt>
      <trkpt lat="42.015" lon="9.21979">
        <ele>1829.6</ele>
        <time>2015-06-22T04:00:48Z</time>
      </trkpt>
      <trkpt lat="42.01509" lon="9.21985">
        <ele>1829.4</ele>
        <time>2015-06-22T04:00:58Z</time>
      </trkpt>
      <trkpt lat="42.01524" lon="9.21985">
        <ele>1829.6</ele>
        <time>2015-06-22T04:01:15Z</time>
      </trkpt>
      <trkpt lat="42.0153" lon="9.21988">
        <ele>1830.6</ele>
        <time>2015-06-22T04:01:23Z</time>
      </trkpt>
      <trkpt lat="42.01541" lon="9.21989">
        <ele>1831.8</ele>
        <time>2015-06-22T04:01:34Z</time>
      </trkpt>
      <trkpt lat="42.01577" lon="9.22004">
        <ele>1832.4</ele>
        <time>2015-06-22T04:02:07Z</time>
      </trkpt>
      <trkpt lat="42.01578" lon="9.22006">
        <ele>1832.2</ele>
        <time>2015-06-22T04:02:09Z</time>
      </trkpt>
      <trkpt lat="42.01584" lon="9.22008">
        <ele>1831.8</ele>
        <time>2015-06-22T04:02:14Z</time>
      </trkpt>
      <trkpt lat="42.01592" lon="9.22011">
        <ele>1831.6</ele>
        <time>2015-06-22T04:02:22Z</time>
      </trkpt>
      <trkpt lat="42.01596" lon="9.22011">
        <ele>1831.4</ele>
        <time>2015-06-22T04:02:25Z</time>
      </trkpt>
      <trkpt lat="42.01598" lon="9.22013">
        <ele>1831.4</ele>
        <time>2015-06-22T04:02:28Z</time>
      </trkpt>
      <trkpt lat="42.016" lon="9.22013">
        <ele>1831.4</ele>
        <time>2015-06-22T04:02:30Z</time>
      </trkpt>
      <trkpt lat="42.01619" lon="9.2202">
        <ele>1830.4</ele>
        <time>2015-06-22T04:02:57Z</time>
      </trkpt>
      <trkpt lat="42.01661" lon="9.22039">
        <ele>1829.4</ele>
        <time>2015-06-22T04:03:33Z</time>
      </trkpt>
      <trkpt lat="42.01672" lon="9.22049">
        <ele>1829.8</ele>
        <time>2015-06-22T04:03:45Z</time>
      </trkpt>
      <trkpt lat="42.01682" lon="9.22052">
        <ele>1830.4</ele>
        <time>2015-06-22T04:03:55Z</time>
      </trkpt>
      <trkpt lat="42.01692" lon="9.22056">
        <ele>1830.4</ele>
        <time>2015-06-22T04:04:05Z</time>
      </trkpt>
      <trkpt lat="42.01694" lon="9.22056">
        <ele>1830.2</ele>
        <time>2015-06-22T04:04:07Z</time>
      </trkpt>
      <trkpt lat="42.01701" lon="9.22056">
        <ele>1830.2</ele>
        <time>2015-06-22T04:04:14Z</time>
      </trkpt>
      <trkpt lat="42.01708" lon="9.22057">
        <ele>1829.8</ele>
        <time>2015-06-22T04:04:20Z</time>
      </trkpt>
      <trkpt lat="42.01716" lon="9.22059">
        <ele>1829.8</ele>
        <time>2015-06-22T04:04:27Z</time>
      </trkpt>
      <trkpt lat="42.01761" lon="9.22057">
        <ele>1829.4</ele>
        <time>2015-06-22T04:05:10Z</time>
      </trkpt>
      <trkpt lat="42.01774" lon="9.22053">
        <ele>1829.2</ele>
        <time>2015-06-22T04:05:22Z</time>
      </trkpt>
      <trkpt lat="42.01776" lon="9.22051">
        <ele>1829.2</ele>
        <time>2015-06-22T04:05:25Z</time>
      </trkpt>
      <trkpt lat="42.01779" lon="9.22051">
        <ele>1829.2</ele>
        <time>2015-06-22T04:05:28Z</time>
      </trkpt>
      <trkpt lat="42.01786" lon="9.2205">
        <ele>1829.4</ele>
        <time>2015-06-22T04:05:33Z</time>
      </trkpt>
      <trkpt lat="42.01792" lon="9.2205">
        <ele>1829.4</ele>
        <time>2015-06-22T04:05:38Z</time>
      </trkpt>
      <trkpt lat="42.01796" lon="9.22049">
        <ele>1829.4</ele>
        <time>2015-06-22T04:05:42Z</time>
      </trkpt>
      <trkpt lat="42.018" lon="9.22049">
        <ele>1829.4</ele>
        <time>2015-06-22T04:05:46Z</time>
      </trkpt>
      <trkpt lat="42.01817" lon="9.22014">
        <ele>1827.8</ele>
        <time>2015-06-22T04:07:23Z</time>
      </trkpt>
      <trkpt lat="42.0182" lon="9.21999">
        <ele>1826.6</ele>
        <time>2015-06-22T04:07:40Z</time>
      </trkpt>
      <trkpt lat="42.01821" lon="9.21993">
        <ele>1826.4</ele>
        <time>2015-06-22T04:07:45Z</time>
      </trkpt>
      <trkpt lat="42.01824" lon="9.2199">
        <ele>1825.2</ele>
        <time>2015-06-22T04:07:49Z</time>
      </trkpt>
      <trkpt lat="42.01827" lon="9.21988">
        <ele>1824.4</ele>
        <time>2015-06-22T04:07:52Z</time>
      </trkpt>
      <trkpt lat="42.0183" lon="9.21986">
        <ele>1823.6</ele>
        <time>2015-06-22T04:07:57Z</time>
      </trkpt>
      <trkpt lat="42.01834" lon="9.21986">
        <ele>1822.2</ele>
        <time>2015-06-22T04:08:03Z</time>
      </trkpt>
      <trkpt lat="42.0184" lon="9.2198">
        <ele>1820.8</ele>
        <time>2015-06-22T04:08:12Z</time>
      </trkpt>
      <trkpt lat="42.01843" lon="9.21976">
        <ele>1820.2</ele>
        <time>2015-06-22T04:08:17Z</time>
      </trkpt>
      <trkpt lat="42.01844" lon="9.21972">
        <ele>1819</ele>
        <time>2015-06-22T04:08:22Z</time>
      </trkpt>
      <trkpt lat="42.01847" lon="9.2197">
        <ele>1817.6</ele>
        <time>2015-06-22T04:08:27Z</time>
      </trkpt>
      <trkpt lat="42.01849" lon="9.21963">
        <ele>1816</ele>
        <time>2015-06-22T04:08:34Z</time>
      </trkpt>
      <trkpt lat="42.01852" lon="9.2196">
        <ele>1815.2</ele>
        <time>2015-06-22T04:08:39Z</time>
      </trkpt>
      <trkpt lat="42.01854" lon="9.21956">
        <ele>1814</ele>
        <time>2015-06-22T04:08:44Z</time>
      </trkpt>
      <trkpt lat="42.01852" lon="9.21952">
        <ele>1812.6</ele>
        <time>2015-06-22T04:08:50Z</time>
      </trkpt>
      <trkpt lat="42.01854" lon="9.21944">
        <ele>1810.6</ele>
        <time>2015-06-22T04:08:58Z</time>
      </trkpt>
      <trkpt lat="42.01853" lon="9.21941">
        <ele>1810</ele>
        <time>2015-06-22T04:09:03Z</time>
      </trkpt>
      <trkpt lat="42.01854" lon="9.21938">
        <ele>1809.2</ele>
        <time>2015-06-22T04:09:07Z</time>
      </trkpt>
      <trkpt lat="42.01855" lon="9.21935">
        <ele>1807.4</ele>
        <time>2015-06-22T04:09:13Z</time>
      </trkpt>
      <trkpt lat="42.01859" lon="9.21929">
        <ele>1805.6</ele>
        <time>2015-06-22T04:09:21Z</time>
      </trkpt>
      <trkpt lat="42.01863" lon="9.21924">
        <ele>1804.4</ele>
        <time>2015-06-22T04:09:30Z</time>
      </trkpt>
      <trkpt lat="42.01866" lon="9.21918">
        <ele>1803.2</ele>
        <time>2015-06-22T04:09:38Z</time>
      </trkpt>
      <trkpt lat="42.0187" lon="9.21914">
        <ele>1802</ele>
        <time>2015-06-22T04:09:46Z</time>
      </trkpt>
      <trkpt lat="42.01875" lon="9.21911">
        <ele>1800.6</ele>
        <time>2015-06-22T04:09:54Z</time>
      </trkpt>
      <trkpt lat="42.01876" lon="9.21906">
        <ele>1799.8</ele>
        <time>2015-06-22T04:10:01Z</time>
      </trkpt>
      <trkpt lat="42.01878" lon="9.21898">
        <ele>1798</ele>
        <time>2015-06-22T04:10:11Z</time>
      </trkpt>
      <trkpt lat="42.01883" lon="9.21897">
        <ele>1796.2</ele>
        <time>2015-06-22T04:10:31Z</time>
      </trkpt>
      <trkpt lat="42.01881" lon="9.21892">
        <ele>1795.6</ele>
        <time>2015-06-22T04:10:38Z</time>
      </trkpt>
      <trkpt lat="42.01879" lon="9.2189">
        <ele>1794.4</ele>
        <time>2015-06-22T04:10:44Z</time>
      </trkpt>
      <trkpt lat="42.01876" lon="9.21888">
        <ele>1792.6</ele>
        <time>2015-06-22T04:10:52Z</time>
      </trkpt>
      <trkpt lat="42.01873" lon="9.21887">
        <ele>1791.6</ele>
        <time>2015-06-22T04:10:59Z</time>
      </trkpt>
      <trkpt lat="42.01868" lon="9.21886">
        <ele>1790.4</ele>
        <time>2015-06-22T04:11:06Z</time>
      </trkpt>
      <trkpt lat="42.01868" lon="9.21881">
        <ele>1788.8</ele>
        <time>2015-06-22T04:11:15Z</time>
      </trkpt>
      <trkpt lat="42.01866" lon="9.21878">
        <ele>1787.8</ele>
        <time>2015-06-22T04:11:23Z</time>
      </trkpt>
      <trkpt lat="42.01861" lon="9.21877">
        <ele>1786.6</ele>
        <time>2015-06-22T04:11:31Z</time>
      </trkpt>
      <trkpt lat="42.01857" lon="9.21875">
        <ele>1785.4</ele>
        <time>2015-06-22T04:11:38Z</time>
      </trkpt>
      <trkpt lat="42.01856" lon="9.21872">
        <ele>1784.2</ele>
        <time>2015-06-22T04:11:44Z</time>
      </trkpt>
      <trkpt lat="42.01857" lon="9.21869">
        <ele>1782.8</ele>
        <time>2015-06-22T04:11:51Z</time>
      </trkpt>
      <trkpt lat="42.01858" lon="9.21867">
        <ele>1781.8</ele>
        <time>2015-06-22T04:11:57Z</time>
      </trkpt>
      <trkpt lat="42.01861" lon="9.21864">
        <ele>1780.4</ele>
        <time>2015-06-22T04:12:04Z</time>
      </trkpt>
      <trkpt lat="42.0186" lon="9.21858">
        <ele>1779</ele>
        <time>2015-06-22T04:12:12Z</time>
      </trkpt>
      <trkpt lat="42.01858" lon="9.21859">
        <ele>1778.2</ele>
        <time>2015-06-22T04:12:17Z</time>
      </trkpt>
      <trkpt lat="42.01857" lon="9.21854">
        <ele>1776.6</ele>
        <time>2015-06-22T04:12:26Z</time>
      </trkpt>
      <trkpt lat="42.01858" lon="9.21849">
        <ele>1775.8</ele>
        <time>2015-06-22T04:12:33Z</time>
      </trkpt>
      <trkpt lat="42.01857" lon="9.21845">
        <ele>1774.4</ele>
        <time>2015-06-22T04:12:40Z</time>
      </trkpt>
      <trkpt lat="42.0186" lon="9.21843">
        <ele>1772.8</ele>
        <time>2015-06-22T04:12:49Z</time>
      </trkpt>
      <trkpt lat="42.01861" lon="9.21839">
        <ele>1772.2</ele>
        <time>2015-06-22T04:12:54Z</time>
      </trkpt>
      <trkpt lat="42.01861" lon="9.21837">
        <ele>1771.8</ele>
        <time>2015-06-22T04:12:58Z</time>
      </trkpt>
      <trkpt lat="42.0186" lon="9.21837">
        <ele>1771</ele>
        <time>2015-06-22T04:13:00Z</time>
      </trkpt>
      <trkpt lat="42.01857" lon="9.21836">
        <ele>1769.8</ele>
        <time>2015-06-22T04:13:06Z</time>
      </trkpt>
      <trkpt lat="42.01854" lon="9.21834">
        <ele>1768.4</ele>
        <time>2015-06-22T04:13:13Z</time>
      </trkpt>
      <trkpt lat="42.01856" lon="9.21832">
        <ele>1767.2</ele>
        <time>2015-06-22T04:13:21Z</time>
      </trkpt>
      <trkpt lat="42.01858" lon="9.21826">
        <ele>1766</ele>
        <time>2015-06-22T04:13:29Z</time>
      </trkpt>
      <trkpt lat="42.0186" lon="9.2182">
        <ele>1764.8</ele>
        <time>2015-06-22T04:13:37Z</time>
      </trkpt>
      <trkpt lat="42.01859" lon="9.21817">
        <ele>1763.2</ele>
        <time>2015-06-22T04:13:50Z</time>
      </trkpt>
      <trkpt lat="42.01854" lon="9.21818">
        <ele>1762</ele>
        <time>2015-06-22T04:14:06Z</time>
      </trkpt>
      <trkpt lat="42.01851" lon="9.21814">
        <ele>1760.8</ele>
        <time>2015-06-22T04:14:14Z</time>
      </trkpt>
      <trkpt lat="42.01852" lon="9.2181">
        <ele>1760</ele>
        <time>2015-06-22T04:14:19Z</time>
      </trkpt>
      <trkpt lat="42.01852" lon="9.21803">
        <ele>1758.6</ele>
        <time>2015-06-22T04:14:26Z</time>
      </trkpt>
      <trkpt lat="42.01856" lon="9.21797">
        <ele>1757.2</ele>
        <time>2015-06-22T04:14:34Z</time>
      </trkpt>
      <trkpt lat="42.01859" lon="9.21791">
        <ele>1756.4</ele>
        <time>2015-06-22T04:14:40Z</time>
      </trkpt>
      <trkpt lat="42.01861" lon="9.21789">
        <ele>1755.6</ele>
        <time>2015-06-22T04:14:45Z</time>
      </trkpt>
      <trkpt lat="42.01863" lon="9.21786">
        <ele>1754</ele>
        <time>2015-06-22T04:14:51Z</time>
      </trkpt>
      <trkpt lat="42.01865" lon="9.21782">
        <ele>1752.6</ele>
        <time>2015-06-22T04:14:59Z</time>
      </trkpt>
      <trkpt lat="42.01867" lon="9.2178">
        <ele>1751.8</ele>
        <time>2015-06-22T04:15:04Z</time>
      </trkpt>
      <trkpt lat="42.01868" lon="9.21777">
        <ele>1750.8</ele>
        <time>2015-06-22T04:15:09Z</time>
      </trkpt>
      <trkpt lat="42.01871" lon="9.21769">
        <ele>1748.6</ele>
        <time>2015-06-22T04:15:21Z</time>
      </trkpt>
      <trkpt lat="42.01872" lon="9.21768">
        <ele>1748</ele>
        <time>2015-06-22T04:15:27Z</time>
      </trkpt>
      <trkpt lat="42.01872" lon="9.21762">
        <ele>1746.6</ele>
        <time>2015-06-22T04:15:33Z</time>
      </trkpt>
      <trkpt lat="42.01873" lon="9.21762">
        <ele>1746.6</ele>
        <time>2015-06-22T04:15:34Z</time>
      </trkpt>
      <trkpt lat="42.01874" lon="9.21762">
        <ele>1746.2</ele>
        <time>2015-06-22T04:15:36Z</time>
      </trkpt>
      <trkpt lat="42.01877" lon="9.21758">
        <ele>1745.2</ele>
        <time>2015-06-22T04:15:42Z</time>
      </trkpt>
      <trkpt lat="42.0188" lon="9.21749">
        <ele>1743.6</ele>
        <time>2015-06-22T04:15:53Z</time>
      </trkpt>
      <trkpt lat="42.01881" lon="9.21744">
        <ele>1743</ele>
        <time>2015-06-22T04:15:59Z</time>
      </trkpt>
      <trkpt lat="42.0188" lon="9.21743">
        <ele>1741.6</ele>
        <time>2015-06-22T04:16:07Z</time>
      </trkpt>
      <trkpt lat="42.01877" lon="9.21741">
        <ele>1740.4</ele>
        <time>2015-06-22T04:16:14Z</time>
      </trkpt>
      <trkpt lat="42.01873" lon="9.21741">
        <ele>1739</ele>
        <time>2015-06-22T04:16:21Z</time>
      </trkpt>
      <trkpt lat="42.01869" lon="9.2174">
        <ele>1738</ele>
        <time>2015-06-22T04:16:28Z</time>
      </trkpt>
      <trkpt lat="42.01864" lon="9.2174">
        <ele>1736.8</ele>
        <time>2015-06-22T04:16:34Z</time>
      </trkpt>
      <trkpt lat="42.01861" lon="9.21737">
        <ele>1735.6</ele>
        <time>2015-06-22T04:16:41Z</time>
      </trkpt>
      <trkpt lat="42.01863" lon="9.21732">
        <ele>1734.2</ele>
        <time>2015-06-22T04:16:48Z</time>
      </trkpt>
      <trkpt lat="42.01863" lon="9.21729">
        <ele>1733.6</ele>
        <time>2015-06-22T04:16:53Z</time>
      </trkpt>
      <trkpt lat="42.01861" lon="9.21729">
        <ele>1732.8</ele>
        <time>2015-06-22T04:16:56Z</time>
      </trkpt>
      <trkpt lat="42.0186" lon="9.21728">
        <ele>1732.6</ele>
        <time>2015-06-22T04:16:58Z</time>
      </trkpt>
      <trkpt lat="42.01858" lon="9.21729">
        <ele>1731.8</ele>
        <time>2015-06-22T04:17:02Z</time>
      </trkpt>
      <trkpt lat="42.01853" lon="9.21727">
        <ele>1730.8</ele>
        <time>2015-06-22T04:17:09Z</time>
      </trkpt>
      <trkpt lat="42.01849" lon="9.21727">
        <ele>1729.2</ele>
        <time>2015-06-22T04:17:17Z</time>
      </trkpt>
      <trkpt lat="42.01846" lon="9.21727">
        <ele>1728</ele>
        <time>2015-06-22T04:17:24Z</time>
      </trkpt>
      <trkpt lat="42.01844" lon="9.21726">
        <ele>1727.6</ele>
        <time>2015-06-22T04:17:28Z</time>
      </trkpt>
      <trkpt lat="42.01847" lon="9.21721">
        <ele>1725.4</ele>
        <time>2015-06-22T04:17:38Z</time>
      </trkpt>
      <trkpt lat="42.01848" lon="9.21717">
        <ele>1724.8</ele>
        <time>2015-06-22T04:17:44Z</time>
      </trkpt>
      <trkpt lat="42.0185" lon="9.21713">
        <ele>1724</ele>
        <time>2015-06-22T04:17:49Z</time>
      </trkpt>
      <trkpt lat="42.01846" lon="9.21708">
        <ele>1721.8</ele>
        <time>2015-06-22T04:17:58Z</time>
      </trkpt>
      <trkpt lat="42.01844" lon="9.21707">
        <ele>1721</ele>
        <time>2015-06-22T04:18:04Z</time>
      </trkpt>
      <trkpt lat="42.01842" lon="9.21705">
        <ele>1719.6</ele>
        <time>2015-06-22T04:18:11Z</time>
      </trkpt>
      <trkpt lat="42.0184" lon="9.21703">
        <ele>1718.6</ele>
        <time>2015-06-22T04:18:18Z</time>
      </trkpt>
      <trkpt lat="42.01842" lon="9.21699">
        <ele>1717</ele>
        <time>2015-06-22T04:18:28Z</time>
      </trkpt>
      <trkpt lat="42.0185" lon="9.21693">
        <ele>1715.6</ele>
        <time>2015-06-22T04:18:40Z</time>
      </trkpt>
      <trkpt lat="42.01854" lon="9.21686">
        <ele>1714.6</ele>
        <time>2015-06-22T04:18:48Z</time>
      </trkpt>
      <trkpt lat="42.01859" lon="9.21681">
        <ele>1713.6</ele>
        <time>2015-06-22T04:18:56Z</time>
      </trkpt>
      <trkpt lat="42.01861" lon="9.21669">
        <ele>1712.4</ele>
        <time>2015-06-22T04:19:08Z</time>
      </trkpt>
      <trkpt lat="42.0186" lon="9.21662">
        <ele>1711.4</ele>
        <time>2015-06-22T04:19:14Z</time>
      </trkpt>
      <trkpt lat="42.0186" lon="9.21654">
        <ele>1710</ele>
        <time>2015-06-22T04:19:22Z</time>
      </trkpt>
      <trkpt lat="42.01861" lon="9.21648">
        <ele>1708.6</ele>
        <time>2015-06-22T04:19:30Z</time>
      </trkpt>
      <trkpt lat="42.01862" lon="9.21642">
        <ele>1707.8</ele>
        <time>2015-06-22T04:19:36Z</time>
      </trkpt>
      <trkpt lat="42.01865" lon="9.21636">
        <ele>1706.2</ele>
        <time>2015-06-22T04:19:45Z</time>
      </trkpt>
      <trkpt lat="42.01866" lon="9.21631">
        <ele>1705.4</ele>
        <time>2015-06-22T04:19:52Z</time>
      </trkpt>
      <trkpt lat="42.01865" lon="9.21627">
        <ele>1704.2</ele>
        <time>2015-06-22T04:19:59Z</time>
      </trkpt>
      <trkpt lat="42.01866" lon="9.21624">
        <ele>1703.2</ele>
        <time>2015-06-22T04:20:05Z</time>
      </trkpt>
      <trkpt lat="42.01868" lon="9.21622">
        <ele>1702.2</ele>
        <time>2015-06-22T04:20:11Z</time>
      </trkpt>
      <trkpt lat="42.01867" lon="9.2162">
        <ele>1700.8</ele>
        <time>2015-06-22T04:20:17Z</time>
      </trkpt>
      <trkpt lat="42.01866" lon="9.21615">
        <ele>1699.6</ele>
        <time>2015-06-22T04:20:24Z</time>
      </trkpt>
      <trkpt lat="42.01866" lon="9.21611">
        <ele>1698.6</ele>
        <time>2015-06-22T04:20:30Z</time>
      </trkpt>
      <trkpt lat="42.01871" lon="9.21605">
        <ele>1697</ele>
        <time>2015-06-22T04:20:37Z</time>
      </trkpt>
      <trkpt lat="42.01872" lon="9.21602">
        <ele>1696.4</ele>
        <time>2015-06-22T04:20:42Z</time>
      </trkpt>
      <trkpt lat="42.01873" lon="9.21596">
        <ele>1695.2</ele>
        <time>2015-06-22T04:20:48Z</time>
      </trkpt>
      <trkpt lat="42.01875" lon="9.21591">
        <ele>1693.6</ele>
        <time>2015-06-22T04:20:55Z</time>
      </trkpt>
      <trkpt lat="42.01876" lon="9.21588">
        <ele>1692.8</ele>
        <time>2015-06-22T04:21:00Z</time>
      </trkpt>
      <trkpt lat="42.01878" lon="9.21582">
        <ele>1691.2</ele>
        <time>2015-06-22T04:21:06Z</time>
      </trkpt>
      <trkpt lat="42.01881" lon="9.21579">
        <ele>1690.2</ele>
        <time>2015-06-22T04:21:12Z</time>
      </trkpt>
      <trkpt lat="42.01882" lon="9.21575">
        <ele>1689</ele>
        <time>2015-06-22T04:21:18Z</time>
      </trkpt>
      <trkpt lat="42.01885" lon="9.21571">
        <ele>1687.6</ele>
        <time>2015-06-22T04:21:25Z</time>
      </trkpt>
      <trkpt lat="42.01889" lon="9.21567">
        <ele>1686.8</ele>
        <time>2015-06-22T04:21:31Z</time>
      </trkpt>
      <trkpt lat="42.01892" lon="9.21564">
        <ele>1685.6</ele>
        <time>2015-06-22T04:21:37Z</time>
      </trkpt>
      <trkpt lat="42.01894" lon="9.21559">
        <ele>1684.4</ele>
        <time>2015-06-22T04:21:44Z</time>
      </trkpt>
      <trkpt lat="42.01893" lon="9.21556">
        <ele>1683.4</ele>
        <time>2015-06-22T04:21:49Z</time>
      </trkpt>
      <trkpt lat="42.01895" lon="9.21547">
        <ele>1681.8</ele>
        <time>2015-06-22T04:21:56Z</time>
      </trkpt>
      <trkpt lat="42.01897" lon="9.21542">
        <ele>1680.4</ele>
        <time>2015-06-22T04:22:03Z</time>
      </trkpt>
      <trkpt lat="42.01901" lon="9.21531">
        <ele>1679</ele>
        <time>2015-06-22T04:22:13Z</time>
      </trkpt>
      <trkpt lat="42.01905" lon="9.21519">
        <ele>1677.8</ele>
        <time>2015-06-22T04:22:28Z</time>
      </trkpt>
      <trkpt lat="42.01907" lon="9.2151">
        <ele>1676.8</ele>
        <time>2015-06-22T04:22:37Z</time>
      </trkpt>
      <trkpt lat="42.01908" lon="9.21503">
        <ele>1676</ele>
        <time>2015-06-22T04:22:43Z</time>
      </trkpt>
      <trkpt lat="42.01909" lon="9.21501">
        <ele>1675.8</ele>
        <time>2015-06-22T04:22:44Z</time>
      </trkpt>
      <trkpt lat="42.01915" lon="9.21495">
        <ele>1674.4</ele>
        <time>2015-06-22T04:22:51Z</time>
      </trkpt>
      <trkpt lat="42.01915" lon="9.21494">
        <ele>1674.4</ele>
        <time>2015-06-22T04:22:52Z</time>
      </trkpt>
      <trkpt lat="42.01919" lon="9.21488">
        <ele>1673.6</ele>
        <time>2015-06-22T04:23:00Z</time>
      </trkpt>
      <trkpt lat="42.01919" lon="9.21481">
        <ele>1672.4</ele>
        <time>2015-06-22T04:23:07Z</time>
      </trkpt>
      <trkpt lat="42.01922" lon="9.21478">
        <ele>1671.6</ele>
        <time>2015-06-22T04:23:13Z</time>
      </trkpt>
      <trkpt lat="42.01924" lon="9.21472">
        <ele>1670.2</ele>
        <time>2015-06-22T04:23:20Z</time>
      </trkpt>
      <trkpt lat="42.01926" lon="9.21467">
        <ele>1669.6</ele>
        <time>2015-06-22T04:23:25Z</time>
      </trkpt>
      <trkpt lat="42.01928" lon="9.21461">
        <ele>1668</ele>
        <time>2015-06-22T04:23:32Z</time>
      </trkpt>
      <trkpt lat="42.0193" lon="9.21455">
        <ele>1666.8</ele>
        <time>2015-06-22T04:23:38Z</time>
      </trkpt>
      <trkpt lat="42.0193" lon="9.2145">
        <ele>1665.8</ele>
        <time>2015-06-22T04:23:44Z</time>
      </trkpt>
      <trkpt lat="42.01928" lon="9.21446">
        <ele>1664.6</ele>
        <time>2015-06-22T04:23:50Z</time>
      </trkpt>
      <trkpt lat="42.01929" lon="9.21445">
        <ele>1663.8</ele>
        <time>2015-06-22T04:23:53Z</time>
      </trkpt>
      <trkpt lat="42.01929" lon="9.21443">
        <ele>1663.2</ele>
        <time>2015-06-22T04:23:57Z</time>
      </trkpt>
      <trkpt lat="42.01934" lon="9.21437">
        <ele>1661.6</ele>
        <time>2015-06-22T04:24:07Z</time>
      </trkpt>
      <trkpt lat="42.01938" lon="9.21428">
        <ele>1660.8</ele>
        <time>2015-06-22T04:24:16Z</time>
      </trkpt>
      <trkpt lat="42.01941" lon="9.21422">
        <ele>1659.4</ele>
        <time>2015-06-22T04:24:25Z</time>
      </trkpt>
      <trkpt lat="42.01943" lon="9.21418">
        <ele>1658.6</ele>
        <time>2015-06-22T04:24:32Z</time>
      </trkpt>
      <trkpt lat="42.01945" lon="9.21413">
        <ele>1657.8</ele>
        <time>2015-06-22T04:24:38Z</time>
      </trkpt>
      <trkpt lat="42.01946" lon="9.21407">
        <ele>1656.4</ele>
        <time>2015-06-22T04:24:45Z</time>
      </trkpt>
      <trkpt lat="42.01948" lon="9.21399">
        <ele>1654.8</ele>
        <time>2015-06-22T04:24:52Z</time>
      </trkpt>
      <trkpt lat="42.01952" lon="9.21393">
        <ele>1653.8</ele>
        <time>2015-06-22T04:25:00Z</time>
      </trkpt>
      <trkpt lat="42.01957" lon="9.21385">
        <ele>1652.8</ele>
        <time>2015-06-22T04:25:10Z</time>
      </trkpt>
      <trkpt lat="42.01956" lon="9.21381">
        <ele>1651.6</ele>
        <time>2015-06-22T04:25:16Z</time>
      </trkpt>
      <trkpt lat="42.01955" lon="9.21376">
        <ele>1650.6</ele>
        <time>2015-06-22T04:25:23Z</time>
      </trkpt>
      <trkpt lat="42.01952" lon="9.21374">
        <ele>1649.4</ele>
        <time>2015-06-22T04:25:31Z</time>
      </trkpt>
      <trkpt lat="42.01951" lon="9.21373">
        <ele>1648.4</ele>
        <time>2015-06-22T04:25:37Z</time>
      </trkpt>
      <trkpt lat="42.01949" lon="9.21369">
        <ele>1647</ele>
        <time>2015-06-22T04:25:44Z</time>
      </trkpt>
      <trkpt lat="42.01949" lon="9.21366">
        <ele>1645.8</ele>
        <time>2015-06-22T04:25:51Z</time>
      </trkpt>
      <trkpt lat="42.01948" lon="9.21361">
        <ele>1644.4</ele>
        <time>2015-06-22T04:25:59Z</time>
      </trkpt>
      <trkpt lat="42.01953" lon="9.21355">
        <ele>1643.2</ele>
        <time>2015-06-22T04:26:09Z</time>
      </trkpt>
      <trkpt lat="42.01959" lon="9.21344">
        <ele>1642</ele>
        <time>2015-06-22T04:26:21Z</time>
      </trkpt>
      <trkpt lat="42.01962" lon="9.21334">
        <ele>1641.2</ele>
        <time>2015-06-22T04:26:33Z</time>
      </trkpt>
      <trkpt lat="42.01965" lon="9.21325">
        <ele>1639.8</ele>
        <time>2015-06-22T04:26:42Z</time>
      </trkpt>
      <trkpt lat="42.01979" lon="9.21299">
        <ele>1639.8</ele>
        <time>2015-06-22T04:27:11Z</time>
      </trkpt>
      <trkpt lat="42.01981" lon="9.21259">
        <ele>1639.4</ele>
        <time>2015-06-22T04:27:39Z</time>
      </trkpt>
      <trkpt lat="42.01981" lon="9.21252">
        <ele>1639.8</ele>
        <time>2015-06-22T04:27:47Z</time>
      </trkpt>
      <trkpt lat="42.0198" lon="9.2125">
        <ele>1640</ele>
        <time>2015-06-22T04:27:49Z</time>
      </trkpt>
      <trkpt lat="42.01992" lon="9.21225">
        <ele>1639.4</ele>
        <time>2015-06-22T04:28:16Z</time>
      </trkpt>
      <trkpt lat="42.01995" lon="9.21222">
        <ele>1638.4</ele>
        <time>2015-06-22T04:28:23Z</time>
      </trkpt>
      <trkpt lat="42.02002" lon="9.21217">
        <ele>1636.8</ele>
        <time>2015-06-22T04:28:35Z</time>
      </trkpt>
      <trkpt lat="42.02005" lon="9.2121">
        <ele>1635.6</ele>
        <time>2015-06-22T04:28:45Z</time>
      </trkpt>
      <trkpt lat="42.02007" lon="9.21206">
        <ele>1635</ele>
        <time>2015-06-22T04:28:51Z</time>
      </trkpt>
      <trkpt lat="42.0201" lon="9.21204">
        <ele>1633.8</ele>
        <time>2015-06-22T04:28:57Z</time>
      </trkpt>
      <trkpt lat="42.0201" lon="9.212">
        <ele>1633.2</ele>
        <time>2015-06-22T04:29:01Z</time>
      </trkpt>
      <trkpt lat="42.02011" lon="9.21194">
        <ele>1631.4</ele>
        <time>2015-06-22T04:29:09Z</time>
      </trkpt>
      <trkpt lat="42.02013" lon="9.21194">
        <ele>1630.6</ele>
        <time>2015-06-22T04:29:15Z</time>
      </trkpt>
      <trkpt lat="42.02015" lon="9.21191">
        <ele>1629.4</ele>
        <time>2015-06-22T04:29:21Z</time>
      </trkpt>
      <trkpt lat="42.02016" lon="9.21185">
        <ele>1628.2</ele>
        <time>2015-06-22T04:29:27Z</time>
      </trkpt>
      <trkpt lat="42.0202" lon="9.21183">
        <ele>1627</ele>
        <time>2015-06-22T04:29:33Z</time>
      </trkpt>
      <trkpt lat="42.02021" lon="9.21175">
        <ele>1626.2</ele>
        <time>2015-06-22T04:29:38Z</time>
      </trkpt>
      <trkpt lat="42.02021" lon="9.21159">
        <ele>1624.4</ele>
        <time>2015-06-22T04:29:47Z</time>
      </trkpt>
      <trkpt lat="42.02026" lon="9.21147">
        <ele>1623.4</ele>
        <time>2015-06-22T04:29:56Z</time>
      </trkpt>
      <trkpt lat="42.0203" lon="9.21141">
        <ele>1622.6</ele>
        <time>2015-06-22T04:30:03Z</time>
      </trkpt>
      <trkpt lat="42.02032" lon="9.21138">
        <ele>1622</ele>
        <time>2015-06-22T04:30:09Z</time>
      </trkpt>
      <trkpt lat="42.02038" lon="9.21133">
        <ele>1620.8</ele>
        <time>2015-06-22T04:30:19Z</time>
      </trkpt>
      <trkpt lat="42.02039" lon="9.21129">
        <ele>1620.2</ele>
        <time>2015-06-22T04:30:26Z</time>
      </trkpt>
      <trkpt lat="42.02044" lon="9.21117">
        <ele>1618.6</ele>
        <time>2015-06-22T04:30:37Z</time>
      </trkpt>
      <trkpt lat="42.02046" lon="9.21112">
        <ele>1618.2</ele>
        <time>2015-06-22T04:30:42Z</time>
      </trkpt>
      <trkpt lat="42.02046" lon="9.2111">
        <ele>1618</ele>
        <time>2015-06-22T04:30:43Z</time>
      </trkpt>
      <trkpt lat="42.02045" lon="9.21106">
        <ele>1617</ele>
        <time>2015-06-22T04:30:49Z</time>
      </trkpt>
      <trkpt lat="42.02045" lon="9.21101">
        <ele>1615.8</ele>
        <time>2015-06-22T04:30:55Z</time>
      </trkpt>
      <trkpt lat="42.02047" lon="9.21094">
        <ele>1614.8</ele>
        <time>2015-06-22T04:31:01Z</time>
      </trkpt>
      <trkpt lat="42.0205" lon="9.21091">
        <ele>1613.8</ele>
        <time>2015-06-22T04:31:06Z</time>
      </trkpt>
      <trkpt lat="42.02053" lon="9.21086">
        <ele>1612.2</ele>
        <time>2015-06-22T04:31:15Z</time>
      </trkpt>
      <trkpt lat="42.02055" lon="9.21079">
        <ele>1611.2</ele>
        <time>2015-06-22T04:31:23Z</time>
      </trkpt>
      <trkpt lat="42.02057" lon="9.21077">
        <ele>1610.8</ele>
        <time>2015-06-22T04:31:25Z</time>
      </trkpt>
      <trkpt lat="42.02058" lon="9.21075">
        <ele>1610.6</ele>
        <time>2015-06-22T04:31:27Z</time>
      </trkpt>
      <trkpt lat="42.0206" lon="9.21075">
        <ele>1610.4</ele>
        <time>2015-06-22T04:31:28Z</time>
      </trkpt>
      <trkpt lat="42.02065" lon="9.2107">
        <ele>1609.2</ele>
        <time>2015-06-22T04:31:33Z</time>
      </trkpt>
      <trkpt lat="42.02068" lon="9.21069">
        <ele>1608.8</ele>
        <time>2015-06-22T04:31:36Z</time>
      </trkpt>
      <trkpt lat="42.02069" lon="9.2107">
        <ele>1608.6</ele>
        <time>2015-06-22T04:31:37Z</time>
      </trkpt>
      <trkpt lat="42.02069" lon="9.21071">
        <ele>1607.2</ele>
        <time>2015-06-22T04:31:42Z</time>
      </trkpt>
      <trkpt lat="42.02072" lon="9.2107">
        <ele>1606.2</ele>
        <time>2015-06-22T04:31:46Z</time>
      </trkpt>
      <trkpt lat="42.02076" lon="9.21066">
        <ele>1604.6</ele>
        <time>2015-06-22T04:31:52Z</time>
      </trkpt>
      <trkpt lat="42.02076" lon="9.21065">
        <ele>1604.4</ele>
        <time>2015-06-22T04:31:53Z</time>
      </trkpt>
      <trkpt lat="42.0208" lon="9.21061">
        <ele>1603.6</ele>
        <time>2015-06-22T04:31:57Z</time>
      </trkpt>
      <trkpt lat="42.02083" lon="9.21055">
        <ele>1602.2</ele>
        <time>2015-06-22T04:32:04Z</time>
      </trkpt>
      <trkpt lat="42.02085" lon="9.2105">
        <ele>1601.2</ele>
        <time>2015-06-22T04:32:10Z</time>
      </trkpt>
      <trkpt lat="42.02086" lon="9.21047">
        <ele>1601</ele>
        <time>2015-06-22T04:32:13Z</time>
      </trkpt>
      <trkpt lat="42.02088" lon="9.21041">
        <ele>1600.2</ele>
        <time>2015-06-22T04:32:19Z</time>
      </trkpt>
      <trkpt lat="42.0209" lon="9.21043">
        <ele>1598.8</ele>
        <time>2015-06-22T04:32:25Z</time>
      </trkpt>
      <trkpt lat="42.02092" lon="9.21045">
        <ele>1598</ele>
        <time>2015-06-22T04:32:30Z</time>
      </trkpt>
      <trkpt lat="42.02095" lon="9.21043">
        <ele>1597</ele>
        <time>2015-06-22T04:32:35Z</time>
      </trkpt>
      <trkpt lat="42.02095" lon="9.21042">
        <ele>1596.4</ele>
        <time>2015-06-22T04:32:36Z</time>
      </trkpt>
      <trkpt lat="42.02097" lon="9.21035">
        <ele>1595.4</ele>
        <time>2015-06-22T04:32:41Z</time>
      </trkpt>
      <trkpt lat="42.02099" lon="9.21028">
        <ele>1594.4</ele>
        <time>2015-06-22T04:32:47Z</time>
      </trkpt>
      <trkpt lat="42.02101" lon="9.21022">
        <ele>1593.2</ele>
        <time>2015-06-22T04:32:52Z</time>
      </trkpt>
      <trkpt lat="42.02103" lon="9.21013">
        <ele>1591.6</ele>
        <time>2015-06-22T04:33:00Z</time>
      </trkpt>
      <trkpt lat="42.02105" lon="9.21007">
        <ele>1591</ele>
        <time>2015-06-22T04:33:05Z</time>
      </trkpt>
      <trkpt lat="42.02107" lon="9.21003">
        <ele>1589.8</ele>
        <time>2015-06-22T04:33:10Z</time>
      </trkpt>
      <trkpt lat="42.02108" lon="9.21001">
        <ele>1589.2</ele>
        <time>2015-06-22T04:33:14Z</time>
      </trkpt>
      <trkpt lat="42.02109" lon="9.20998">
        <ele>1587.6</ele>
        <time>2015-06-22T04:33:18Z</time>
      </trkpt>
      <trkpt lat="42.02112" lon="9.20992">
        <ele>1586.2</ele>
        <time>2015-06-22T04:33:23Z</time>
      </trkpt>
      <trkpt lat="42.02115" lon="9.20987">
        <ele>1585</ele>
        <time>2015-06-22T04:33:28Z</time>
      </trkpt>
      <trkpt lat="42.02118" lon="9.20979">
        <ele>1583.2</ele>
        <time>2015-06-22T04:33:36Z</time>
      </trkpt>
      <trkpt lat="42.02121" lon="9.20974">
        <ele>1582.6</ele>
        <time>2015-06-22T04:33:41Z</time>
      </trkpt>
      <trkpt lat="42.02123" lon="9.20974">
        <ele>1581.6</ele>
        <time>2015-06-22T04:33:46Z</time>
      </trkpt>
      <trkpt lat="42.02125" lon="9.20969">
        <ele>1580.4</ele>
        <time>2015-06-22T04:33:52Z</time>
      </trkpt>
      <trkpt lat="42.02125" lon="9.20963">
        <ele>1578.4</ele>
        <time>2015-06-22T04:33:59Z</time>
      </trkpt>
      <trkpt lat="42.02125" lon="9.20962">
        <ele>1577.8</ele>
        <time>2015-06-22T04:34:03Z</time>
      </trkpt>
      <trkpt lat="42.02128" lon="9.20961">
        <ele>1576.4</ele>
        <time>2015-06-22T04:34:09Z</time>
      </trkpt>
      <trkpt lat="42.02131" lon="9.20956">
        <ele>1575</ele>
        <time>2015-06-22T04:34:16Z</time>
      </trkpt>
      <trkpt lat="42.02132" lon="9.20953">
        <ele>1574</ele>
        <time>2015-06-22T04:34:22Z</time>
      </trkpt>
      <trkpt lat="42.0213" lon="9.20953">
        <ele>1572.8</ele>
        <time>2015-06-22T04:34:28Z</time>
      </trkpt>
      <trkpt lat="42.02131" lon="9.20949">
        <ele>1572</ele>
        <time>2015-06-22T04:34:33Z</time>
      </trkpt>
      <trkpt lat="42.02133" lon="9.20945">
        <ele>1570.8</ele>
        <time>2015-06-22T04:34:38Z</time>
      </trkpt>
      <trkpt lat="42.02137" lon="9.20945">
        <ele>1569.2</ele>
        <time>2015-06-22T04:34:45Z</time>
      </trkpt>
      <trkpt lat="42.0214" lon="9.20943">
        <ele>1567.8</ele>
        <time>2015-06-22T04:34:53Z</time>
      </trkpt>
      <trkpt lat="42.02141" lon="9.20938">
        <ele>1567</ele>
        <time>2015-06-22T04:34:59Z</time>
      </trkpt>
      <trkpt lat="42.02142" lon="9.20939">
        <ele>1566</ele>
        <time>2015-06-22T04:35:05Z</time>
      </trkpt>
      <trkpt lat="42.02144" lon="9.20948">
        <ele>1564.6</ele>
        <time>2015-06-22T04:35:15Z</time>
      </trkpt>
      <trkpt lat="42.02147" lon="9.2095">
        <ele>1563.6</ele>
        <time>2015-06-22T04:35:22Z</time>
      </trkpt>
      <trkpt lat="42.02149" lon="9.20945">
        <ele>1562.4</ele>
        <time>2015-06-22T04:35:29Z</time>
      </trkpt>
      <trkpt lat="42.02153" lon="9.20949">
        <ele>1561.2</ele>
        <time>2015-06-22T04:35:42Z</time>
      </trkpt>
      <trkpt lat="42.02155" lon="9.20948">
        <ele>1560.6</ele>
        <time>2015-06-22T04:35:47Z</time>
      </trkpt>
      <trkpt lat="42.02158" lon="9.20942">
        <ele>1559</ele>
        <time>2015-06-22T04:35:54Z</time>
      </trkpt>
      <trkpt lat="42.02159" lon="9.20941">
        <ele>1558.4</ele>
        <time>2015-06-22T04:35:56Z</time>
      </trkpt>
      <trkpt lat="42.0216" lon="9.2094">
        <ele>1558.2</ele>
        <time>2015-06-22T04:35:59Z</time>
      </trkpt>
      <trkpt lat="42.02162" lon="9.20937">
        <ele>1557.2</ele>
        <time>2015-06-22T04:36:03Z</time>
      </trkpt>
      <trkpt lat="42.02164" lon="9.20937">
        <ele>1555.6</ele>
        <time>2015-06-22T04:36:09Z</time>
      </trkpt>
      <trkpt lat="42.02168" lon="9.20937">
        <ele>1554.6</ele>
        <time>2015-06-22T04:36:14Z</time>
      </trkpt>
      <trkpt lat="42.02171" lon="9.20938">
        <ele>1553.4</ele>
        <time>2015-06-22T04:36:18Z</time>
      </trkpt>
      <trkpt lat="42.02172" lon="9.20936">
        <ele>1553.2</ele>
        <time>2015-06-22T04:36:20Z</time>
      </trkpt>
      <trkpt lat="42.02175" lon="9.20931">
        <ele>1551.4</ele>
        <time>2015-06-22T04:36:28Z</time>
      </trkpt>
      <trkpt lat="42.02176" lon="9.20928">
        <ele>1550.8</ele>
        <time>2015-06-22T04:36:33Z</time>
      </trkpt>
      <trkpt lat="42.02177" lon="9.20927">
        <ele>1549.8</ele>
        <time>2015-06-22T04:36:38Z</time>
      </trkpt>
      <trkpt lat="42.02181" lon="9.20926">
        <ele>1548.4</ele>
        <time>2015-06-22T04:36:44Z</time>
      </trkpt>
      <trkpt lat="42.02184" lon="9.20925">
        <ele>1547.2</ele>
        <time>2015-06-22T04:36:50Z</time>
      </trkpt>
      <trkpt lat="42.02187" lon="9.20921">
        <ele>1546.2</ele>
        <time>2015-06-22T04:36:56Z</time>
      </trkpt>
      <trkpt lat="42.02188" lon="9.20917">
        <ele>1545.2</ele>
        <time>2015-06-22T04:37:00Z</time>
      </trkpt>
      <trkpt lat="42.02188" lon="9.20914">
        <ele>1545</ele>
        <time>2015-06-22T04:37:02Z</time>
      </trkpt>
      <trkpt lat="42.0219" lon="9.20914">
        <ele>1544.8</ele>
        <time>2015-06-22T04:37:03Z</time>
      </trkpt>
      <trkpt lat="42.02192" lon="9.20913">
        <ele>1544.4</ele>
        <time>2015-06-22T04:37:06Z</time>
      </trkpt>
      <trkpt lat="42.02193" lon="9.20912">
        <ele>1544</ele>
        <time>2015-06-22T04:37:08Z</time>
      </trkpt>
      <trkpt lat="42.02191" lon="9.20905">
        <ele>1542.2</ele>
        <time>2015-06-22T04:39:48Z</time>
      </trkpt>
      <trkpt lat="42.02194" lon="9.20903">
        <ele>1541.8</ele>
        <time>2015-06-22T04:39:53Z</time>
      </trkpt>
      <trkpt lat="42.02197" lon="9.20901">
        <ele>1540.6</ele>
        <time>2015-06-22T04:39:58Z</time>
      </trkpt>
      <trkpt lat="42.02202" lon="9.20898">
        <ele>1539</ele>
        <time>2015-06-22T04:40:04Z</time>
      </trkpt>
      <trkpt lat="42.02207" lon="9.209">
        <ele>1538</ele>
        <time>2015-06-22T04:40:10Z</time>
      </trkpt>
      <trkpt lat="42.02209" lon="9.20907">
        <ele>1536.4</ele>
        <time>2015-06-22T04:40:18Z</time>
      </trkpt>
      <trkpt lat="42.02212" lon="9.20911">
        <ele>1535.8</ele>
        <time>2015-06-22T04:40:23Z</time>
      </trkpt>
      <trkpt lat="42.02213" lon="9.20912">
        <ele>1535.6</ele>
        <time>2015-06-22T04:40:24Z</time>
      </trkpt>
      <trkpt lat="42.02216" lon="9.20915">
        <ele>1534.8</ele>
        <time>2015-06-22T04:40:29Z</time>
      </trkpt>
      <trkpt lat="42.02219" lon="9.20917">
        <ele>1533.6</ele>
        <time>2015-06-22T04:40:34Z</time>
      </trkpt>
      <trkpt lat="42.0222" lon="9.20922">
        <ele>1532.2</ele>
        <time>2015-06-22T04:40:40Z</time>
      </trkpt>
      <trkpt lat="42.0222" lon="9.20926">
        <ele>1531.6</ele>
        <time>2015-06-22T04:40:43Z</time>
      </trkpt>
      <trkpt lat="42.02221" lon="9.20928">
        <ele>1531.2</ele>
        <time>2015-06-22T04:40:45Z</time>
      </trkpt>
      <trkpt lat="42.02222" lon="9.20931">
        <ele>1530.2</ele>
        <time>2015-06-22T04:40:50Z</time>
      </trkpt>
      <trkpt lat="42.02223" lon="9.20937">
        <ele>1528.8</ele>
        <time>2015-06-22T04:40:55Z</time>
      </trkpt>
      <trkpt lat="42.02224" lon="9.2094">
        <ele>1528</ele>
        <time>2015-06-22T04:40:59Z</time>
      </trkpt>
      <trkpt lat="42.02226" lon="9.20944">
        <ele>1526.2</ele>
        <time>2015-06-22T04:41:04Z</time>
      </trkpt>
      <trkpt lat="42.0223" lon="9.20948">
        <ele>1525</ele>
        <time>2015-06-22T04:41:09Z</time>
      </trkpt>
      <trkpt lat="42.02235" lon="9.20953">
        <ele>1523.6</ele>
        <time>2015-06-22T04:41:15Z</time>
      </trkpt>
      <trkpt lat="42.02238" lon="9.20956">
        <ele>1522.8</ele>
        <time>2015-06-22T04:41:20Z</time>
      </trkpt>
      <trkpt lat="42.02242" lon="9.20956">
        <ele>1521.2</ele>
        <time>2015-06-22T04:41:26Z</time>
      </trkpt>
      <trkpt lat="42.02247" lon="9.20956">
        <ele>1520.4</ele>
        <time>2015-06-22T04:41:31Z</time>
      </trkpt>
      <trkpt lat="42.02249" lon="9.20959">
        <ele>1520.2</ele>
        <time>2015-06-22T04:41:33Z</time>
      </trkpt>
      <trkpt lat="42.02252" lon="9.2096">
        <ele>1519.4</ele>
        <time>2015-06-22T04:41:36Z</time>
      </trkpt>
      <trkpt lat="42.02257" lon="9.2096">
        <ele>1517.8</ele>
        <time>2015-06-22T04:41:42Z</time>
      </trkpt>
      <trkpt lat="42.02258" lon="9.20958">
        <ele>1517.4</ele>
        <time>2015-06-22T04:41:44Z</time>
      </trkpt>
      <trkpt lat="42.02259" lon="9.20958">
        <ele>1517</ele>
        <time>2015-06-22T04:41:46Z</time>
      </trkpt>
      <trkpt lat="42.02261" lon="9.20961">
        <ele>1515.2</ele>
        <time>2015-06-22T04:41:53Z</time>
      </trkpt>
      <trkpt lat="42.02262" lon="9.20963">
        <ele>1514</ele>
        <time>2015-06-22T04:42:00Z</time>
      </trkpt>
      <trkpt lat="42.02266" lon="9.20965">
        <ele>1513.2</ele>
        <time>2015-06-22T04:42:05Z</time>
      </trkpt>
      <trkpt lat="42.02269" lon="9.20968">
        <ele>1511.8</ele>
        <time>2015-06-22T04:42:10Z</time>
      </trkpt>
      <trkpt lat="42.0227" lon="9.20969">
        <ele>1510.8</ele>
        <time>2015-06-22T04:42:14Z</time>
      </trkpt>
      <trkpt lat="42.02272" lon="9.20971">
        <ele>1509.6</ele>
        <time>2015-06-22T04:42:19Z</time>
      </trkpt>
      <trkpt lat="42.02272" lon="9.20977">
        <ele>1508.6</ele>
        <time>2015-06-22T04:42:24Z</time>
      </trkpt>
      <trkpt lat="42.02272" lon="9.2098">
        <ele>1508</ele>
        <time>2015-06-22T04:42:26Z</time>
      </trkpt>
      <trkpt lat="42.02274" lon="9.20984">
        <ele>1507.6</ele>
        <time>2015-06-22T04:42:28Z</time>
      </trkpt>
      <trkpt lat="42.02276" lon="9.20989">
        <ele>1507.2</ele>
        <time>2015-06-22T04:42:30Z</time>
      </trkpt>
      <trkpt lat="42.02277" lon="9.20992">
        <ele>1506.4</ele>
        <time>2015-06-22T04:42:32Z</time>
      </trkpt>
      <trkpt lat="42.0228" lon="9.20998">
        <ele>1505.6</ele>
        <time>2015-06-22T04:42:37Z</time>
      </trkpt>
      <trkpt lat="42.02282" lon="9.20999">
        <ele>1505.2</ele>
        <time>2015-06-22T04:42:39Z</time>
      </trkpt>
      <trkpt lat="42.02287" lon="9.21002">
        <ele>1504.2</ele>
        <time>2015-06-22T04:42:49Z</time>
      </trkpt>
      <trkpt lat="42.02289" lon="9.21001">
        <ele>1503.2</ele>
        <time>2015-06-22T04:42:56Z</time>
      </trkpt>
      <trkpt lat="42.02292" lon="9.21002">
        <ele>1501.8</ele>
        <time>2015-06-22T04:43:03Z</time>
      </trkpt>
      <trkpt lat="42.02298" lon="9.21005">
        <ele>1500.6</ele>
        <time>2015-06-22T04:43:10Z</time>
      </trkpt>
      <trkpt lat="42.023" lon="9.21005">
        <ele>1500.2</ele>
        <time>2015-06-22T04:43:12Z</time>
      </trkpt>
      <trkpt lat="42.02301" lon="9.21005">
        <ele>1500.2</ele>
        <time>2015-06-22T04:43:13Z</time>
      </trkpt>
      <trkpt lat="42.02307" lon="9.21006">
        <ele>1499.6</ele>
        <time>2015-06-22T04:43:18Z</time>
      </trkpt>
      <trkpt lat="42.02309" lon="9.21009">
        <ele>1499.2</ele>
        <time>2015-06-22T04:43:20Z</time>
      </trkpt>
      <trkpt lat="42.02313" lon="9.21013">
        <ele>1498.6</ele>
        <time>2015-06-22T04:43:23Z</time>
      </trkpt>
      <trkpt lat="42.02318" lon="9.21017">
        <ele>1497.6</ele>
        <time>2015-06-22T04:43:27Z</time>
      </trkpt>
      <trkpt lat="42.02323" lon="9.21019">
        <ele>1497.2</ele>
        <time>2015-06-22T04:43:29Z</time>
      </trkpt>
      <trkpt lat="42.02328" lon="9.21018">
        <ele>1496.6</ele>
        <time>2015-06-22T04:43:32Z</time>
      </trkpt>
      <trkpt lat="42.02334" lon="9.21017">
        <ele>1495.6</ele>
        <time>2015-06-22T04:44:12Z</time>
      </trkpt>
      <trkpt lat="42.02334" lon="9.21015">
        <ele>1495.4</ele>
        <time>2015-06-22T04:44:14Z</time>
      </trkpt>
      <trkpt lat="42.02336" lon="9.21013">
        <ele>1495.6</ele>
        <time>2015-06-22T04:44:16Z</time>
      </trkpt>
      <trkpt lat="42.02345" lon="9.21008">
        <ele>1495.6</ele>
        <time>2015-06-22T04:44:27Z</time>
      </trkpt>
      <trkpt lat="42.0235" lon="9.21004">
        <ele>1495.8</ele>
        <time>2015-06-22T04:44:33Z</time>
      </trkpt>
      <trkpt lat="42.0235" lon="9.21003">
        <ele>1496</ele>
        <time>2015-06-22T04:44:34Z</time>
      </trkpt>
      <trkpt lat="42.02353" lon="9.21">
        <ele>1497.2</ele>
        <time>2015-06-22T04:44:39Z</time>
      </trkpt>
      <trkpt lat="42.02356" lon="9.20999">
        <ele>1497.6</ele>
        <time>2015-06-22T04:44:41Z</time>
      </trkpt>
      <trkpt lat="42.02358" lon="9.20997">
        <ele>1497.8</ele>
        <time>2015-06-22T04:44:43Z</time>
      </trkpt>
      <trkpt lat="42.02367" lon="9.20989">
        <ele>1498.4</ele>
        <time>2015-06-22T04:44:54Z</time>
      </trkpt>
      <trkpt lat="42.02371" lon="9.20989">
        <ele>1498.6</ele>
        <time>2015-06-22T04:44:59Z</time>
      </trkpt>
      <trkpt lat="42.02372" lon="9.20988">
        <ele>1498.6</ele>
        <time>2015-06-22T04:45:00Z</time>
      </trkpt>
      <trkpt lat="42.02375" lon="9.20988">
        <ele>1498.8</ele>
        <time>2015-06-22T04:45:02Z</time>
      </trkpt>
      <trkpt lat="42.02381" lon="9.20988">
        <ele>1499</ele>
        <time>2015-06-22T04:45:08Z</time>
      </trkpt>
      <trkpt lat="42.0239" lon="9.20986">
        <ele>1498.4</ele>
        <time>2015-06-22T04:45:20Z</time>
      </trkpt>
      <trkpt lat="42.02394" lon="9.20985">
        <ele>1497.8</ele>
        <time>2015-06-22T04:45:25Z</time>
      </trkpt>
      <trkpt lat="42.02405" lon="9.20984">
        <ele>1497</ele>
        <time>2015-06-22T04:45:38Z</time>
      </trkpt>
      <trkpt lat="42.02408" lon="9.20984">
        <ele>1497</ele>
        <time>2015-06-22T04:45:42Z</time>
      </trkpt>
      <trkpt lat="42.0241" lon="9.20984">
        <ele>1496.8</ele>
        <time>2015-06-22T04:45:44Z</time>
      </trkpt>
      <trkpt lat="42.02413" lon="9.20983">
        <ele>1496.6</ele>
        <time>2015-06-22T04:45:47Z</time>
      </trkpt>
      <trkpt lat="42.02414" lon="9.20984">
        <ele>1496.6</ele>
        <time>2015-06-22T04:45:49Z</time>
      </trkpt>
      <trkpt lat="42.02416" lon="9.20984">
        <ele>1496.4</ele>
        <time>2015-06-22T04:45:50Z</time>
      </trkpt>
      <trkpt lat="42.02417" lon="9.20985">
        <ele>1496.4</ele>
        <time>2015-06-22T04:45:51Z</time>
      </trkpt>
      <trkpt lat="42.02422" lon="9.20986">
        <ele>1495.6</ele>
        <time>2015-06-22T04:45:55Z</time>
      </trkpt>
      <trkpt lat="42.02425" lon="9.20988">
        <ele>1495</ele>
        <time>2015-06-22T04:45:58Z</time>
      </trkpt>
      <trkpt lat="42.02428" lon="9.2099">
        <ele>1494.6</ele>
        <time>2015-06-22T04:46:01Z</time>
      </trkpt>
      <trkpt lat="42.0243" lon="9.20992">
        <ele>1494.2</ele>
        <time>2015-06-22T04:46:05Z</time>
      </trkpt>
      <trkpt lat="42.02429" lon="9.20999">
        <ele>1492.8</ele>
        <time>2015-06-22T04:46:13Z</time>
      </trkpt>
      <trkpt lat="42.02433" lon="9.21007">
        <ele>1492.2</ele>
        <time>2015-06-22T04:46:20Z</time>
      </trkpt>
      <trkpt lat="42.02433" lon="9.21009">
        <ele>1491.4</ele>
        <time>2015-06-22T04:46:23Z</time>
      </trkpt>
      <trkpt lat="42.02437" lon="9.21012">
        <ele>1490.2</ele>
        <time>2015-06-22T04:46:34Z</time>
      </trkpt>
      <trkpt lat="42.02455" lon="9.21015">
        <ele>1489.6</ele>
        <time>2015-06-22T04:47:18Z</time>
      </trkpt>
      <trkpt lat="42.02458" lon="9.21006">
        <ele>1488.8</ele>
        <time>2015-06-22T04:47:27Z</time>
      </trkpt>
      <trkpt lat="42.02462" lon="9.20998">
        <ele>1488.6</ele>
        <time>2015-06-22T04:47:32Z</time>
      </trkpt>
      <trkpt lat="42.02464" lon="9.20993">
        <ele>1488.4</ele>
        <time>2015-06-22T04:47:35Z</time>
      </trkpt>
      <trkpt lat="42.02468" lon="9.2099">
        <ele>1488.4</ele>
        <time>2015-06-22T04:47:38Z</time>
      </trkpt>
      <trkpt lat="42.02476" lon="9.20986">
        <ele>1488</ele>
        <time>2015-06-22T04:47:45Z</time>
      </trkpt>
      <trkpt lat="42.0248" lon="9.20982">
        <ele>1487.6</ele>
        <time>2015-06-22T04:47:51Z</time>
      </trkpt>
      <trkpt lat="42.02482" lon="9.20978">
        <ele>1487.2</ele>
        <time>2015-06-22T04:47:55Z</time>
      </trkpt>
      <trkpt lat="42.02487" lon="9.20975">
        <ele>1486.4</ele>
        <time>2015-06-22T04:47:59Z</time>
      </trkpt>
      <trkpt lat="42.02487" lon="9.20975">
        <ele>1486.4</ele>
        <time>2015-06-22T04:48:00Z</time>
      </trkpt>
      <trkpt lat="42.02492" lon="9.20966">
        <ele>1485.6</ele>
        <time>2015-06-22T04:48:11Z</time>
      </trkpt>
      <trkpt lat="42.02497" lon="9.20962">
        <ele>1484.6</ele>
        <time>2015-06-22T04:48:18Z</time>
      </trkpt>
      <trkpt lat="42.02506" lon="9.20959">
        <ele>1483.4</ele>
        <time>2015-06-22T04:48:31Z</time>
      </trkpt>
      <trkpt lat="42.02507" lon="9.20957">
        <ele>1483.2</ele>
        <time>2015-06-22T04:48:33Z</time>
      </trkpt>
      <trkpt lat="42.02511" lon="9.20954">
        <ele>1482.8</ele>
        <time>2015-06-22T04:48:39Z</time>
      </trkpt>
      <trkpt lat="42.02514" lon="9.20946">
        <ele>1481.8</ele>
        <time>2015-06-22T04:48:46Z</time>
      </trkpt>
      <trkpt lat="42.02522" lon="9.20942">
        <ele>1480.8</ele>
        <time>2015-06-22T04:48:52Z</time>
      </trkpt>
      <trkpt lat="42.02531" lon="9.20934">
        <ele>1479.6</ele>
        <time>2015-06-22T04:49:03Z</time>
      </trkpt>
      <trkpt lat="42.0254" lon="9.2093">
        <ele>1478.4</ele>
        <time>2015-06-22T04:49:14Z</time>
      </trkpt>
      <trkpt lat="42.02551" lon="9.20923">
        <ele>1477.4</ele>
        <time>2015-06-22T04:49:26Z</time>
      </trkpt>
      <trkpt lat="42.02568" lon="9.20916">
        <ele>1476.8</ele>
        <time>2015-06-22T04:49:47Z</time>
      </trkpt>
      <trkpt lat="42.02576" lon="9.2092">
        <ele>1475.2</ele>
        <time>2015-06-22T04:49:57Z</time>
      </trkpt>
      <trkpt lat="42.02582" lon="9.20919">
        <ele>1474.4</ele>
        <time>2015-06-22T04:50:05Z</time>
      </trkpt>
      <trkpt lat="42.02586" lon="9.20916">
        <ele>1474</ele>
        <time>2015-06-22T04:50:08Z</time>
      </trkpt>
      <trkpt lat="42.02586" lon="9.20891">
        <ele>1473.4</ele>
        <time>2015-06-22T04:50:55Z</time>
      </trkpt>
      <trkpt lat="42.02586" lon="9.20889">
        <ele>1473.4</ele>
        <time>2015-06-22T04:50:56Z</time>
      </trkpt>
      <trkpt lat="42.02588" lon="9.2086">
        <ele>1473</ele>
        <time>2015-06-22T04:51:14Z</time>
      </trkpt>
      <trkpt lat="42.02588" lon="9.20853">
        <ele>1473.2</ele>
        <time>2015-06-22T04:51:18Z</time>
      </trkpt>
      <trkpt lat="42.02588" lon="9.20842">
        <ele>1473</ele>
        <time>2015-06-22T04:51:24Z</time>
      </trkpt>
      <trkpt lat="42.02589" lon="9.20838">
        <ele>1473</ele>
        <time>2015-06-22T04:51:27Z</time>
      </trkpt>
      <trkpt lat="42.02592" lon="9.20834">
        <ele>1473</ele>
        <time>2015-06-22T04:51:31Z</time>
      </trkpt>
      <trkpt lat="42.02595" lon="9.20829">
        <ele>1473</ele>
        <time>2015-06-22T04:51:38Z</time>
      </trkpt>
      <trkpt lat="42.02599" lon="9.20823">
        <ele>1472.4</ele>
        <time>2015-06-22T04:51:49Z</time>
      </trkpt>
      <trkpt lat="42.02607" lon="9.20815">
        <ele>1471.6</ele>
        <time>2015-06-22T04:51:58Z</time>
      </trkpt>
      <trkpt lat="42.02615" lon="9.20808">
        <ele>1471.2</ele>
        <time>2015-06-22T04:52:08Z</time>
      </trkpt>
      <trkpt lat="42.02617" lon="9.20805">
        <ele>1470.8</ele>
        <time>2015-06-22T04:52:12Z</time>
      </trkpt>
      <trkpt lat="42.02618" lon="9.20803">
        <ele>1470.6</ele>
        <time>2015-06-22T04:52:14Z</time>
      </trkpt>
      <trkpt lat="42.0262" lon="9.20802">
        <ele>1470</ele>
        <time>2015-06-22T04:52:18Z</time>
      </trkpt>
      <trkpt lat="42.02635" lon="9.20777">
        <ele>1469.2</ele>
        <time>2015-06-22T04:52:38Z</time>
      </trkpt>
      <trkpt lat="42.02639" lon="9.20768">
        <ele>1468.8</ele>
        <time>2015-06-22T04:52:46Z</time>
      </trkpt>
      <trkpt lat="42.02642" lon="9.20751">
        <ele>1468.4</ele>
        <time>2015-06-22T04:53:06Z</time>
      </trkpt>
      <trkpt lat="42.0265" lon="9.20738">
        <ele>1469.6</ele>
        <time>2015-06-22T04:53:17Z</time>
      </trkpt>
      <trkpt lat="42.02658" lon="9.2072">
        <ele>1471</ele>
        <time>2015-06-22T04:53:31Z</time>
      </trkpt>
      <trkpt lat="42.0268" lon="9.20703">
        <ele>1472.4</ele>
        <time>2015-06-22T04:53:55Z</time>
      </trkpt>
      <trkpt lat="42.02697" lon="9.20687">
        <ele>1472.6</ele>
        <time>2015-06-22T04:54:16Z</time>
      </trkpt>
      <trkpt lat="42.02697" lon="9.20682">
        <ele>1472.4</ele>
        <time>2015-06-22T04:54:19Z</time>
      </trkpt>
      <trkpt lat="42.02698" lon="9.20679">
        <ele>1472.4</ele>
        <time>2015-06-22T04:54:21Z</time>
      </trkpt>
      <trkpt lat="42.02698" lon="9.20678">
        <ele>1472.4</ele>
        <time>2015-06-22T04:54:23Z</time>
      </trkpt>
      <trkpt lat="42.02703" lon="9.20667">
        <ele>1472.4</ele>
        <time>2015-06-22T04:54:32Z</time>
      </trkpt>
      <trkpt lat="42.02713" lon="9.20655">
        <ele>1472.4</ele>
        <time>2015-06-22T04:54:46Z</time>
      </trkpt>
      <trkpt lat="42.02715" lon="9.20653">
        <ele>1472.4</ele>
        <time>2015-06-22T04:54:48Z</time>
      </trkpt>
      <trkpt lat="42.02719" lon="9.20638">
        <ele>1473.2</ele>
        <time>2015-06-22T04:55:02Z</time>
      </trkpt>
      <trkpt lat="42.02731" lon="9.20636">
        <ele>1474.2</ele>
        <time>2015-06-22T04:55:12Z</time>
      </trkpt>
      <trkpt lat="42.02732" lon="9.20636">
        <ele>1474.4</ele>
        <time>2015-06-22T04:55:14Z</time>
      </trkpt>
      <trkpt lat="42.0273" lon="9.20626">
        <ele>1474.2</ele>
        <time>2015-06-22T04:55:26Z</time>
      </trkpt>
      <trkpt lat="42.02726" lon="9.20618">
        <ele>1474</ele>
        <time>2015-06-22T04:55:33Z</time>
      </trkpt>
      <trkpt lat="42.02723" lon="9.20614">
        <ele>1474.6</ele>
        <time>2015-06-22T04:55:38Z</time>
      </trkpt>
      <trkpt lat="42.02703" lon="9.20588">
        <ele>1476.6</ele>
        <time>2015-06-22T04:56:08Z</time>
      </trkpt>
      <trkpt lat="42.02698" lon="9.20585">
        <ele>1477.4</ele>
        <time>2015-06-22T04:56:17Z</time>
      </trkpt>
      <trkpt lat="42.02689" lon="9.20582">
        <ele>1478.8</ele>
        <time>2015-06-22T04:56:26Z</time>
      </trkpt>
      <trkpt lat="42.02681" lon="9.2058">
        <ele>1480</ele>
        <time>2015-06-22T04:56:35Z</time>
      </trkpt>
      <trkpt lat="42.02672" lon="9.2058">
        <ele>1481</ele>
        <time>2015-06-22T04:56:45Z</time>
      </trkpt>
      <trkpt lat="42.02665" lon="9.20582">
        <ele>1482</ele>
        <time>2015-06-22T04:56:54Z</time>
      </trkpt>
      <trkpt lat="42.02661" lon="9.2058">
        <ele>1483</ele>
        <time>2015-06-22T04:57:01Z</time>
      </trkpt>
      <trkpt lat="42.02656" lon="9.20575">
        <ele>1484.2</ele>
        <time>2015-06-22T04:57:09Z</time>
      </trkpt>
      <trkpt lat="42.02652" lon="9.20571">
        <ele>1485.2</ele>
        <time>2015-06-22T04:57:17Z</time>
      </trkpt>
      <trkpt lat="42.02649" lon="9.20567">
        <ele>1486.4</ele>
        <time>2015-06-22T04:57:24Z</time>
      </trkpt>
      <trkpt lat="42.02644" lon="9.20561">
        <ele>1487.6</ele>
        <time>2015-06-22T04:57:35Z</time>
      </trkpt>
      <trkpt lat="42.02641" lon="9.20556">
        <ele>1488.6</ele>
        <time>2015-06-22T04:57:43Z</time>
      </trkpt>
      <trkpt lat="42.0264" lon="9.2055">
        <ele>1489.8</ele>
        <time>2015-06-22T04:57:50Z</time>
      </trkpt>
      <trkpt lat="42.02634" lon="9.20519">
        <ele>1490.4</ele>
        <time>2015-06-22T04:58:17Z</time>
      </trkpt>
      <trkpt lat="42.0262" lon="9.20486">
        <ele>1489</ele>
        <time>2015-06-22T04:58:42Z</time>
      </trkpt>
      <trkpt lat="42.02612" lon="9.20479">
        <ele>1488.6</ele>
        <time>2015-06-22T04:58:50Z</time>
      </trkpt>
      <trkpt lat="42.02609" lon="9.20459">
        <ele>1487</ele>
        <time>2015-06-22T04:59:04Z</time>
      </trkpt>
      <trkpt lat="42.02615" lon="9.20452">
        <ele>1486.8</ele>
        <time>2015-06-22T04:59:11Z</time>
      </trkpt>
      <trkpt lat="42.02618" lon="9.20449">
        <ele>1486.4</ele>
        <time>2015-06-22T04:59:15Z</time>
      </trkpt>
      <trkpt lat="42.02619" lon="9.20444">
        <ele>1485.6</ele>
        <time>2015-06-22T04:59:21Z</time>
      </trkpt>
      <trkpt lat="42.02621" lon="9.20442">
        <ele>1484.8</ele>
        <time>2015-06-22T04:59:26Z</time>
      </trkpt>
      <trkpt lat="42.02623" lon="9.20436">
        <ele>1483.6</ele>
        <time>2015-06-22T04:59:41Z</time>
      </trkpt>
      <trkpt lat="42.02623" lon="9.20429">
        <ele>1482.8</ele>
        <time>2015-06-22T04:59:47Z</time>
      </trkpt>
      <trkpt lat="42.02622" lon="9.20424">
        <ele>1481.6</ele>
        <time>2015-06-22T04:59:52Z</time>
      </trkpt>
      <trkpt lat="42.02623" lon="9.20421">
        <ele>1480.8</ele>
        <time>2015-06-22T04:59:56Z</time>
      </trkpt>
      <trkpt lat="42.02623" lon="9.20413">
        <ele>1479.6</ele>
        <time>2015-06-22T05:00:02Z</time>
      </trkpt>
      <trkpt lat="42.02629" lon="9.20399">
        <ele>1478</ele>
        <time>2015-06-22T05:00:14Z</time>
      </trkpt>
      <trkpt lat="42.02633" lon="9.20392">
        <ele>1478</ele>
        <time>2015-06-22T05:00:22Z</time>
      </trkpt>
      <trkpt lat="42.02635" lon="9.20373">
        <ele>1478.2</ele>
        <time>2015-06-22T05:00:36Z</time>
      </trkpt>
      <trkpt lat="42.02634" lon="9.20367">
        <ele>1477.6</ele>
        <time>2015-06-22T05:00:41Z</time>
      </trkpt>
      <trkpt lat="42.02635" lon="9.20357">
        <ele>1476</ele>
        <time>2015-06-22T05:00:48Z</time>
      </trkpt>
      <trkpt lat="42.02637" lon="9.20349">
        <ele>1475</ele>
        <time>2015-06-22T05:00:54Z</time>
      </trkpt>
      <trkpt lat="42.02638" lon="9.20341">
        <ele>1473.8</ele>
        <time>2015-06-22T05:01:00Z</time>
      </trkpt>
      <trkpt lat="42.02642" lon="9.20333">
        <ele>1472.8</ele>
        <time>2015-06-22T05:01:07Z</time>
      </trkpt>
      <trkpt lat="42.02646" lon="9.20329">
        <ele>1471.6</ele>
        <time>2015-06-22T05:01:13Z</time>
      </trkpt>
      <trkpt lat="42.02646" lon="9.20325">
        <ele>1471</ele>
        <time>2015-06-22T05:01:17Z</time>
      </trkpt>
      <trkpt lat="42.02646" lon="9.20324">
        <ele>1470.6</ele>
        <time>2015-06-22T05:01:18Z</time>
      </trkpt>
      <trkpt lat="42.02646" lon="9.20322">
        <ele>1470.6</ele>
        <time>2015-06-22T05:01:20Z</time>
      </trkpt>
      <trkpt lat="42.02648" lon="9.20318">
        <ele>1469.2</ele>
        <time>2015-06-22T05:01:25Z</time>
      </trkpt>
      <trkpt lat="42.0265" lon="9.20315">
        <ele>1468.4</ele>
        <time>2015-06-22T05:01:30Z</time>
      </trkpt>
      <trkpt lat="42.02652" lon="9.20312">
        <ele>1467.4</ele>
        <time>2015-06-22T05:01:35Z</time>
      </trkpt>
      <trkpt lat="42.02652" lon="9.20308">
        <ele>1466</ele>
        <time>2015-06-22T05:01:41Z</time>
      </trkpt>
      <trkpt lat="42.02652" lon="9.20302">
        <ele>1464.8</ele>
        <time>2015-06-22T05:01:47Z</time>
      </trkpt>
      <trkpt lat="42.02651" lon="9.20297">
        <ele>1463.6</ele>
        <time>2015-06-22T05:01:52Z</time>
      </trkpt>
      <trkpt lat="42.02651" lon="9.20293">
        <ele>1462.6</ele>
        <time>2015-06-22T05:01:58Z</time>
      </trkpt>
      <trkpt lat="42.02653" lon="9.20288">
        <ele>1461.4</ele>
        <time>2015-06-22T05:02:04Z</time>
      </trkpt>
      <trkpt lat="42.02652" lon="9.2028">
        <ele>1460.2</ele>
        <time>2015-06-22T05:02:11Z</time>
      </trkpt>
      <trkpt lat="42.0265" lon="9.20271">
        <ele>1459.2</ele>
        <time>2015-06-22T05:02:17Z</time>
      </trkpt>
      <trkpt lat="42.02651" lon="9.20263">
        <ele>1458</ele>
        <time>2015-06-22T05:02:23Z</time>
      </trkpt>
      <trkpt lat="42.02655" lon="9.20256">
        <ele>1456.6</ele>
        <time>2015-06-22T05:02:32Z</time>
      </trkpt>
      <trkpt lat="42.02656" lon="9.2025">
        <ele>1455.6</ele>
        <time>2015-06-22T05:02:39Z</time>
      </trkpt>
      <trkpt lat="42.02659" lon="9.20246">
        <ele>1454.4</ele>
        <time>2015-06-22T05:02:45Z</time>
      </trkpt>
      <trkpt lat="42.02661" lon="9.20242">
        <ele>1453.4</ele>
        <time>2015-06-22T05:02:52Z</time>
      </trkpt>
      <trkpt lat="42.02662" lon="9.20237">
        <ele>1452.2</ele>
        <time>2015-06-22T05:02:58Z</time>
      </trkpt>
      <trkpt lat="42.02662" lon="9.20235">
        <ele>1451.2</ele>
        <time>2015-06-22T05:03:03Z</time>
      </trkpt>
      <trkpt lat="42.02664" lon="9.20234">
        <ele>1449.8</ele>
        <time>2015-06-22T05:03:09Z</time>
      </trkpt>
      <trkpt lat="42.02669" lon="9.2023">
        <ele>1448.6</ele>
        <time>2015-06-22T05:03:15Z</time>
      </trkpt>
      <trkpt lat="42.02674" lon="9.20228">
        <ele>1447.6</ele>
        <time>2015-06-22T05:03:21Z</time>
      </trkpt>
      <trkpt lat="42.02679" lon="9.20226">
        <ele>1446.2</ele>
        <time>2015-06-22T05:03:29Z</time>
      </trkpt>
      <trkpt lat="42.02682" lon="9.20222">
        <ele>1445.6</ele>
        <time>2015-06-22T05:03:34Z</time>
      </trkpt>
      <trkpt lat="42.02683" lon="9.20216">
        <ele>1445.2</ele>
        <time>2015-06-22T05:03:39Z</time>
      </trkpt>
      <trkpt lat="42.02691" lon="9.20207">
        <ele>1443.6</ele>
        <time>2015-06-22T05:03:49Z</time>
      </trkpt>
      <trkpt lat="42.02694" lon="9.20202">
        <ele>1443.2</ele>
        <time>2015-06-22T05:03:56Z</time>
      </trkpt>
      <trkpt lat="42.02695" lon="9.20202">
        <ele>1443</ele>
        <time>2015-06-22T05:03:57Z</time>
      </trkpt>
      <trkpt lat="42.02697" lon="9.20199">
        <ele>1442</ele>
        <time>2015-06-22T05:04:02Z</time>
      </trkpt>
      <trkpt lat="42.02696" lon="9.20187">
        <ele>1440.6</ele>
        <time>2015-06-22T05:04:14Z</time>
      </trkpt>
      <trkpt lat="42.02693" lon="9.20182">
        <ele>1440.6</ele>
        <time>2015-06-22T05:04:17Z</time>
      </trkpt>
      <trkpt lat="42.02692" lon="9.20178">
        <ele>1439.8</ele>
        <time>2015-06-22T05:04:20Z</time>
      </trkpt>
      <trkpt lat="42.02692" lon="9.20174">
        <ele>1439.2</ele>
        <time>2015-06-22T05:04:23Z</time>
      </trkpt>
      <trkpt lat="42.02693" lon="9.20171">
        <ele>1439.2</ele>
        <time>2015-06-22T05:04:25Z</time>
      </trkpt>
      <trkpt lat="42.02691" lon="9.20163">
        <ele>1438.6</ele>
        <time>2015-06-22T05:04:31Z</time>
      </trkpt>
      <trkpt lat="42.0269" lon="9.2016">
        <ele>1438.4</ele>
        <time>2015-06-22T05:04:33Z</time>
      </trkpt>
      <trkpt lat="42.0269" lon="9.20159">
        <ele>1438.2</ele>
        <time>2015-06-22T05:04:34Z</time>
      </trkpt>
      <trkpt lat="42.0269" lon="9.20158">
        <ele>1438.2</ele>
        <time>2015-06-22T05:04:35Z</time>
      </trkpt>
      <trkpt lat="42.0269" lon="9.20149">
        <ele>1437.2</ele>
        <time>2015-06-22T05:04:44Z</time>
      </trkpt>
      <trkpt lat="42.02688" lon="9.20146">
        <ele>1437</ele>
        <time>2015-06-22T05:04:47Z</time>
      </trkpt>
      <trkpt lat="42.02686" lon="9.20138">
        <ele>1436</ele>
        <time>2015-06-22T05:04:55Z</time>
      </trkpt>
      <trkpt lat="42.0268" lon="9.20107">
        <ele>1434.8</ele>
        <time>2015-06-22T05:05:18Z</time>
      </trkpt>
      <trkpt lat="42.02678" lon="9.20105">
        <ele>1434.4</ele>
        <time>2015-06-22T05:05:23Z</time>
      </trkpt>
      <trkpt lat="42.02673" lon="9.201">
        <ele>1432.8</ele>
        <time>2015-06-22T05:05:30Z</time>
      </trkpt>
      <trkpt lat="42.02666" lon="9.20096">
        <ele>1431.8</ele>
        <time>2015-06-22T05:05:37Z</time>
      </trkpt>
      <trkpt lat="42.02654" lon="9.20086">
        <ele>1430.4</ele>
        <time>2015-06-22T05:05:52Z</time>
      </trkpt>
      <trkpt lat="42.02645" lon="9.2008">
        <ele>1429.2</ele>
        <time>2015-06-22T05:06:00Z</time>
      </trkpt>
      <trkpt lat="42.02639" lon="9.20078">
        <ele>1428.6</ele>
        <time>2015-06-22T05:06:06Z</time>
      </trkpt>
      <trkpt lat="42.02628" lon="9.20071">
        <ele>1427.2</ele>
        <time>2015-06-22T05:06:16Z</time>
      </trkpt>
      <trkpt lat="42.02624" lon="9.20063">
        <ele>1426.2</ele>
        <time>2015-06-22T05:06:23Z</time>
      </trkpt>
      <trkpt lat="42.02619" lon="9.20059">
        <ele>1425.4</ele>
        <time>2015-06-22T05:06:29Z</time>
      </trkpt>
      <trkpt lat="42.02614" lon="9.20055">
        <ele>1424.2</ele>
        <time>2015-06-22T05:06:35Z</time>
      </trkpt>
      <trkpt lat="42.02614" lon="9.20054">
        <ele>1424</ele>
        <time>2015-06-22T05:06:36Z</time>
      </trkpt>
      <trkpt lat="42.02614" lon="9.20051">
        <ele>1423.4</ele>
        <time>2015-06-22T05:06:39Z</time>
      </trkpt>
      <trkpt lat="42.02613" lon="9.2005">
        <ele>1423.4</ele>
        <time>2015-06-22T05:06:40Z</time>
      </trkpt>
      <trkpt lat="42.02608" lon="9.20046">
        <ele>1422</ele>
        <time>2015-06-22T05:06:46Z</time>
      </trkpt>
      <trkpt lat="42.02604" lon="9.20041">
        <ele>1420.6</ele>
        <time>2015-06-22T05:06:54Z</time>
      </trkpt>
      <trkpt lat="42.02601" lon="9.20037">
        <ele>1419.8</ele>
        <time>2015-06-22T05:06:59Z</time>
      </trkpt>
      <trkpt lat="42.02599" lon="9.20029">
        <ele>1418.6</ele>
        <time>2015-06-22T05:07:05Z</time>
      </trkpt>
      <trkpt lat="42.02598" lon="9.20022">
        <ele>1417.2</ele>
        <time>2015-06-22T05:07:11Z</time>
      </trkpt>
      <trkpt lat="42.02597" lon="9.20022">
        <ele>1417</ele>
        <time>2015-06-22T05:07:12Z</time>
      </trkpt>
      <trkpt lat="42.02594" lon="9.20019">
        <ele>1416</ele>
        <time>2015-06-22T05:07:18Z</time>
      </trkpt>
      <trkpt lat="42.02591" lon="9.2001">
        <ele>1414.6</ele>
        <time>2015-06-22T05:07:26Z</time>
      </trkpt>
      <trkpt lat="42.0259" lon="9.20008">
        <ele>1414.6</ele>
        <time>2015-06-22T05:07:29Z</time>
      </trkpt>
      <trkpt lat="42.0259" lon="9.20007">
        <ele>1414.4</ele>
        <time>2015-06-22T05:07:30Z</time>
      </trkpt>
      <trkpt lat="42.02588" lon="9.20003">
        <ele>1412.6</ele>
        <time>2015-06-22T05:07:37Z</time>
      </trkpt>
      <trkpt lat="42.02585" lon="9.20001">
        <ele>1411.4</ele>
        <time>2015-06-22T05:07:45Z</time>
      </trkpt>
      <trkpt lat="42.02585" lon="9.19998">
        <ele>1410.6</ele>
        <time>2015-06-22T05:07:50Z</time>
      </trkpt>
      <trkpt lat="42.02581" lon="9.19993">
        <ele>1409.2</ele>
        <time>2015-06-22T05:07:56Z</time>
      </trkpt>
      <trkpt lat="42.0258" lon="9.19992">
        <ele>1409.2</ele>
        <time>2015-06-22T05:07:57Z</time>
      </trkpt>
      <trkpt lat="42.02576" lon="9.19993">
        <ele>1408.6</ele>
        <time>2015-06-22T05:08:02Z</time>
      </trkpt>
      <trkpt lat="42.02573" lon="9.19989">
        <ele>1407.2</ele>
        <time>2015-06-22T05:08:08Z</time>
      </trkpt>
      <trkpt lat="42.02573" lon="9.19987">
        <ele>1406.2</ele>
        <time>2015-06-22T05:08:13Z</time>
      </trkpt>
      <trkpt lat="42.02571" lon="9.19985">
        <ele>1405</ele>
        <time>2015-06-22T05:08:18Z</time>
      </trkpt>
      <trkpt lat="42.02568" lon="9.19987">
        <ele>1403.4</ele>
        <time>2015-06-22T05:08:24Z</time>
      </trkpt>
      <trkpt lat="42.02564" lon="9.19983">
        <ele>1402.4</ele>
        <time>2015-06-22T05:08:30Z</time>
      </trkpt>
      <trkpt lat="42.02564" lon="9.19981">
        <ele>1401.8</ele>
        <time>2015-06-22T05:08:34Z</time>
      </trkpt>
      <trkpt lat="42.02561" lon="9.19977">
        <ele>1400.8</ele>
        <time>2015-06-22T05:08:38Z</time>
      </trkpt>
      <trkpt lat="42.02561" lon="9.19976">
        <ele>1400.6</ele>
        <time>2015-06-22T05:08:39Z</time>
      </trkpt>
      <trkpt lat="42.02559" lon="9.19973">
        <ele>1399.6</ele>
        <time>2015-06-22T05:08:44Z</time>
      </trkpt>
      <trkpt lat="42.02558" lon="9.19968">
        <ele>1398.4</ele>
        <time>2015-06-22T05:08:49Z</time>
      </trkpt>
      <trkpt lat="42.02557" lon="9.19963">
        <ele>1397.2</ele>
        <time>2015-06-22T05:08:54Z</time>
      </trkpt>
      <trkpt lat="42.02554" lon="9.19959">
        <ele>1396.2</ele>
        <time>2015-06-22T05:08:59Z</time>
      </trkpt>
      <trkpt lat="42.02554" lon="9.19958">
        <ele>1395.6</ele>
        <time>2015-06-22T05:09:00Z</time>
      </trkpt>
      <trkpt lat="42.02553" lon="9.19957">
        <ele>1395.4</ele>
        <time>2015-06-22T05:09:02Z</time>
      </trkpt>
      <trkpt lat="42.02551" lon="9.19955">
        <ele>1395</ele>
        <time>2015-06-22T05:09:04Z</time>
      </trkpt>
      <trkpt lat="42.02546" lon="9.19952">
        <ele>1394</ele>
        <time>2015-06-22T05:09:08Z</time>
      </trkpt>
      <trkpt lat="42.02543" lon="9.1995">
        <ele>1393.4</ele>
        <time>2015-06-22T05:09:10Z</time>
      </trkpt>
      <trkpt lat="42.0254" lon="9.19952">
        <ele>1392.4</ele>
        <time>2015-06-22T05:09:15Z</time>
      </trkpt>
      <trkpt lat="42.0254" lon="9.19952">
        <ele>1392.4</ele>
        <time>2015-06-22T05:09:16Z</time>
      </trkpt>
      <trkpt lat="42.02537" lon="9.19952">
        <ele>1391.2</ele>
        <time>2015-06-22T05:09:22Z</time>
      </trkpt>
      <trkpt lat="42.02533" lon="9.1995">
        <ele>1390</ele>
        <time>2015-06-22T05:09:28Z</time>
      </trkpt>
      <trkpt lat="42.02529" lon="9.19945">
        <ele>1388.8</ele>
        <time>2015-06-22T05:09:34Z</time>
      </trkpt>
      <trkpt lat="42.02528" lon="9.19942">
        <ele>1388.4</ele>
        <time>2015-06-22T05:09:37Z</time>
      </trkpt>
      <trkpt lat="42.02527" lon="9.19941">
        <ele>1387.8</ele>
        <time>2015-06-22T05:09:39Z</time>
      </trkpt>
      <trkpt lat="42.02525" lon="9.19939">
        <ele>1387.6</ele>
        <time>2015-06-22T05:09:41Z</time>
      </trkpt>
      <trkpt lat="42.02523" lon="9.19935">
        <ele>1386.8</ele>
        <time>2015-06-22T05:09:44Z</time>
      </trkpt>
      <trkpt lat="42.02522" lon="9.19933">
        <ele>1386.6</ele>
        <time>2015-06-22T05:09:45Z</time>
      </trkpt>
      <trkpt lat="42.02517" lon="9.1993">
        <ele>1385.4</ele>
        <time>2015-06-22T05:09:53Z</time>
      </trkpt>
      <trkpt lat="42.02515" lon="9.19929">
        <ele>1384.8</ele>
        <time>2015-06-22T05:09:56Z</time>
      </trkpt>
      <trkpt lat="42.02514" lon="9.19928">
        <ele>1384.4</ele>
        <time>2015-06-22T05:09:59Z</time>
      </trkpt>
      <trkpt lat="42.02509" lon="9.19926">
        <ele>1383</ele>
        <time>2015-06-22T05:10:07Z</time>
      </trkpt>
      <trkpt lat="42.025" lon="9.19923">
        <ele>1381.8</ele>
        <time>2015-06-22T05:10:18Z</time>
      </trkpt>
      <trkpt lat="42.02499" lon="9.19923">
        <ele>1381.6</ele>
        <time>2015-06-22T05:10:19Z</time>
      </trkpt>
      <trkpt lat="42.02498" lon="9.19921">
        <ele>1381.4</ele>
        <time>2015-06-22T05:10:22Z</time>
      </trkpt>
      <trkpt lat="42.02494" lon="9.19922">
        <ele>1380.4</ele>
        <time>2015-06-22T05:10:28Z</time>
      </trkpt>
      <trkpt lat="42.0249" lon="9.19919">
        <ele>1380</ele>
        <time>2015-06-22T05:10:33Z</time>
      </trkpt>
      <trkpt lat="42.02487" lon="9.19919">
        <ele>1379.4</ele>
        <time>2015-06-22T05:10:36Z</time>
      </trkpt>
      <trkpt lat="42.02479" lon="9.19921">
        <ele>1378.6</ele>
        <time>2015-06-22T05:10:44Z</time>
      </trkpt>
      <trkpt lat="42.02477" lon="9.19921">
        <ele>1378.2</ele>
        <time>2015-06-22T05:10:46Z</time>
      </trkpt>
      <trkpt lat="42.02476" lon="9.19921">
        <ele>1378</ele>
        <time>2015-06-22T05:10:48Z</time>
      </trkpt>
      <trkpt lat="42.02475" lon="9.19921">
        <ele>1377.4</ele>
        <time>2015-06-22T05:10:52Z</time>
      </trkpt>
      <trkpt lat="42.02475" lon="9.1992">
        <ele>1376.6</ele>
        <time>2015-06-22T05:10:58Z</time>
      </trkpt>
      <trkpt lat="42.02473" lon="9.19918">
        <ele>1375.6</ele>
        <time>2015-06-22T05:11:03Z</time>
      </trkpt>
      <trkpt lat="42.0247" lon="9.19917">
        <ele>1374.4</ele>
        <time>2015-06-22T05:11:08Z</time>
      </trkpt>
      <trkpt lat="42.02467" lon="9.19914">
        <ele>1373.4</ele>
        <time>2015-06-22T05:11:14Z</time>
      </trkpt>
      <trkpt lat="42.02463" lon="9.19909">
        <ele>1372.4</ele>
        <time>2015-06-22T05:11:19Z</time>
      </trkpt>
      <trkpt lat="42.02461" lon="9.19907">
        <ele>1371.8</ele>
        <time>2015-06-22T05:11:22Z</time>
      </trkpt>
      <trkpt lat="42.0246" lon="9.19907">
        <ele>1371.4</ele>
        <time>2015-06-22T05:11:23Z</time>
      </trkpt>
      <trkpt lat="42.02458" lon="9.19907">
        <ele>1370.4</ele>
        <time>2015-06-22T05:11:26Z</time>
      </trkpt>
      <trkpt lat="42.02456" lon="9.19905">
        <ele>1370</ele>
        <time>2015-06-22T05:11:28Z</time>
      </trkpt>
      <trkpt lat="42.02454" lon="9.19904">
        <ele>1369.8</ele>
        <time>2015-06-22T05:11:30Z</time>
      </trkpt>
      <trkpt lat="42.0245" lon="9.19904">
        <ele>1368.6</ele>
        <time>2015-06-22T05:11:35Z</time>
      </trkpt>
      <trkpt lat="42.02446" lon="9.19906">
        <ele>1367.8</ele>
        <time>2015-06-22T05:11:40Z</time>
      </trkpt>
      <trkpt lat="42.02444" lon="9.19906">
        <ele>1367.4</ele>
        <time>2015-06-22T05:11:41Z</time>
      </trkpt>
      <trkpt lat="42.02443" lon="9.19907">
        <ele>1367.4</ele>
        <time>2015-06-22T05:11:42Z</time>
      </trkpt>
      <trkpt lat="42.02441" lon="9.19908">
        <ele>1367</ele>
        <time>2015-06-22T05:11:44Z</time>
      </trkpt>
      <trkpt lat="42.0244" lon="9.19907">
        <ele>1366.8</ele>
        <time>2015-06-22T05:11:45Z</time>
      </trkpt>
      <trkpt lat="42.02434" lon="9.19907">
        <ele>1365.4</ele>
        <time>2015-06-22T05:11:50Z</time>
      </trkpt>
      <trkpt lat="42.02433" lon="9.19907">
        <ele>1365.2</ele>
        <time>2015-06-22T05:11:51Z</time>
      </trkpt>
      <trkpt lat="42.02431" lon="9.19907">
        <ele>1365</ele>
        <time>2015-06-22T05:11:53Z</time>
      </trkpt>
      <trkpt lat="42.02428" lon="9.19907">
        <ele>1364.2</ele>
        <time>2015-06-22T05:11:56Z</time>
      </trkpt>
      <trkpt lat="42.02425" lon="9.19906">
        <ele>1363.8</ele>
        <time>2015-06-22T05:11:58Z</time>
      </trkpt>
      <trkpt lat="42.0242" lon="9.19901">
        <ele>1362.8</ele>
        <time>2015-06-22T05:12:02Z</time>
      </trkpt>
      <trkpt lat="42.02414" lon="9.19898">
        <ele>1361.4</ele>
        <time>2015-06-22T05:12:08Z</time>
      </trkpt>
      <trkpt lat="42.02414" lon="9.19897">
        <ele>1361.4</ele>
        <time>2015-06-22T05:12:09Z</time>
      </trkpt>
      <trkpt lat="42.02413" lon="9.19895">
        <ele>1360.8</ele>
        <time>2015-06-22T05:12:12Z</time>
      </trkpt>
      <trkpt lat="42.02412" lon="9.19894">
        <ele>1360.6</ele>
        <time>2015-06-22T05:12:14Z</time>
      </trkpt>
      <trkpt lat="42.02409" lon="9.1989">
        <ele>1359.6</ele>
        <time>2015-06-22T05:12:19Z</time>
      </trkpt>
      <trkpt lat="42.02408" lon="9.19888">
        <ele>1359</ele>
        <time>2015-06-22T05:12:21Z</time>
      </trkpt>
      <trkpt lat="42.02408" lon="9.19886">
        <ele>1358.4</ele>
        <time>2015-06-22T05:12:24Z</time>
      </trkpt>
      <trkpt lat="42.02409" lon="9.1988">
        <ele>1357.2</ele>
        <time>2015-06-22T05:12:29Z</time>
      </trkpt>
      <trkpt lat="42.02409" lon="9.19876">
        <ele>1356.2</ele>
        <time>2015-06-22T05:12:34Z</time>
      </trkpt>
      <trkpt lat="42.02409" lon="9.19871">
        <ele>1355</ele>
        <time>2015-06-22T05:12:38Z</time>
      </trkpt>
      <trkpt lat="42.02409" lon="9.19868">
        <ele>1354</ele>
        <time>2015-06-22T05:12:43Z</time>
      </trkpt>
      <trkpt lat="42.02411" lon="9.19866">
        <ele>1353</ele>
        <time>2015-06-22T05:12:47Z</time>
      </trkpt>
      <trkpt lat="42.02412" lon="9.19861">
        <ele>1351.2</ele>
        <time>2015-06-22T05:12:55Z</time>
      </trkpt>
      <trkpt lat="42.02412" lon="9.19856">
        <ele>1350.2</ele>
        <time>2015-06-22T05:13:01Z</time>
      </trkpt>
      <trkpt lat="42.02413" lon="9.19852">
        <ele>1349.4</ele>
        <time>2015-06-22T05:13:06Z</time>
      </trkpt>
      <trkpt lat="42.02416" lon="9.19849">
        <ele>1347.6</ele>
        <time>2015-06-22T05:13:14Z</time>
      </trkpt>
      <trkpt lat="42.02417" lon="9.19844">
        <ele>1347</ele>
        <time>2015-06-22T05:13:20Z</time>
      </trkpt>
      <trkpt lat="42.02418" lon="9.19839">
        <ele>1345.8</ele>
        <time>2015-06-22T05:13:25Z</time>
      </trkpt>
      <trkpt lat="42.02418" lon="9.19837">
        <ele>1345.6</ele>
        <time>2015-06-22T05:13:26Z</time>
      </trkpt>
      <trkpt lat="42.02419" lon="9.19833">
        <ele>1345</ele>
        <time>2015-06-22T05:13:29Z</time>
      </trkpt>
      <trkpt lat="42.02418" lon="9.19831">
        <ele>1344.8</ele>
        <time>2015-06-22T05:13:30Z</time>
      </trkpt>
      <trkpt lat="42.02417" lon="9.19825">
        <ele>1344</ele>
        <time>2015-06-22T05:13:34Z</time>
      </trkpt>
      <trkpt lat="42.02418" lon="9.19817">
        <ele>1342.6</ele>
        <time>2015-06-22T05:13:39Z</time>
      </trkpt>
      <trkpt lat="42.0242" lon="9.19811">
        <ele>1341.2</ele>
        <time>2015-06-22T05:13:45Z</time>
      </trkpt>
      <trkpt lat="42.02421" lon="9.19808">
        <ele>1341</ele>
        <time>2015-06-22T05:13:47Z</time>
      </trkpt>
      <trkpt lat="42.02423" lon="9.19806">
        <ele>1340.2</ele>
        <time>2015-06-22T05:13:50Z</time>
      </trkpt>
      <trkpt lat="42.02425" lon="9.19804">
        <ele>1340.2</ele>
        <time>2015-06-22T05:13:52Z</time>
      </trkpt>
      <trkpt lat="42.02425" lon="9.19804">
        <ele>1339.8</ele>
        <time>2015-06-22T05:13:53Z</time>
      </trkpt>
      <trkpt lat="42.02424" lon="9.19801">
        <ele>1340</ele>
        <time>2015-06-22T05:13:55Z</time>
      </trkpt>
      <trkpt lat="42.02425" lon="9.19796">
        <ele>1339</ele>
        <time>2015-06-22T05:13:59Z</time>
      </trkpt>
      <trkpt lat="42.02424" lon="9.19794">
        <ele>1339</ele>
        <time>2015-06-22T05:14:00Z</time>
      </trkpt>
      <trkpt lat="42.02425" lon="9.19789">
        <ele>1338</ele>
        <time>2015-06-22T05:14:04Z</time>
      </trkpt>
      <trkpt lat="42.02426" lon="9.19789">
        <ele>1337.8</ele>
        <time>2015-06-22T05:14:05Z</time>
      </trkpt>
      <trkpt lat="42.02428" lon="9.19786">
        <ele>1337</ele>
        <time>2015-06-22T05:14:08Z</time>
      </trkpt>
      <trkpt lat="42.02428" lon="9.19785">
        <ele>1336.8</ele>
        <time>2015-06-22T05:14:09Z</time>
      </trkpt>
      <trkpt lat="42.02429" lon="9.19781">
        <ele>1335.8</ele>
        <time>2015-06-22T05:14:13Z</time>
      </trkpt>
      <trkpt lat="42.02431" lon="9.19776">
        <ele>1335.4</ele>
        <time>2015-06-22T05:14:16Z</time>
      </trkpt>
      <trkpt lat="42.02433" lon="9.19774">
        <ele>1334.6</ele>
        <time>2015-06-22T05:14:18Z</time>
      </trkpt>
      <trkpt lat="42.02437" lon="9.19774">
        <ele>1334.4</ele>
        <time>2015-06-22T05:14:21Z</time>
      </trkpt>
      <trkpt lat="42.02438" lon="9.19773">
        <ele>1334.2</ele>
        <time>2015-06-22T05:14:22Z</time>
      </trkpt>
      <trkpt lat="42.02447" lon="9.19771">
        <ele>1332.8</ele>
        <time>2015-06-22T05:14:32Z</time>
      </trkpt>
      <trkpt lat="42.02448" lon="9.19771">
        <ele>1332.6</ele>
        <time>2015-06-22T05:14:34Z</time>
      </trkpt>
      <trkpt lat="42.02452" lon="9.19772">
        <ele>1332.4</ele>
        <time>2015-06-22T05:14:36Z</time>
      </trkpt>
      <trkpt lat="42.02459" lon="9.19772">
        <ele>1332.2</ele>
        <time>2015-06-22T05:14:40Z</time>
      </trkpt>
      <trkpt lat="42.02464" lon="9.19771">
        <ele>1331.4</ele>
        <time>2015-06-22T05:14:45Z</time>
      </trkpt>
      <trkpt lat="42.02469" lon="9.19772">
        <ele>1331</ele>
        <time>2015-06-22T05:14:48Z</time>
      </trkpt>
      <trkpt lat="42.02475" lon="9.19771">
        <ele>1330.6</ele>
        <time>2015-06-22T05:14:53Z</time>
      </trkpt>
      <trkpt lat="42.02479" lon="9.1977">
        <ele>1330.6</ele>
        <time>2015-06-22T05:14:56Z</time>
      </trkpt>
      <trkpt lat="42.0248" lon="9.19769">
        <ele>1330.4</ele>
        <time>2015-06-22T05:14:57Z</time>
      </trkpt>
      <trkpt lat="42.0248" lon="9.19769">
        <ele>1330.6</ele>
        <time>2015-06-22T05:14:58Z</time>
      </trkpt>
      <trkpt lat="42.02495" lon="9.19767">
        <ele>1329.2</ele>
        <time>2015-06-22T05:15:12Z</time>
      </trkpt>
      <trkpt lat="42.02496" lon="9.19767">
        <ele>1329.4</ele>
        <time>2015-06-22T05:15:13Z</time>
      </trkpt>
      <trkpt lat="42.02499" lon="9.19764">
        <ele>1329</ele>
        <time>2015-06-22T05:15:18Z</time>
      </trkpt>
      <trkpt lat="42.02507" lon="9.19758">
        <ele>1328.4</ele>
        <time>2015-06-22T05:15:27Z</time>
      </trkpt>
      <trkpt lat="42.02509" lon="9.19758">
        <ele>1328.4</ele>
        <time>2015-06-22T05:15:29Z</time>
      </trkpt>
      <trkpt lat="42.02516" lon="9.19757">
        <ele>1328.2</ele>
        <time>2015-06-22T05:15:34Z</time>
      </trkpt>
      <trkpt lat="42.02531" lon="9.19749">
        <ele>1327.6</ele>
        <time>2015-06-22T05:15:45Z</time>
      </trkpt>
      <trkpt lat="42.02538" lon="9.19744">
        <ele>1326.8</ele>
        <time>2015-06-22T05:15:52Z</time>
      </trkpt>
      <trkpt lat="42.02542" lon="9.19741">
        <ele>1326.4</ele>
        <time>2015-06-22T05:15:56Z</time>
      </trkpt>
      <trkpt lat="42.02555" lon="9.19732">
        <ele>1325.8</ele>
        <time>2015-06-22T05:16:08Z</time>
      </trkpt>
      <trkpt lat="42.02558" lon="9.19729">
        <ele>1325.4</ele>
        <time>2015-06-22T05:16:11Z</time>
      </trkpt>
      <trkpt lat="42.02561" lon="9.19727">
        <ele>1325</ele>
        <time>2015-06-22T05:16:14Z</time>
      </trkpt>
      <trkpt lat="42.02563" lon="9.19726">
        <ele>1324.8</ele>
        <time>2015-06-22T05:16:16Z</time>
      </trkpt>
      <trkpt lat="42.0257" lon="9.19717">
        <ele>1324.4</ele>
        <time>2015-06-22T05:16:26Z</time>
      </trkpt>
      <trkpt lat="42.02572" lon="9.19717">
        <ele>1324.2</ele>
        <time>2015-06-22T05:16:27Z</time>
      </trkpt>
      <trkpt lat="42.02574" lon="9.19715">
        <ele>1324.2</ele>
        <time>2015-06-22T05:16:31Z</time>
      </trkpt>
      <trkpt lat="42.02577" lon="9.19714">
        <ele>1324</ele>
        <time>2015-06-22T05:16:34Z</time>
      </trkpt>
      <trkpt lat="42.02584" lon="9.19712">
        <ele>1323.4</ele>
        <time>2015-06-22T05:16:41Z</time>
      </trkpt>
      <trkpt lat="42.02587" lon="9.19714">
        <ele>1323.4</ele>
        <time>2015-06-22T05:16:45Z</time>
      </trkpt>
      <trkpt lat="42.02595" lon="9.19718">
        <ele>1323.8</ele>
        <time>2015-06-22T05:18:51Z</time>
      </trkpt>
      <trkpt lat="42.02589" lon="9.19711">
        <ele>1323.4</ele>
        <time>2015-06-22T05:19:57Z</time>
      </trkpt>
      <trkpt lat="42.02586" lon="9.1971">
        <ele>1324.2</ele>
        <time>2015-06-22T05:22:22Z</time>
      </trkpt>
      <trkpt lat="42.02598" lon="9.19696">
        <ele>1323.6</ele>
        <time>2015-06-22T05:23:17Z</time>
      </trkpt>
      <trkpt lat="42.02602" lon="9.19688">
        <ele>1322.8</ele>
        <time>2015-06-22T05:23:24Z</time>
      </trkpt>
      <trkpt lat="42.02611" lon="9.19678">
        <ele>1321.2</ele>
        <time>2015-06-22T05:23:34Z</time>
      </trkpt>
      <trkpt lat="42.02616" lon="9.19673">
        <ele>1320.6</ele>
        <time>2015-06-22T05:23:40Z</time>
      </trkpt>
      <trkpt lat="42.02622" lon="9.19664">
        <ele>1319.4</ele>
        <time>2015-06-22T05:23:49Z</time>
      </trkpt>
      <trkpt lat="42.02631" lon="9.19654">
        <ele>1318.2</ele>
        <time>2015-06-22T05:24:01Z</time>
      </trkpt>
      <trkpt lat="42.02637" lon="9.19642">
        <ele>1317</ele>
        <time>2015-06-22T05:24:13Z</time>
      </trkpt>
      <trkpt lat="42.02648" lon="9.19634">
        <ele>1316</ele>
        <time>2015-06-22T05:24:25Z</time>
      </trkpt>
      <trkpt lat="42.02655" lon="9.19621">
        <ele>1315</ele>
        <time>2015-06-22T05:24:37Z</time>
      </trkpt>
      <trkpt lat="42.02661" lon="9.19612">
        <ele>1313.8</ele>
        <time>2015-06-22T05:24:46Z</time>
      </trkpt>
      <trkpt lat="42.02666" lon="9.19608">
        <ele>1313.2</ele>
        <time>2015-06-22T05:24:52Z</time>
      </trkpt>
      <trkpt lat="42.02672" lon="9.19603">
        <ele>1311.8</ele>
        <time>2015-06-22T05:25:00Z</time>
      </trkpt>
      <trkpt lat="42.0268" lon="9.19599">
        <ele>1310.6</ele>
        <time>2015-06-22T05:25:10Z</time>
      </trkpt>
      <trkpt lat="42.02688" lon="9.19594">
        <ele>1309.8</ele>
        <time>2015-06-22T05:25:18Z</time>
      </trkpt>
      <trkpt lat="42.02697" lon="9.19584">
        <ele>1308.6</ele>
        <time>2015-06-22T05:25:28Z</time>
      </trkpt>
      <trkpt lat="42.02703" lon="9.19579">
        <ele>1308</ele>
        <time>2015-06-22T05:25:35Z</time>
      </trkpt>
      <trkpt lat="42.02712" lon="9.19573">
        <ele>1306.6</ele>
        <time>2015-06-22T05:25:45Z</time>
      </trkpt>
      <trkpt lat="42.0272" lon="9.19567">
        <ele>1305.4</ele>
        <time>2015-06-22T05:25:56Z</time>
      </trkpt>
      <trkpt lat="42.02729" lon="9.19561">
        <ele>1304.2</ele>
        <time>2015-06-22T05:26:06Z</time>
      </trkpt>
      <trkpt lat="42.02734" lon="9.19557">
        <ele>1303.6</ele>
        <time>2015-06-22T05:26:13Z</time>
      </trkpt>
      <trkpt lat="42.02742" lon="9.19548">
        <ele>1302.4</ele>
        <time>2015-06-22T05:26:22Z</time>
      </trkpt>
      <trkpt lat="42.02749" lon="9.19542">
        <ele>1301.4</ele>
        <time>2015-06-22T05:26:29Z</time>
      </trkpt>
      <trkpt lat="42.02755" lon="9.19537">
        <ele>1300.4</ele>
        <time>2015-06-22T05:26:35Z</time>
      </trkpt>
      <trkpt lat="42.02761" lon="9.19531">
        <ele>1299.2</ele>
        <time>2015-06-22T05:26:42Z</time>
      </trkpt>
      <trkpt lat="42.02765" lon="9.19527">
        <ele>1298.2</ele>
        <time>2015-06-22T05:26:49Z</time>
      </trkpt>
      <trkpt lat="42.02773" lon="9.1952">
        <ele>1297</ele>
        <time>2015-06-22T05:26:58Z</time>
      </trkpt>
      <trkpt lat="42.0278" lon="9.19513">
        <ele>1296</ele>
        <time>2015-06-22T05:27:06Z</time>
      </trkpt>
      <trkpt lat="42.02785" lon="9.19508">
        <ele>1295</ele>
        <time>2015-06-22T05:27:13Z</time>
      </trkpt>
      <trkpt lat="42.02792" lon="9.19501">
        <ele>1293.8</ele>
        <time>2015-06-22T05:27:22Z</time>
      </trkpt>
      <trkpt lat="42.028" lon="9.19498">
        <ele>1292.6</ele>
        <time>2015-06-22T05:27:30Z</time>
      </trkpt>
      <trkpt lat="42.02804" lon="9.19496">
        <ele>1292</ele>
        <time>2015-06-22T05:27:35Z</time>
      </trkpt>
      <trkpt lat="42.02808" lon="9.19493">
        <ele>1291.6</ele>
        <time>2015-06-22T05:27:39Z</time>
      </trkpt>
      <trkpt lat="42.02818" lon="9.19488">
        <ele>1290.4</ele>
        <time>2015-06-22T05:27:48Z</time>
      </trkpt>
      <trkpt lat="42.02832" lon="9.1949">
        <ele>1289</ele>
        <time>2015-06-22T05:28:10Z</time>
      </trkpt>
      <trkpt lat="42.02826" lon="9.19477">
        <ele>1289.2</ele>
        <time>2015-06-22T05:28:45Z</time>
      </trkpt>
      <trkpt lat="42.02825" lon="9.19475">
        <ele>1289.2</ele>
        <time>2015-06-22T05:28:47Z</time>
      </trkpt>
      <trkpt lat="42.02815" lon="9.19466">
        <ele>1288.4</ele>
        <time>2015-06-22T05:29:02Z</time>
      </trkpt>
      <trkpt lat="42.02813" lon="9.19466">
        <ele>1288.2</ele>
        <time>2015-06-22T05:29:04Z</time>
      </trkpt>
      <trkpt lat="42.02807" lon="9.19453">
        <ele>1287.8</ele>
        <time>2015-06-22T05:29:20Z</time>
      </trkpt>
      <trkpt lat="42.02805" lon="9.19441">
        <ele>1287</ele>
        <time>2015-06-22T05:29:29Z</time>
      </trkpt>
      <trkpt lat="42.02811" lon="9.19409">
        <ele>1285.6</ele>
        <time>2015-06-22T05:29:53Z</time>
      </trkpt>
      <trkpt lat="42.0282" lon="9.19391">
        <ele>1284.8</ele>
        <time>2015-06-22T05:30:05Z</time>
      </trkpt>
      <trkpt lat="42.02821" lon="9.19388">
        <ele>1284.6</ele>
        <time>2015-06-22T05:30:07Z</time>
      </trkpt>
      <trkpt lat="42.02824" lon="9.19371">
        <ele>1283.6</ele>
        <time>2015-06-22T05:30:18Z</time>
      </trkpt>
      <trkpt lat="42.0283" lon="9.19356">
        <ele>1282.8</ele>
        <time>2015-06-22T05:30:28Z</time>
      </trkpt>
      <trkpt lat="42.02839" lon="9.19342">
        <ele>1281.6</ele>
        <time>2015-06-22T05:30:40Z</time>
      </trkpt>
      <trkpt lat="42.02843" lon="9.19334">
        <ele>1281</ele>
        <time>2015-06-22T05:30:46Z</time>
      </trkpt>
      <trkpt lat="42.02851" lon="9.19327">
        <ele>1279.6</ele>
        <time>2015-06-22T05:30:55Z</time>
      </trkpt>
      <trkpt lat="42.02859" lon="9.19318">
        <ele>1278.6</ele>
        <time>2015-06-22T05:31:04Z</time>
      </trkpt>
      <trkpt lat="42.02867" lon="9.19304">
        <ele>1277.4</ele>
        <time>2015-06-22T05:31:14Z</time>
      </trkpt>
      <trkpt lat="42.02874" lon="9.19284">
        <ele>1276.2</ele>
        <time>2015-06-22T05:31:29Z</time>
      </trkpt>
      <trkpt lat="42.0288" lon="9.19263">
        <ele>1275.4</ele>
        <time>2015-06-22T05:31:44Z</time>
      </trkpt>
      <trkpt lat="42.0288" lon="9.1926">
        <ele>1275.2</ele>
        <time>2015-06-22T05:31:47Z</time>
      </trkpt>
      <trkpt lat="42.02882" lon="9.19256">
        <ele>1275</ele>
        <time>2015-06-22T05:31:51Z</time>
      </trkpt>
      <trkpt lat="42.0289" lon="9.19246">
        <ele>1274.6</ele>
        <time>2015-06-22T05:31:59Z</time>
      </trkpt>
      <trkpt lat="42.02891" lon="9.19245">
        <ele>1274.6</ele>
        <time>2015-06-22T05:32:00Z</time>
      </trkpt>
      <trkpt lat="42.02892" lon="9.19243">
        <ele>1274.4</ele>
        <time>2015-06-22T05:32:02Z</time>
      </trkpt>
      <trkpt lat="42.02895" lon="9.19239">
        <ele>1274.2</ele>
        <time>2015-06-22T05:32:06Z</time>
      </trkpt>
      <trkpt lat="42.02895" lon="9.19237">
        <ele>1274.2</ele>
        <time>2015-06-22T05:32:07Z</time>
      </trkpt>
      <trkpt lat="42.029" lon="9.19217">
        <ele>1273.6</ele>
        <time>2015-06-22T05:32:19Z</time>
      </trkpt>
      <trkpt lat="42.02902" lon="9.19196">
        <ele>1273.2</ele>
        <time>2015-06-22T05:32:33Z</time>
      </trkpt>
      <trkpt lat="42.02903" lon="9.19187">
        <ele>1273</ele>
        <time>2015-06-22T05:32:38Z</time>
      </trkpt>
      <trkpt lat="42.02905" lon="9.19174">
        <ele>1272.6</ele>
        <time>2015-06-22T05:32:48Z</time>
      </trkpt>
      <trkpt lat="42.02905" lon="9.19154">
        <ele>1272.4</ele>
        <time>2015-06-22T05:32:58Z</time>
      </trkpt>
      <trkpt lat="42.02907" lon="9.19151">
        <ele>1272</ele>
        <time>2015-06-22T05:33:01Z</time>
      </trkpt>
      <trkpt lat="42.02906" lon="9.19137">
        <ele>1271.8</ele>
        <time>2015-06-22T05:33:08Z</time>
      </trkpt>
      <trkpt lat="42.02907" lon="9.1913">
        <ele>1271.4</ele>
        <time>2015-06-22T05:33:12Z</time>
      </trkpt>
      <trkpt lat="42.02908" lon="9.19121">
        <ele>1271</ele>
        <time>2015-06-22T05:33:18Z</time>
      </trkpt>
      <trkpt lat="42.02908" lon="9.19116">
        <ele>1270.6</ele>
        <time>2015-06-22T05:33:23Z</time>
      </trkpt>
      <trkpt lat="42.02909" lon="9.19096">
        <ele>1270</ele>
        <time>2015-06-22T05:33:36Z</time>
      </trkpt>
      <trkpt lat="42.02899" lon="9.19067">
        <ele>1269</ele>
        <time>2015-06-22T05:33:59Z</time>
      </trkpt>
      <trkpt lat="42.02888" lon="9.19056">
        <ele>1267.8</ele>
        <time>2015-06-22T05:34:15Z</time>
      </trkpt>
      <trkpt lat="42.0288" lon="9.18998">
        <ele>1268</ele>
        <time>2015-06-22T05:35:06Z</time>
      </trkpt>
      <trkpt lat="42.0288" lon="9.18996">
        <ele>1268.2</ele>
        <time>2015-06-22T05:35:08Z</time>
      </trkpt>
      <trkpt lat="42.02877" lon="9.18981">
        <ele>1268.6</ele>
        <time>2015-06-22T05:35:21Z</time>
      </trkpt>
      <trkpt lat="42.02873" lon="9.18974">
        <ele>1269</ele>
        <time>2015-06-22T05:35:27Z</time>
      </trkpt>
      <trkpt lat="42.02859" lon="9.1893">
        <ele>1269.8</ele>
        <time>2015-06-22T05:35:58Z</time>
      </trkpt>
      <trkpt lat="42.02853" lon="9.18918">
        <ele>1270</ele>
        <time>2015-06-22T05:36:06Z</time>
      </trkpt>
      <trkpt lat="42.02846" lon="9.18906">
        <ele>1270.8</ele>
        <time>2015-06-22T05:36:17Z</time>
      </trkpt>
      <trkpt lat="42.02846" lon="9.18903">
        <ele>1271</ele>
        <time>2015-06-22T05:36:19Z</time>
      </trkpt>
      <trkpt lat="42.02841" lon="9.1889">
        <ele>1272</ele>
        <time>2015-06-22T05:36:32Z</time>
      </trkpt>
      <trkpt lat="42.02841" lon="9.18881">
        <ele>1273</ele>
        <time>2015-06-22T05:36:41Z</time>
      </trkpt>
      <trkpt lat="42.02841" lon="9.18859">
        <ele>1274.2</ele>
        <time>2015-06-22T05:36:58Z</time>
      </trkpt>
      <trkpt lat="42.0284" lon="9.18857">
        <ele>1274.4</ele>
        <time>2015-06-22T05:37:00Z</time>
      </trkpt>
      <trkpt lat="42.02839" lon="9.18841">
        <ele>1275</ele>
        <time>2015-06-22T05:37:12Z</time>
      </trkpt>
      <trkpt lat="42.02837" lon="9.18825">
        <ele>1276</ele>
        <time>2015-06-22T05:37:23Z</time>
      </trkpt>
      <trkpt lat="42.02835" lon="9.18818">
        <ele>1276.2</ele>
        <time>2015-06-22T05:37:28Z</time>
      </trkpt>
      <trkpt lat="42.02828" lon="9.18803">
        <ele>1277</ele>
        <time>2015-06-22T05:37:41Z</time>
      </trkpt>
      <trkpt lat="42.02826" lon="9.18801">
        <ele>1277.4</ele>
        <time>2015-06-22T05:37:43Z</time>
      </trkpt>
      <trkpt lat="42.02821" lon="9.18788">
        <ele>1278.2</ele>
        <time>2015-06-22T05:37:56Z</time>
      </trkpt>
      <trkpt lat="42.0282" lon="9.18784">
        <ele>1278.6</ele>
        <time>2015-06-22T05:38:00Z</time>
      </trkpt>
      <trkpt lat="42.0282" lon="9.18776">
        <ele>1279.2</ele>
        <time>2015-06-22T05:38:07Z</time>
      </trkpt>
      <trkpt lat="42.02817" lon="9.18767">
        <ele>1280.4</ele>
        <time>2015-06-22T05:38:16Z</time>
      </trkpt>
      <trkpt lat="42.02813" lon="9.18762">
        <ele>1280.6</ele>
        <time>2015-06-22T05:38:22Z</time>
      </trkpt>
      <trkpt lat="42.02806" lon="9.18751">
        <ele>1281.4</ele>
        <time>2015-06-22T05:38:32Z</time>
      </trkpt>
      <trkpt lat="42.02801" lon="9.1873">
        <ele>1282.8</ele>
        <time>2015-06-22T05:38:51Z</time>
      </trkpt>
      <trkpt lat="42.02797" lon="9.18712">
        <ele>1283.8</ele>
        <time>2015-06-22T05:39:06Z</time>
      </trkpt>
      <trkpt lat="42.02793" lon="9.18693">
        <ele>1284.8</ele>
        <time>2015-06-22T05:39:24Z</time>
      </trkpt>
      <trkpt lat="42.02789" lon="9.18682">
        <ele>1285.2</ele>
        <time>2015-06-22T05:39:35Z</time>
      </trkpt>
      <trkpt lat="42.02783" lon="9.18676">
        <ele>1286</ele>
        <time>2015-06-22T05:39:43Z</time>
      </trkpt>
      <trkpt lat="42.02777" lon="9.18663">
        <ele>1286.6</ele>
        <time>2015-06-22T05:39:55Z</time>
      </trkpt>
      <trkpt lat="42.02775" lon="9.18652">
        <ele>1288</ele>
        <time>2015-06-22T05:40:05Z</time>
      </trkpt>
      <trkpt lat="42.02773" lon="9.18643">
        <ele>1288.8</ele>
        <time>2015-06-22T05:40:14Z</time>
      </trkpt>
      <trkpt lat="42.02771" lon="9.18636">
        <ele>1289.6</ele>
        <time>2015-06-22T05:40:21Z</time>
      </trkpt>
      <trkpt lat="42.02766" lon="9.18625">
        <ele>1290.8</ele>
        <time>2015-06-22T05:40:31Z</time>
      </trkpt>
      <trkpt lat="42.02759" lon="9.18621">
        <ele>1292.2</ele>
        <time>2015-06-22T05:40:40Z</time>
      </trkpt>
      <trkpt lat="42.02756" lon="9.18617">
        <ele>1293.2</ele>
        <time>2015-06-22T05:40:49Z</time>
      </trkpt>
      <trkpt lat="42.02754" lon="9.18611">
        <ele>1293.8</ele>
        <time>2015-06-22T05:40:56Z</time>
      </trkpt>
      <trkpt lat="42.02755" lon="9.18598">
        <ele>1295.4</ele>
        <time>2015-06-22T05:41:07Z</time>
      </trkpt>
      <trkpt lat="42.02754" lon="9.18587">
        <ele>1296.6</ele>
        <time>2015-06-22T05:41:20Z</time>
      </trkpt>
      <trkpt lat="42.02751" lon="9.18581">
        <ele>1297.4</ele>
        <time>2015-06-22T05:41:27Z</time>
      </trkpt>
      <trkpt lat="42.02747" lon="9.18575">
        <ele>1298.6</ele>
        <time>2015-06-22T05:41:35Z</time>
      </trkpt>
      <trkpt lat="42.02743" lon="9.18569">
        <ele>1299.6</ele>
        <time>2015-06-22T05:41:42Z</time>
      </trkpt>
      <trkpt lat="42.02738" lon="9.18554">
        <ele>1301.2</ele>
        <time>2015-06-22T05:41:54Z</time>
      </trkpt>
      <trkpt lat="42.02737" lon="9.18529">
        <ele>1302.6</ele>
        <time>2015-06-22T05:42:17Z</time>
      </trkpt>
      <trkpt lat="42.02734" lon="9.18516">
        <ele>1303.6</ele>
        <time>2015-06-22T05:42:33Z</time>
      </trkpt>
      <trkpt lat="42.02729" lon="9.18504">
        <ele>1304.8</ele>
        <time>2015-06-22T05:42:45Z</time>
      </trkpt>
      <trkpt lat="42.02723" lon="9.18493">
        <ele>1306</ele>
        <time>2015-06-22T05:42:55Z</time>
      </trkpt>
      <trkpt lat="42.0272" lon="9.18486">
        <ele>1307</ele>
        <time>2015-06-22T05:43:05Z</time>
      </trkpt>
      <trkpt lat="42.02719" lon="9.18476">
        <ele>1308</ele>
        <time>2015-06-22T05:43:13Z</time>
      </trkpt>
      <trkpt lat="42.02715" lon="9.18468">
        <ele>1308.4</ele>
        <time>2015-06-22T05:43:20Z</time>
      </trkpt>
      <trkpt lat="42.02714" lon="9.18459">
        <ele>1309.6</ele>
        <time>2015-06-22T05:43:31Z</time>
      </trkpt>
      <trkpt lat="42.02713" lon="9.1845">
        <ele>1310.6</ele>
        <time>2015-06-22T05:43:40Z</time>
      </trkpt>
      <trkpt lat="42.02711" lon="9.18441">
        <ele>1311.2</ele>
        <time>2015-06-22T05:43:48Z</time>
      </trkpt>
      <trkpt lat="42.02709" lon="9.18432">
        <ele>1312</ele>
        <time>2015-06-22T05:43:56Z</time>
      </trkpt>
      <trkpt lat="42.02706" lon="9.18419">
        <ele>1313</ele>
        <time>2015-06-22T05:44:08Z</time>
      </trkpt>
      <trkpt lat="42.02705" lon="9.18411">
        <ele>1313.6</ele>
        <time>2015-06-22T05:44:16Z</time>
      </trkpt>
      <trkpt lat="42.02704" lon="9.184">
        <ele>1314.2</ele>
        <time>2015-06-22T05:44:25Z</time>
      </trkpt>
      <trkpt lat="42.02702" lon="9.18391">
        <ele>1315</ele>
        <time>2015-06-22T05:44:34Z</time>
      </trkpt>
      <trkpt lat="42.02702" lon="9.1839">
        <ele>1315.2</ele>
        <time>2015-06-22T05:44:35Z</time>
      </trkpt>
      <trkpt lat="42.02702" lon="9.18389">
        <ele>1315.4</ele>
        <time>2015-06-22T05:44:37Z</time>
      </trkpt>
      <trkpt lat="42.02702" lon="9.18386">
        <ele>1315.8</ele>
        <time>2015-06-22T05:44:40Z</time>
      </trkpt>
      <trkpt lat="42.02703" lon="9.18378">
        <ele>1316.4</ele>
        <time>2015-06-22T05:44:48Z</time>
      </trkpt>
      <trkpt lat="42.02701" lon="9.18369">
        <ele>1317</ele>
        <time>2015-06-22T05:44:57Z</time>
      </trkpt>
      <trkpt lat="42.027" lon="9.18363">
        <ele>1318</ele>
        <time>2015-06-22T05:45:03Z</time>
      </trkpt>
      <trkpt lat="42.02699" lon="9.18361">
        <ele>1318.4</ele>
        <time>2015-06-22T05:45:07Z</time>
      </trkpt>
      <trkpt lat="42.027" lon="9.18351">
        <ele>1319.6</ele>
        <time>2015-06-22T05:45:17Z</time>
      </trkpt>
      <trkpt lat="42.027" lon="9.1834">
        <ele>1320.6</ele>
        <time>2015-06-22T05:45:29Z</time>
      </trkpt>
      <trkpt lat="42.02702" lon="9.18335">
        <ele>1321.2</ele>
        <time>2015-06-22T05:45:33Z</time>
      </trkpt>
      <trkpt lat="42.02704" lon="9.18329">
        <ele>1321.8</ele>
        <time>2015-06-22T05:45:39Z</time>
      </trkpt>
      <trkpt lat="42.02704" lon="9.18328">
        <ele>1321.8</ele>
        <time>2015-06-22T05:45:40Z</time>
      </trkpt>
      <trkpt lat="42.02705" lon="9.18325">
        <ele>1322.2</ele>
        <time>2015-06-22T05:45:44Z</time>
      </trkpt>
      <trkpt lat="42.02705" lon="9.1832">
        <ele>1322.8</ele>
        <time>2015-06-22T05:45:48Z</time>
      </trkpt>
      <trkpt lat="42.02708" lon="9.18312">
        <ele>1324</ele>
        <time>2015-06-22T05:45:58Z</time>
      </trkpt>
      <trkpt lat="42.02711" lon="9.18306">
        <ele>1324.8</ele>
        <time>2015-06-22T05:46:06Z</time>
      </trkpt>
      <trkpt lat="42.02713" lon="9.18297">
        <ele>1326.4</ele>
        <time>2015-06-22T05:46:16Z</time>
      </trkpt>
      <trkpt lat="42.02716" lon="9.18281">
        <ele>1327.4</ele>
        <time>2015-06-22T05:46:33Z</time>
      </trkpt>
      <trkpt lat="42.02718" lon="9.1827">
        <ele>1328.4</ele>
        <time>2015-06-22T05:46:44Z</time>
      </trkpt>
      <trkpt lat="42.02717" lon="9.1826">
        <ele>1329.4</ele>
        <time>2015-06-22T05:46:57Z</time>
      </trkpt>
      <trkpt lat="42.02717" lon="9.18253">
        <ele>1330.8</ele>
        <time>2015-06-22T05:47:07Z</time>
      </trkpt>
      <trkpt lat="42.02716" lon="9.18244">
        <ele>1331.6</ele>
        <time>2015-06-22T05:47:16Z</time>
      </trkpt>
      <trkpt lat="42.02719" lon="9.18235">
        <ele>1333</ele>
        <time>2015-06-22T05:47:26Z</time>
      </trkpt>
      <trkpt lat="42.02722" lon="9.18229">
        <ele>1334.2</ele>
        <time>2015-06-22T05:47:35Z</time>
      </trkpt>
      <trkpt lat="42.02722" lon="9.18223">
        <ele>1335.2</ele>
        <time>2015-06-22T05:47:43Z</time>
      </trkpt>
      <trkpt lat="42.02723" lon="9.18217">
        <ele>1336.4</ele>
        <time>2015-06-22T05:47:51Z</time>
      </trkpt>
      <trkpt lat="42.02724" lon="9.18208">
        <ele>1337.4</ele>
        <time>2015-06-22T05:48:01Z</time>
      </trkpt>
      <trkpt lat="42.02728" lon="9.18198">
        <ele>1338.6</ele>
        <time>2015-06-22T05:48:12Z</time>
      </trkpt>
      <trkpt lat="42.0273" lon="9.1819">
        <ele>1340</ele>
        <time>2015-06-22T05:48:22Z</time>
      </trkpt>
      <trkpt lat="42.02732" lon="9.18184">
        <ele>1341</ele>
        <time>2015-06-22T05:48:31Z</time>
      </trkpt>
      <trkpt lat="42.02732" lon="9.18179">
        <ele>1342</ele>
        <time>2015-06-22T05:48:40Z</time>
      </trkpt>
      <trkpt lat="42.02731" lon="9.18173">
        <ele>1343.4</ele>
        <time>2015-06-22T05:48:50Z</time>
      </trkpt>
      <trkpt lat="42.02732" lon="9.18163">
        <ele>1344.6</ele>
        <time>2015-06-22T05:49:01Z</time>
      </trkpt>
      <trkpt lat="42.02733" lon="9.18149">
        <ele>1345.8</ele>
        <time>2015-06-22T05:49:12Z</time>
      </trkpt>
      <trkpt lat="42.02736" lon="9.18119">
        <ele>1346.8</ele>
        <time>2015-06-22T05:49:39Z</time>
      </trkpt>
      <trkpt lat="42.02728" lon="9.18067">
        <ele>1347.4</ele>
        <time>2015-06-22T05:50:16Z</time>
      </trkpt>
      <trkpt lat="42.02724" lon="9.18062">
        <ele>1348</ele>
        <time>2015-06-22T05:50:24Z</time>
      </trkpt>
      <trkpt lat="42.02722" lon="9.18059">
        <ele>1348.6</ele>
        <time>2015-06-22T05:50:28Z</time>
      </trkpt>
      <trkpt lat="42.02722" lon="9.18054">
        <ele>1349.8</ele>
        <time>2015-06-22T05:50:34Z</time>
      </trkpt>
      <trkpt lat="42.02728" lon="9.18041">
        <ele>1351.6</ele>
        <time>2015-06-22T05:50:48Z</time>
      </trkpt>
      <trkpt lat="42.02731" lon="9.18038">
        <ele>1352.2</ele>
        <time>2015-06-22T05:50:54Z</time>
      </trkpt>
      <trkpt lat="42.02734" lon="9.18032">
        <ele>1353.6</ele>
        <time>2015-06-22T05:51:03Z</time>
      </trkpt>
      <trkpt lat="42.02735" lon="9.18028">
        <ele>1354.2</ele>
        <time>2015-06-22T05:51:10Z</time>
      </trkpt>
      <trkpt lat="42.02737" lon="9.18023">
        <ele>1355.8</ele>
        <time>2015-06-22T05:51:18Z</time>
      </trkpt>
      <trkpt lat="42.02739" lon="9.18018">
        <ele>1356.8</ele>
        <time>2015-06-22T05:51:26Z</time>
      </trkpt>
      <trkpt lat="42.02739" lon="9.18013">
        <ele>1357.6</ele>
        <time>2015-06-22T05:51:32Z</time>
      </trkpt>
      <trkpt lat="42.02736" lon="9.18005">
        <ele>1358.8</ele>
        <time>2015-06-22T05:51:40Z</time>
      </trkpt>
      <trkpt lat="42.02738" lon="9.17997">
        <ele>1360</ele>
        <time>2015-06-22T05:51:49Z</time>
      </trkpt>
      <trkpt lat="42.02739" lon="9.17988">
        <ele>1361</ele>
        <time>2015-06-22T05:51:59Z</time>
      </trkpt>
      <trkpt lat="42.02744" lon="9.17978">
        <ele>1362.4</ele>
        <time>2015-06-22T05:52:11Z</time>
      </trkpt>
      <trkpt lat="42.02743" lon="9.1797">
        <ele>1363.2</ele>
        <time>2015-06-22T05:52:20Z</time>
      </trkpt>
      <trkpt lat="42.02745" lon="9.17964">
        <ele>1364.4</ele>
        <time>2015-06-22T05:52:29Z</time>
      </trkpt>
      <trkpt lat="42.02746" lon="9.17955">
        <ele>1365.6</ele>
        <time>2015-06-22T05:52:38Z</time>
      </trkpt>
      <trkpt lat="42.02733" lon="9.1791">
        <ele>1365.6</ele>
        <time>2015-06-22T05:53:21Z</time>
      </trkpt>
      <trkpt lat="42.02727" lon="9.17895">
        <ele>1364.8</ele>
        <time>2015-06-22T05:53:34Z</time>
      </trkpt>
      <trkpt lat="42.02723" lon="9.17869">
        <ele>1364.4</ele>
        <time>2015-06-22T05:53:56Z</time>
      </trkpt>
      <trkpt lat="42.02718" lon="9.17855">
        <ele>1365.6</ele>
        <time>2015-06-22T05:54:05Z</time>
      </trkpt>
      <trkpt lat="42.02715" lon="9.1784">
        <ele>1366.6</ele>
        <time>2015-06-22T05:54:17Z</time>
      </trkpt>
      <trkpt lat="42.02714" lon="9.17829">
        <ele>1367.8</ele>
        <time>2015-06-22T05:54:29Z</time>
      </trkpt>
      <trkpt lat="42.02715" lon="9.17816">
        <ele>1368.6</ele>
        <time>2015-06-22T05:54:41Z</time>
      </trkpt>
      <trkpt lat="42.02713" lon="9.17804">
        <ele>1369.4</ele>
        <time>2015-06-22T05:54:49Z</time>
      </trkpt>
      <trkpt lat="42.02714" lon="9.17798">
        <ele>1370.4</ele>
        <time>2015-06-22T05:54:56Z</time>
      </trkpt>
      <trkpt lat="42.02716" lon="9.17792">
        <ele>1371.2</ele>
        <time>2015-06-22T05:55:04Z</time>
      </trkpt>
      <trkpt lat="42.02719" lon="9.17787">
        <ele>1372.4</ele>
        <time>2015-06-22T05:55:11Z</time>
      </trkpt>
      <trkpt lat="42.02718" lon="9.1778">
        <ele>1373.2</ele>
        <time>2015-06-22T05:55:17Z</time>
      </trkpt>
      <trkpt lat="42.02718" lon="9.17777">
        <ele>1373.8</ele>
        <time>2015-06-22T05:55:20Z</time>
      </trkpt>
      <trkpt lat="42.02719" lon="9.17766">
        <ele>1375</ele>
        <time>2015-06-22T05:55:30Z</time>
      </trkpt>
      <trkpt lat="42.0272" lon="9.17735">
        <ele>1376.4</ele>
        <time>2015-06-22T05:55:57Z</time>
      </trkpt>
      <trkpt lat="42.02725" lon="9.17693">
        <ele>1377</ele>
        <time>2015-06-22T05:56:29Z</time>
      </trkpt>
      <trkpt lat="42.02729" lon="9.17679">
        <ele>1377.8</ele>
        <time>2015-06-22T05:56:40Z</time>
      </trkpt>
      <trkpt lat="42.02731" lon="9.17668">
        <ele>1378.8</ele>
        <time>2015-06-22T05:56:50Z</time>
      </trkpt>
      <trkpt lat="42.02731" lon="9.17659">
        <ele>1379.8</ele>
        <time>2015-06-22T05:57:00Z</time>
      </trkpt>
      <trkpt lat="42.02732" lon="9.17654">
        <ele>1380.6</ele>
        <time>2015-06-22T05:57:07Z</time>
      </trkpt>
      <trkpt lat="42.02733" lon="9.17643">
        <ele>1381.8</ele>
        <time>2015-06-22T05:57:17Z</time>
      </trkpt>
      <trkpt lat="42.02735" lon="9.17629">
        <ele>1383.4</ele>
        <time>2015-06-22T05:57:30Z</time>
      </trkpt>
      <trkpt lat="42.02737" lon="9.17627">
        <ele>1383.4</ele>
        <time>2015-06-22T05:57:32Z</time>
      </trkpt>
      <trkpt lat="42.0274" lon="9.17612">
        <ele>1384.4</ele>
        <time>2015-06-22T05:57:47Z</time>
      </trkpt>
      <trkpt lat="42.0274" lon="9.17596">
        <ele>1385.8</ele>
        <time>2015-06-22T05:58:05Z</time>
      </trkpt>
      <trkpt lat="42.02739" lon="9.17587">
        <ele>1386.2</ele>
        <time>2015-06-22T05:58:15Z</time>
      </trkpt>
      <trkpt lat="42.0274" lon="9.17577">
        <ele>1387</ele>
        <time>2015-06-22T05:58:23Z</time>
      </trkpt>
      <trkpt lat="42.0274" lon="9.17576">
        <ele>1387.2</ele>
        <time>2015-06-22T05:58:24Z</time>
      </trkpt>
      <trkpt lat="42.0274" lon="9.17575">
        <ele>1387.2</ele>
        <time>2015-06-22T05:58:25Z</time>
      </trkpt>
      <trkpt lat="42.02741" lon="9.17568">
        <ele>1388.2</ele>
        <time>2015-06-22T05:58:33Z</time>
      </trkpt>
      <trkpt lat="42.02742" lon="9.17561">
        <ele>1389</ele>
        <time>2015-06-22T05:58:39Z</time>
      </trkpt>
      <trkpt lat="42.02739" lon="9.17555">
        <ele>1390.4</ele>
        <time>2015-06-22T05:58:48Z</time>
      </trkpt>
      <trkpt lat="42.02742" lon="9.17545">
        <ele>1391.2</ele>
        <time>2015-06-22T05:59:01Z</time>
      </trkpt>
      <trkpt lat="42.02743" lon="9.17533">
        <ele>1392.8</ele>
        <time>2015-06-22T05:59:13Z</time>
      </trkpt>
      <trkpt lat="42.02746" lon="9.17527">
        <ele>1393.4</ele>
        <time>2015-06-22T05:59:20Z</time>
      </trkpt>
      <trkpt lat="42.02748" lon="9.17521">
        <ele>1394.4</ele>
        <time>2015-06-22T05:59:27Z</time>
      </trkpt>
      <trkpt lat="42.02751" lon="9.17511">
        <ele>1395.6</ele>
        <time>2015-06-22T05:59:38Z</time>
      </trkpt>
      <trkpt lat="42.02752" lon="9.17509">
        <ele>1395.6</ele>
        <time>2015-06-22T05:59:40Z</time>
      </trkpt>
      <trkpt lat="42.02753" lon="9.17506">
        <ele>1396.2</ele>
        <time>2015-06-22T05:59:43Z</time>
      </trkpt>
      <trkpt lat="42.02753" lon="9.17503">
        <ele>1396.6</ele>
        <time>2015-06-22T05:59:46Z</time>
      </trkpt>
      <trkpt lat="42.02752" lon="9.17499">
        <ele>1397.6</ele>
        <time>2015-06-22T05:59:53Z</time>
      </trkpt>
      <trkpt lat="42.02756" lon="9.17492">
        <ele>1399</ele>
        <time>2015-06-22T06:00:05Z</time>
      </trkpt>
      <trkpt lat="42.02757" lon="9.17483">
        <ele>1399.6</ele>
        <time>2015-06-22T06:00:13Z</time>
      </trkpt>
      <trkpt lat="42.02759" lon="9.17472">
        <ele>1401.2</ele>
        <time>2015-06-22T06:00:22Z</time>
      </trkpt>
      <trkpt lat="42.02761" lon="9.17464">
        <ele>1402.2</ele>
        <time>2015-06-22T06:00:32Z</time>
      </trkpt>
      <trkpt lat="42.0276" lon="9.17452">
        <ele>1403.2</ele>
        <time>2015-06-22T06:00:45Z</time>
      </trkpt>
      <trkpt lat="42.02763" lon="9.17443">
        <ele>1404.2</ele>
        <time>2015-06-22T06:00:57Z</time>
      </trkpt>
      <trkpt lat="42.02764" lon="9.17428">
        <ele>1405.6</ele>
        <time>2015-06-22T06:01:13Z</time>
      </trkpt>
      <trkpt lat="42.02763" lon="9.17421">
        <ele>1406.4</ele>
        <time>2015-06-22T06:01:21Z</time>
      </trkpt>
      <trkpt lat="42.02766" lon="9.17407">
        <ele>1407.4</ele>
        <time>2015-06-22T06:01:35Z</time>
      </trkpt>
      <trkpt lat="42.02769" lon="9.17398">
        <ele>1408.4</ele>
        <time>2015-06-22T06:01:44Z</time>
      </trkpt>
      <trkpt lat="42.02769" lon="9.17392">
        <ele>1409</ele>
        <time>2015-06-22T06:01:49Z</time>
      </trkpt>
      <trkpt lat="42.02768" lon="9.1738">
        <ele>1410.8</ele>
        <time>2015-06-22T06:02:01Z</time>
      </trkpt>
      <trkpt lat="42.02758" lon="9.17349">
        <ele>1412.4</ele>
        <time>2015-06-22T06:02:28Z</time>
      </trkpt>
      <trkpt lat="42.02753" lon="9.17334">
        <ele>1412.8</ele>
        <time>2015-06-22T06:02:42Z</time>
      </trkpt>
      <trkpt lat="42.02746" lon="9.17318">
        <ele>1413.8</ele>
        <time>2015-06-22T06:02:58Z</time>
      </trkpt>
      <trkpt lat="42.02746" lon="9.1731">
        <ele>1415</ele>
        <time>2015-06-22T06:03:06Z</time>
      </trkpt>
      <trkpt lat="42.02746" lon="9.17303">
        <ele>1415.6</ele>
        <time>2015-06-22T06:03:12Z</time>
      </trkpt>
      <trkpt lat="42.02745" lon="9.17297">
        <ele>1416.6</ele>
        <time>2015-06-22T06:03:18Z</time>
      </trkpt>
      <trkpt lat="42.02744" lon="9.1728">
        <ele>1418.4</ele>
        <time>2015-06-22T06:03:37Z</time>
      </trkpt>
      <trkpt lat="42.0274" lon="9.17272">
        <ele>1419.2</ele>
        <time>2015-06-22T06:03:47Z</time>
      </trkpt>
      <trkpt lat="42.02739" lon="9.17263">
        <ele>1419.6</ele>
        <time>2015-06-22T06:03:55Z</time>
      </trkpt>
      <trkpt lat="42.02738" lon="9.1725">
        <ele>1420.4</ele>
        <time>2015-06-22T06:04:08Z</time>
      </trkpt>
      <trkpt lat="42.02736" lon="9.17244">
        <ele>1420.6</ele>
        <time>2015-06-22T06:04:11Z</time>
      </trkpt>
      <trkpt lat="42.02735" lon="9.1724">
        <ele>1420.8</ele>
        <time>2015-06-22T06:04:14Z</time>
      </trkpt>
      <trkpt lat="42.0273" lon="9.17218">
        <ele>1421.6</ele>
        <time>2015-06-22T06:04:33Z</time>
      </trkpt>
      <trkpt lat="42.0273" lon="9.17217">
        <ele>1421.6</ele>
        <time>2015-06-22T06:04:34Z</time>
      </trkpt>
      <trkpt lat="42.0273" lon="9.17205">
        <ele>1422.6</ele>
        <time>2015-06-22T06:04:47Z</time>
      </trkpt>
      <trkpt lat="42.02729" lon="9.17201">
        <ele>1422.8</ele>
        <time>2015-06-22T06:04:51Z</time>
      </trkpt>
      <trkpt lat="42.02728" lon="9.17195">
        <ele>1423.4</ele>
        <time>2015-06-22T06:04:57Z</time>
      </trkpt>
      <trkpt lat="42.02727" lon="9.17187">
        <ele>1424.4</ele>
        <time>2015-06-22T06:05:06Z</time>
      </trkpt>
      <trkpt lat="42.02723" lon="9.17177">
        <ele>1425.6</ele>
        <time>2015-06-22T06:05:17Z</time>
      </trkpt>
      <trkpt lat="42.02713" lon="9.17157">
        <ele>1426.4</ele>
        <time>2015-06-22T06:05:38Z</time>
      </trkpt>
      <trkpt lat="42.0271" lon="9.17144">
        <ele>1426.8</ele>
        <time>2015-06-22T06:05:50Z</time>
      </trkpt>
      <trkpt lat="42.02705" lon="9.17126">
        <ele>1427.8</ele>
        <time>2015-06-22T06:06:09Z</time>
      </trkpt>
      <trkpt lat="42.0272" lon="9.1709">
        <ele>1428.8</ele>
        <time>2015-06-22T06:06:43Z</time>
      </trkpt>
      <trkpt lat="42.02732" lon="9.17056">
        <ele>1428</ele>
        <time>2015-06-22T06:07:20Z</time>
      </trkpt>
      <trkpt lat="42.02731" lon="9.17029">
        <ele>1427.2</ele>
        <time>2015-06-22T06:08:09Z</time>
      </trkpt>
      <trkpt lat="42.02725" lon="9.17001">
        <ele>1426.2</ele>
        <time>2015-06-22T06:08:34Z</time>
      </trkpt>
      <trkpt lat="42.02721" lon="9.1698">
        <ele>1425</ele>
        <time>2015-06-22T06:08:51Z</time>
      </trkpt>
      <trkpt lat="42.0272" lon="9.16977">
        <ele>1425</ele>
        <time>2015-06-22T06:08:54Z</time>
      </trkpt>
      <trkpt lat="42.02719" lon="9.1697">
        <ele>1424.8</ele>
        <time>2015-06-22T06:09:00Z</time>
      </trkpt>
      <trkpt lat="42.02715" lon="9.16953">
        <ele>1425</ele>
        <time>2015-06-22T06:09:12Z</time>
      </trkpt>
      <trkpt lat="42.0272" lon="9.16905">
        <ele>1424</ele>
        <time>2015-06-22T06:09:41Z</time>
      </trkpt>
      <trkpt lat="42.02721" lon="9.16898">
        <ele>1424</ele>
        <time>2015-06-22T06:09:45Z</time>
      </trkpt>
      <trkpt lat="42.02715" lon="9.16862">
        <ele>1423.2</ele>
        <time>2015-06-22T06:10:17Z</time>
      </trkpt>
      <trkpt lat="42.02718" lon="9.16855">
        <ele>1423</ele>
        <time>2015-06-22T06:10:23Z</time>
      </trkpt>
      <trkpt lat="42.02718" lon="9.16847">
        <ele>1422.8</ele>
        <time>2015-06-22T06:10:29Z</time>
      </trkpt>
      <trkpt lat="42.02716" lon="9.16837">
        <ele>1422.4</ele>
        <time>2015-06-22T06:10:37Z</time>
      </trkpt>
      <trkpt lat="42.02714" lon="9.16829">
        <ele>1421.8</ele>
        <time>2015-06-22T06:10:45Z</time>
      </trkpt>
      <trkpt lat="42.02708" lon="9.16811">
        <ele>1420.2</ele>
        <time>2015-06-22T06:11:02Z</time>
      </trkpt>
      <trkpt lat="42.0271" lon="9.16807">
        <ele>1420</ele>
        <time>2015-06-22T06:11:06Z</time>
      </trkpt>
      <trkpt lat="42.0272" lon="9.16783">
        <ele>1419.2</ele>
        <time>2015-06-22T06:11:23Z</time>
      </trkpt>
      <trkpt lat="42.02725" lon="9.16774">
        <ele>1418.4</ele>
        <time>2015-06-22T06:11:31Z</time>
      </trkpt>
      <trkpt lat="42.02726" lon="9.16763">
        <ele>1417.2</ele>
        <time>2015-06-22T06:11:42Z</time>
      </trkpt>
      <trkpt lat="42.02727" lon="9.16756">
        <ele>1416.6</ele>
        <time>2015-06-22T06:11:49Z</time>
      </trkpt>
      <trkpt lat="42.02726" lon="9.1675">
        <ele>1416</ele>
        <time>2015-06-22T06:11:55Z</time>
      </trkpt>
      <trkpt lat="42.02729" lon="9.16737">
        <ele>1414.2</ele>
        <time>2015-06-22T06:12:05Z</time>
      </trkpt>
      <trkpt lat="42.02729" lon="9.16726">
        <ele>1413.4</ele>
        <time>2015-06-22T06:12:15Z</time>
      </trkpt>
      <trkpt lat="42.02728" lon="9.16707">
        <ele>1412.4</ele>
        <time>2015-06-22T06:12:28Z</time>
      </trkpt>
      <trkpt lat="42.02728" lon="9.16698">
        <ele>1411.6</ele>
        <time>2015-06-22T06:12:36Z</time>
      </trkpt>
      <trkpt lat="42.02727" lon="9.16694">
        <ele>1411.4</ele>
        <time>2015-06-22T06:12:39Z</time>
      </trkpt>
      <trkpt lat="42.02726" lon="9.1669">
        <ele>1411</ele>
        <time>2015-06-22T06:12:43Z</time>
      </trkpt>
      <trkpt lat="42.02727" lon="9.16686">
        <ele>1410.6</ele>
        <time>2015-06-22T06:12:46Z</time>
      </trkpt>
      <trkpt lat="42.02726" lon="9.16682">
        <ele>1410</ele>
        <time>2015-06-22T06:12:50Z</time>
      </trkpt>
      <trkpt lat="42.02726" lon="9.16679">
        <ele>1409.8</ele>
        <time>2015-06-22T06:12:52Z</time>
      </trkpt>
      <trkpt lat="42.02726" lon="9.16678">
        <ele>1409.6</ele>
        <time>2015-06-22T06:12:53Z</time>
      </trkpt>
      <trkpt lat="42.02727" lon="9.16672">
        <ele>1408.4</ele>
        <time>2015-06-22T06:12:59Z</time>
      </trkpt>
      <trkpt lat="42.02728" lon="9.16666">
        <ele>1407.8</ele>
        <time>2015-06-22T06:13:04Z</time>
      </trkpt>
      <trkpt lat="42.02728" lon="9.16661">
        <ele>1407.2</ele>
        <time>2015-06-22T06:13:08Z</time>
      </trkpt>
      <trkpt lat="42.02727" lon="9.16652">
        <ele>1406.4</ele>
        <time>2015-06-22T06:13:15Z</time>
      </trkpt>
      <trkpt lat="42.02727" lon="9.16651">
        <ele>1406.4</ele>
        <time>2015-06-22T06:13:16Z</time>
      </trkpt>
      <trkpt lat="42.02727" lon="9.16647">
        <ele>1406</ele>
        <time>2015-06-22T06:13:19Z</time>
      </trkpt>
      <trkpt lat="42.02727" lon="9.16641">
        <ele>1405.6</ele>
        <time>2015-06-22T06:13:23Z</time>
      </trkpt>
      <trkpt lat="42.02725" lon="9.1663">
        <ele>1404</ele>
        <time>2015-06-22T06:13:33Z</time>
      </trkpt>
      <trkpt lat="42.02724" lon="9.16627">
        <ele>1403.6</ele>
        <time>2015-06-22T06:13:36Z</time>
      </trkpt>
      <trkpt lat="42.02725" lon="9.16611">
        <ele>1403</ele>
        <time>2015-06-22T06:13:48Z</time>
      </trkpt>
      <trkpt lat="42.02721" lon="9.16586">
        <ele>1401.8</ele>
        <time>2015-06-22T06:14:10Z</time>
      </trkpt>
      <trkpt lat="42.02723" lon="9.16567">
        <ele>1401.4</ele>
        <time>2015-06-22T06:14:25Z</time>
      </trkpt>
      <trkpt lat="42.0272" lon="9.16548">
        <ele>1401</ele>
        <time>2015-06-22T06:14:41Z</time>
      </trkpt>
      <trkpt lat="42.02714" lon="9.16524">
        <ele>1400.4</ele>
        <time>2015-06-22T06:15:02Z</time>
      </trkpt>
      <trkpt lat="42.02714" lon="9.16513">
        <ele>1400</ele>
        <time>2015-06-22T06:15:12Z</time>
      </trkpt>
      <trkpt lat="42.02713" lon="9.16504">
        <ele>1399.4</ele>
        <time>2015-06-22T06:15:20Z</time>
      </trkpt>
      <trkpt lat="42.02713" lon="9.16502">
        <ele>1399.2</ele>
        <time>2015-06-22T06:15:23Z</time>
      </trkpt>
      <trkpt lat="42.02718" lon="9.16474">
        <ele>1398.2</ele>
        <time>2015-06-22T06:15:45Z</time>
      </trkpt>
      <trkpt lat="42.0272" lon="9.16465">
        <ele>1397.4</ele>
        <time>2015-06-22T06:15:52Z</time>
      </trkpt>
      <trkpt lat="42.02721" lon="9.16458">
        <ele>1396.4</ele>
        <time>2015-06-22T06:15:59Z</time>
      </trkpt>
      <trkpt lat="42.02722" lon="9.16451">
        <ele>1395.4</ele>
        <time>2015-06-22T06:16:05Z</time>
      </trkpt>
      <trkpt lat="42.02722" lon="9.16445">
        <ele>1394.6</ele>
        <time>2015-06-22T06:16:10Z</time>
      </trkpt>
      <trkpt lat="42.02721" lon="9.16439">
        <ele>1393.4</ele>
        <time>2015-06-22T06:16:15Z</time>
      </trkpt>
      <trkpt lat="42.02722" lon="9.16432">
        <ele>1392.2</ele>
        <time>2015-06-22T06:16:21Z</time>
      </trkpt>
      <trkpt lat="42.02722" lon="9.16424">
        <ele>1391</ele>
        <time>2015-06-22T06:16:28Z</time>
      </trkpt>
      <trkpt lat="42.02721" lon="9.16412">
        <ele>1389.6</ele>
        <time>2015-06-22T06:16:39Z</time>
      </trkpt>
      <trkpt lat="42.02719" lon="9.16407">
        <ele>1389.2</ele>
        <time>2015-06-22T06:16:44Z</time>
      </trkpt>
      <trkpt lat="42.0272" lon="9.16406">
        <ele>1389</ele>
        <time>2015-06-22T06:16:46Z</time>
      </trkpt>
      <trkpt lat="42.02718" lon="9.16401">
        <ele>1388.8</ele>
        <time>2015-06-22T06:16:51Z</time>
      </trkpt>
      <trkpt lat="42.02717" lon="9.16398">
        <ele>1388.8</ele>
        <time>2015-06-22T06:16:53Z</time>
      </trkpt>
      <trkpt lat="42.02714" lon="9.16396">
        <ele>1388.4</ele>
        <time>2015-06-22T06:16:55Z</time>
      </trkpt>
      <trkpt lat="42.0271" lon="9.16385">
        <ele>1387.2</ele>
        <time>2015-06-22T06:17:05Z</time>
      </trkpt>
      <trkpt lat="42.02709" lon="9.16384">
        <ele>1387</ele>
        <time>2015-06-22T06:17:08Z</time>
      </trkpt>
      <trkpt lat="42.02718" lon="9.16372">
        <ele>1387.2</ele>
        <time>2015-06-22T06:17:48Z</time>
      </trkpt>
      <trkpt lat="42.02737" lon="9.16364">
        <ele>1386.4</ele>
        <time>2015-06-22T06:18:05Z</time>
      </trkpt>
      <trkpt lat="42.02743" lon="9.16347">
        <ele>1385.4</ele>
        <time>2015-06-22T06:18:27Z</time>
      </trkpt>
      <trkpt lat="42.02747" lon="9.16334">
        <ele>1384.8</ele>
        <time>2015-06-22T06:18:58Z</time>
      </trkpt>
      <trkpt lat="42.02749" lon="9.16325">
        <ele>1384.2</ele>
        <time>2015-06-22T06:19:04Z</time>
      </trkpt>
      <trkpt lat="42.02744" lon="9.16266">
        <ele>1384.2</ele>
        <time>2015-06-22T06:19:44Z</time>
      </trkpt>
      <trkpt lat="42.0274" lon="9.16227">
        <ele>1385.2</ele>
        <time>2015-06-22T06:20:09Z</time>
      </trkpt>
      <trkpt lat="42.02735" lon="9.16211">
        <ele>1386</ele>
        <time>2015-06-22T06:20:30Z</time>
      </trkpt>
      <trkpt lat="42.02733" lon="9.16208">
        <ele>1386.2</ele>
        <time>2015-06-22T06:20:36Z</time>
      </trkpt>
      <trkpt lat="42.0273" lon="9.16196">
        <ele>1387.6</ele>
        <time>2015-06-22T06:20:49Z</time>
      </trkpt>
      <trkpt lat="42.0273" lon="9.16181">
        <ele>1388.6</ele>
        <time>2015-06-22T06:21:07Z</time>
      </trkpt>
      <trkpt lat="42.02729" lon="9.16173">
        <ele>1389.4</ele>
        <time>2015-06-22T06:21:15Z</time>
      </trkpt>
      <trkpt lat="42.02726" lon="9.16168">
        <ele>1389.8</ele>
        <time>2015-06-22T06:21:19Z</time>
      </trkpt>
      <trkpt lat="42.02725" lon="9.16162">
        <ele>1390.6</ele>
        <time>2015-06-22T06:21:25Z</time>
      </trkpt>
      <trkpt lat="42.02726" lon="9.1615">
        <ele>1392</ele>
        <time>2015-06-22T06:21:42Z</time>
      </trkpt>
      <trkpt lat="42.02725" lon="9.16144">
        <ele>1393</ele>
        <time>2015-06-22T06:21:50Z</time>
      </trkpt>
      <trkpt lat="42.02722" lon="9.16141">
        <ele>1393.8</ele>
        <time>2015-06-22T06:21:58Z</time>
      </trkpt>
      <trkpt lat="42.02717" lon="9.16136">
        <ele>1395.2</ele>
        <time>2015-06-22T06:22:08Z</time>
      </trkpt>
      <trkpt lat="42.02715" lon="9.16132">
        <ele>1396</ele>
        <time>2015-06-22T06:22:14Z</time>
      </trkpt>
      <trkpt lat="42.02709" lon="9.16126">
        <ele>1397.4</ele>
        <time>2015-06-22T06:22:24Z</time>
      </trkpt>
      <trkpt lat="42.02704" lon="9.16113">
        <ele>1398</ele>
        <time>2015-06-22T06:22:41Z</time>
      </trkpt>
      <trkpt lat="42.02699" lon="9.16103">
        <ele>1396.6</ele>
        <time>2015-06-22T06:22:51Z</time>
      </trkpt>
      <trkpt lat="42.02693" lon="9.16096">
        <ele>1395.8</ele>
        <time>2015-06-22T06:23:01Z</time>
      </trkpt>
      <trkpt lat="42.0269" lon="9.16093">
        <ele>1395.6</ele>
        <time>2015-06-22T06:23:14Z</time>
      </trkpt>
      <trkpt lat="42.02675" lon="9.16054">
        <ele>1395.6</ele>
        <time>2015-06-22T06:24:10Z</time>
      </trkpt>
      <trkpt lat="42.02675" lon="9.16051">
        <ele>1396</ele>
        <time>2015-06-22T06:24:36Z</time>
      </trkpt>
      <trkpt lat="42.02671" lon="9.16045">
        <ele>1397</ele>
        <time>2015-06-22T06:25:02Z</time>
      </trkpt>
      <trkpt lat="42.0266" lon="9.16043">
        <ele>1397.4</ele>
        <time>2015-06-22T06:25:14Z</time>
      </trkpt>
      <trkpt lat="42.0266" lon="9.16045">
        <ele>1397.6</ele>
        <time>2015-06-22T06:25:17Z</time>
      </trkpt>
      <trkpt lat="42.0266" lon="9.16045">
        <ele>1398.8</ele>
        <time>2015-06-22T06:25:26Z</time>
      </trkpt>
      <trkpt lat="42.02658" lon="9.16043">
        <ele>1399.8</ele>
        <time>2015-06-22T06:25:35Z</time>
      </trkpt>
      <trkpt lat="42.02654" lon="9.16034">
        <ele>1401.2</ele>
        <time>2015-06-22T06:25:45Z</time>
      </trkpt>
      <trkpt lat="42.02651" lon="9.1603">
        <ele>1402</ele>
        <time>2015-06-22T06:25:53Z</time>
      </trkpt>
      <trkpt lat="42.02651" lon="9.16027">
        <ele>1402.6</ele>
        <time>2015-06-22T06:25:57Z</time>
      </trkpt>
      <trkpt lat="42.02651" lon="9.16025">
        <ele>1402.8</ele>
        <time>2015-06-22T06:25:59Z</time>
      </trkpt>
      <trkpt lat="42.02645" lon="9.16011">
        <ele>1404.8</ele>
        <time>2015-06-22T06:26:17Z</time>
      </trkpt>
      <trkpt lat="42.02648" lon="9.15998">
        <ele>1405.6</ele>
        <time>2015-06-22T06:26:31Z</time>
      </trkpt>
      <trkpt lat="42.02655" lon="9.15982">
        <ele>1405.8</ele>
        <time>2015-06-22T06:26:53Z</time>
      </trkpt>
      <trkpt lat="42.02658" lon="9.15979">
        <ele>1405</ele>
        <time>2015-06-22T06:26:58Z</time>
      </trkpt>
      <trkpt lat="42.02679" lon="9.15972">
        <ele>1402.8</ele>
        <time>2015-06-22T06:28:19Z</time>
      </trkpt>
      <trkpt lat="42.0268" lon="9.15972">
        <ele>1402.8</ele>
        <time>2015-06-22T06:28:20Z</time>
      </trkpt>
      <trkpt lat="42.02689" lon="9.15969">
        <ele>1402.6</ele>
        <time>2015-06-22T06:29:06Z</time>
      </trkpt>
      <trkpt lat="42.02691" lon="9.15973">
        <ele>1403.6</ele>
        <time>2015-06-22T06:29:13Z</time>
      </trkpt>
      <trkpt lat="42.02691" lon="9.15977">
        <ele>1405</ele>
        <time>2015-06-22T06:29:21Z</time>
      </trkpt>
      <trkpt lat="42.02692" lon="9.15978">
        <ele>1406.2</ele>
        <time>2015-06-22T06:29:29Z</time>
      </trkpt>
      <trkpt lat="42.02695" lon="9.15982">
        <ele>1407.4</ele>
        <time>2015-06-22T06:29:42Z</time>
      </trkpt>
      <trkpt lat="42.02699" lon="9.15983">
        <ele>1408.2</ele>
        <time>2015-06-22T06:29:51Z</time>
      </trkpt>
      <trkpt lat="42.027" lon="9.15979">
        <ele>1409.2</ele>
        <time>2015-06-22T06:29:58Z</time>
      </trkpt>
      <trkpt lat="42.02702" lon="9.15972">
        <ele>1410.6</ele>
        <time>2015-06-22T06:30:08Z</time>
      </trkpt>
      <trkpt lat="42.02707" lon="9.15965">
        <ele>1411.8</ele>
        <time>2015-06-22T06:30:22Z</time>
      </trkpt>
      <trkpt lat="42.02711" lon="9.15956">
        <ele>1413</ele>
        <time>2015-06-22T06:30:36Z</time>
      </trkpt>
      <trkpt lat="42.02715" lon="9.1595">
        <ele>1413.8</ele>
        <time>2015-06-22T06:30:48Z</time>
      </trkpt>
      <trkpt lat="42.0272" lon="9.15948">
        <ele>1414.8</ele>
        <time>2015-06-22T06:30:58Z</time>
      </trkpt>
      <trkpt lat="42.02726" lon="9.15946">
        <ele>1416</ele>
        <time>2015-06-22T06:31:08Z</time>
      </trkpt>
      <trkpt lat="42.02734" lon="9.15942">
        <ele>1417.4</ele>
        <time>2015-06-22T06:31:21Z</time>
      </trkpt>
      <trkpt lat="42.0274" lon="9.15942">
        <ele>1418</ele>
        <time>2015-06-22T06:31:30Z</time>
      </trkpt>
      <trkpt lat="42.02744" lon="9.15941">
        <ele>1419.4</ele>
        <time>2015-06-22T06:31:42Z</time>
      </trkpt>
      <trkpt lat="42.02747" lon="9.15938">
        <ele>1420.4</ele>
        <time>2015-06-22T06:31:52Z</time>
      </trkpt>
      <trkpt lat="42.02751" lon="9.15934">
        <ele>1421.4</ele>
        <time>2015-06-22T06:32:00Z</time>
      </trkpt>
      <trkpt lat="42.02773" lon="9.15935">
        <ele>1422.8</ele>
        <time>2015-06-22T06:32:31Z</time>
      </trkpt>
      <trkpt lat="42.02786" lon="9.15945">
        <ele>1423.4</ele>
        <time>2015-06-22T06:32:50Z</time>
      </trkpt>
      <trkpt lat="42.02809" lon="9.15985">
        <ele>1423.2</ele>
        <time>2015-06-22T06:33:47Z</time>
      </trkpt>
      <trkpt lat="42.0281" lon="9.15992">
        <ele>1422.6</ele>
        <time>2015-06-22T06:33:57Z</time>
      </trkpt>
      <trkpt lat="42.02812" lon="9.15995">
        <ele>1422</ele>
        <time>2015-06-22T06:34:02Z</time>
      </trkpt>
      <trkpt lat="42.02815" lon="9.16001">
        <ele>1420.4</ele>
        <time>2015-06-22T06:34:10Z</time>
      </trkpt>
      <trkpt lat="42.02815" lon="9.16021">
        <ele>1419.8</ele>
        <time>2015-06-22T06:34:47Z</time>
      </trkpt>
      <trkpt lat="42.02814" lon="9.16029">
        <ele>1419.2</ele>
        <time>2015-06-22T06:35:05Z</time>
      </trkpt>
      <trkpt lat="42.02812" lon="9.1603">
        <ele>1418.8</ele>
        <time>2015-06-22T06:35:20Z</time>
      </trkpt>
      <trkpt lat="42.02817" lon="9.16041">
        <ele>1418</ele>
        <time>2015-06-22T06:35:46Z</time>
      </trkpt>
      <trkpt lat="42.02822" lon="9.16052">
        <ele>1417</ele>
        <time>2015-06-22T06:36:03Z</time>
      </trkpt>
      <trkpt lat="42.02826" lon="9.16057">
        <ele>1415.8</ele>
        <time>2015-06-22T06:36:11Z</time>
      </trkpt>
      <trkpt lat="42.02831" lon="9.16061">
        <ele>1415</ele>
        <time>2015-06-22T06:36:18Z</time>
      </trkpt>
      <trkpt lat="42.02835" lon="9.16067">
        <ele>1414.2</ele>
        <time>2015-06-22T06:36:29Z</time>
      </trkpt>
      <trkpt lat="42.02836" lon="9.1607">
        <ele>1414</ele>
        <time>2015-06-22T06:36:33Z</time>
      </trkpt>
      <trkpt lat="42.02839" lon="9.16073">
        <ele>1413.2</ele>
        <time>2015-06-22T06:36:38Z</time>
      </trkpt>
      <trkpt lat="42.02842" lon="9.16081">
        <ele>1411.8</ele>
        <time>2015-06-22T06:36:44Z</time>
      </trkpt>
      <trkpt lat="42.02843" lon="9.16083">
        <ele>1411.4</ele>
        <time>2015-06-22T06:36:46Z</time>
      </trkpt>
      <trkpt lat="42.02844" lon="9.16087">
        <ele>1410.6</ele>
        <time>2015-06-22T06:36:49Z</time>
      </trkpt>
      <trkpt lat="42.02848" lon="9.16103">
        <ele>1408.8</ele>
        <time>2015-06-22T06:37:17Z</time>
      </trkpt>
      <trkpt lat="42.02849" lon="9.16109">
        <ele>1407.6</ele>
        <time>2015-06-22T06:37:25Z</time>
      </trkpt>
      <trkpt lat="42.02851" lon="9.1612">
        <ele>1406.8</ele>
        <time>2015-06-22T06:37:34Z</time>
      </trkpt>
      <trkpt lat="42.02856" lon="9.16133">
        <ele>1405.2</ele>
        <time>2015-06-22T06:37:46Z</time>
      </trkpt>
      <trkpt lat="42.02858" lon="9.16141">
        <ele>1404.6</ele>
        <time>2015-06-22T06:37:54Z</time>
      </trkpt>
      <trkpt lat="42.02859" lon="9.16148">
        <ele>1403.6</ele>
        <time>2015-06-22T06:38:01Z</time>
      </trkpt>
      <trkpt lat="42.02859" lon="9.16156">
        <ele>1402.4</ele>
        <time>2015-06-22T06:38:08Z</time>
      </trkpt>
      <trkpt lat="42.02862" lon="9.16168">
        <ele>1400.8</ele>
        <time>2015-06-22T06:38:18Z</time>
      </trkpt>
      <trkpt lat="42.02869" lon="9.16177">
        <ele>1399.8</ele>
        <time>2015-06-22T06:38:28Z</time>
      </trkpt>
      <trkpt lat="42.02874" lon="9.16186">
        <ele>1398.6</ele>
        <time>2015-06-22T06:38:36Z</time>
      </trkpt>
      <trkpt lat="42.0288" lon="9.16191">
        <ele>1397.8</ele>
        <time>2015-06-22T06:38:42Z</time>
      </trkpt>
      <trkpt lat="42.02886" lon="9.16196">
        <ele>1397.8</ele>
        <time>2015-06-22T06:38:54Z</time>
      </trkpt>
      <trkpt lat="42.02892" lon="9.16202">
        <ele>1399.4</ele>
        <time>2015-06-22T06:39:04Z</time>
      </trkpt>
      <trkpt lat="42.02897" lon="9.16209">
        <ele>1400.4</ele>
        <time>2015-06-22T06:39:14Z</time>
      </trkpt>
      <trkpt lat="42.02901" lon="9.1621">
        <ele>1401.2</ele>
        <time>2015-06-22T06:39:23Z</time>
      </trkpt>
      <trkpt lat="42.02904" lon="9.16213">
        <ele>1402.2</ele>
        <time>2015-06-22T06:39:31Z</time>
      </trkpt>
      <trkpt lat="42.02907" lon="9.16216">
        <ele>1403.2</ele>
        <time>2015-06-22T06:39:40Z</time>
      </trkpt>
      <trkpt lat="42.02907" lon="9.16217">
        <ele>1403.4</ele>
        <time>2015-06-22T06:39:41Z</time>
      </trkpt>
      <trkpt lat="42.02911" lon="9.16232">
        <ele>1404.6</ele>
        <time>2015-06-22T06:39:57Z</time>
      </trkpt>
      <trkpt lat="42.02913" lon="9.1624">
        <ele>1405.4</ele>
        <time>2015-06-22T06:40:07Z</time>
      </trkpt>
      <trkpt lat="42.02921" lon="9.16252">
        <ele>1406.8</ele>
        <time>2015-06-22T06:40:21Z</time>
      </trkpt>
      <trkpt lat="42.02925" lon="9.16267">
        <ele>1407.6</ele>
        <time>2015-06-22T06:40:35Z</time>
      </trkpt>
      <trkpt lat="42.02928" lon="9.16279">
        <ele>1409</ele>
        <time>2015-06-22T06:40:47Z</time>
      </trkpt>
      <trkpt lat="42.0293" lon="9.16289">
        <ele>1409.6</ele>
        <time>2015-06-22T06:40:58Z</time>
      </trkpt>
      <trkpt lat="42.02935" lon="9.16297">
        <ele>1410.8</ele>
        <time>2015-06-22T06:41:06Z</time>
      </trkpt>
      <trkpt lat="42.02946" lon="9.16308">
        <ele>1412</ele>
        <time>2015-06-22T06:41:21Z</time>
      </trkpt>
      <trkpt lat="42.02963" lon="9.16326">
        <ele>1413.2</ele>
        <time>2015-06-22T06:41:49Z</time>
      </trkpt>
      <trkpt lat="42.02972" lon="9.1633">
        <ele>1414.4</ele>
        <time>2015-06-22T06:42:01Z</time>
      </trkpt>
      <trkpt lat="42.02978" lon="9.16331">
        <ele>1415.4</ele>
        <time>2015-06-22T06:42:11Z</time>
      </trkpt>
      <trkpt lat="42.02986" lon="9.16338">
        <ele>1416.4</ele>
        <time>2015-06-22T06:42:22Z</time>
      </trkpt>
      <trkpt lat="42.02987" lon="9.1634">
        <ele>1416.6</ele>
        <time>2015-06-22T06:42:25Z</time>
      </trkpt>
      <trkpt lat="42.02982" lon="9.16349">
        <ele>1417.2</ele>
        <time>2015-06-22T06:42:35Z</time>
      </trkpt>
      <trkpt lat="42.02971" lon="9.16363">
        <ele>1417.6</ele>
        <time>2015-06-22T06:42:48Z</time>
      </trkpt>
      <trkpt lat="42.0297" lon="9.16381">
        <ele>1418.6</ele>
        <time>2015-06-22T06:43:04Z</time>
      </trkpt>
      <trkpt lat="42.02972" lon="9.16393">
        <ele>1419.6</ele>
        <time>2015-06-22T06:43:13Z</time>
      </trkpt>
      <trkpt lat="42.02973" lon="9.16406">
        <ele>1420.8</ele>
        <time>2015-06-22T06:43:29Z</time>
      </trkpt>
      <trkpt lat="42.02975" lon="9.16418">
        <ele>1422</ele>
        <time>2015-06-22T06:43:42Z</time>
      </trkpt>
      <trkpt lat="42.02976" lon="9.16422">
        <ele>1422.4</ele>
        <time>2015-06-22T06:43:45Z</time>
      </trkpt>
      <trkpt lat="42.02977" lon="9.16426">
        <ele>1422.6</ele>
        <time>2015-06-22T06:43:49Z</time>
      </trkpt>
      <trkpt lat="42.0298" lon="9.1644">
        <ele>1423.8</ele>
        <time>2015-06-22T06:43:59Z</time>
      </trkpt>
      <trkpt lat="42.02981" lon="9.1645">
        <ele>1425.2</ele>
        <time>2015-06-22T06:44:09Z</time>
      </trkpt>
      <trkpt lat="42.02982" lon="9.16456">
        <ele>1425.8</ele>
        <time>2015-06-22T06:44:15Z</time>
      </trkpt>
      <trkpt lat="42.02982" lon="9.16473">
        <ele>1427.4</ele>
        <time>2015-06-22T06:44:30Z</time>
      </trkpt>
      <trkpt lat="42.02984" lon="9.16481">
        <ele>1428</ele>
        <time>2015-06-22T06:44:39Z</time>
      </trkpt>
      <trkpt lat="42.02985" lon="9.16482">
        <ele>1428.2</ele>
        <time>2015-06-22T06:44:41Z</time>
      </trkpt>
      <trkpt lat="42.02987" lon="9.16487">
        <ele>1429.4</ele>
        <time>2015-06-22T06:44:49Z</time>
      </trkpt>
      <trkpt lat="42.02992" lon="9.16499">
        <ele>1431</ele>
        <time>2015-06-22T06:45:02Z</time>
      </trkpt>
      <trkpt lat="42.02993" lon="9.16508">
        <ele>1431.2</ele>
        <time>2015-06-22T06:45:11Z</time>
      </trkpt>
      <trkpt lat="42.02993" lon="9.1651">
        <ele>1431.8</ele>
        <time>2015-06-22T06:45:14Z</time>
      </trkpt>
      <trkpt lat="42.02993" lon="9.16516">
        <ele>1432.6</ele>
        <time>2015-06-22T06:45:21Z</time>
      </trkpt>
      <trkpt lat="42.02996" lon="9.16524">
        <ele>1433.4</ele>
        <time>2015-06-22T06:45:30Z</time>
      </trkpt>
      <trkpt lat="42.02999" lon="9.16532">
        <ele>1434.8</ele>
        <time>2015-06-22T06:45:40Z</time>
      </trkpt>
      <trkpt lat="42.03003" lon="9.16542">
        <ele>1436</ele>
        <time>2015-06-22T06:45:54Z</time>
      </trkpt>
      <trkpt lat="42.03004" lon="9.16547">
        <ele>1436.6</ele>
        <time>2015-06-22T06:46:01Z</time>
      </trkpt>
      <trkpt lat="42.03007" lon="9.16557">
        <ele>1438</ele>
        <time>2015-06-22T06:46:13Z</time>
      </trkpt>
      <trkpt lat="42.03009" lon="9.16567">
        <ele>1439.2</ele>
        <time>2015-06-22T06:46:24Z</time>
      </trkpt>
      <trkpt lat="42.0301" lon="9.16577">
        <ele>1440</ele>
        <time>2015-06-22T06:46:33Z</time>
      </trkpt>
      <trkpt lat="42.03014" lon="9.16589">
        <ele>1441.4</ele>
        <time>2015-06-22T06:46:48Z</time>
      </trkpt>
      <trkpt lat="42.03019" lon="9.16595">
        <ele>1442.2</ele>
        <time>2015-06-22T06:46:59Z</time>
      </trkpt>
      <trkpt lat="42.03024" lon="9.16601">
        <ele>1443</ele>
        <time>2015-06-22T06:47:07Z</time>
      </trkpt>
      <trkpt lat="42.03025" lon="9.16602">
        <ele>1443.2</ele>
        <time>2015-06-22T06:47:09Z</time>
      </trkpt>
      <trkpt lat="42.03027" lon="9.16604">
        <ele>1443.4</ele>
        <time>2015-06-22T06:47:12Z</time>
      </trkpt>
      <trkpt lat="42.0303" lon="9.16605">
        <ele>1443.2</ele>
        <time>2015-06-22T06:47:14Z</time>
      </trkpt>
      <trkpt lat="42.03033" lon="9.16606">
        <ele>1443.8</ele>
        <time>2015-06-22T06:47:18Z</time>
      </trkpt>
      <trkpt lat="42.03036" lon="9.16612">
        <ele>1445</ele>
        <time>2015-06-22T06:47:27Z</time>
      </trkpt>
      <trkpt lat="42.03037" lon="9.16619">
        <ele>1446</ele>
        <time>2015-06-22T06:47:40Z</time>
      </trkpt>
      <trkpt lat="42.03037" lon="9.16627">
        <ele>1447.2</ele>
        <time>2015-06-22T06:47:48Z</time>
      </trkpt>
      <trkpt lat="42.03039" lon="9.16631">
        <ele>1447.6</ele>
        <time>2015-06-22T06:47:53Z</time>
      </trkpt>
      <trkpt lat="42.0304" lon="9.16636">
        <ele>1448.2</ele>
        <time>2015-06-22T06:47:57Z</time>
      </trkpt>
      <trkpt lat="42.03044" lon="9.16645">
        <ele>1449.4</ele>
        <time>2015-06-22T06:48:07Z</time>
      </trkpt>
      <trkpt lat="42.03046" lon="9.16652">
        <ele>1449.8</ele>
        <time>2015-06-22T06:48:14Z</time>
      </trkpt>
      <trkpt lat="42.03047" lon="9.16653">
        <ele>1450.2</ele>
        <time>2015-06-22T06:48:16Z</time>
      </trkpt>
      <trkpt lat="42.03048" lon="9.16655">
        <ele>1450.4</ele>
        <time>2015-06-22T06:48:19Z</time>
      </trkpt>
      <trkpt lat="42.03048" lon="9.1666">
        <ele>1451.2</ele>
        <time>2015-06-22T06:49:02Z</time>
      </trkpt>
      <trkpt lat="42.03048" lon="9.16659">
        <ele>1451.8</ele>
        <time>2015-06-22T06:49:30Z</time>
      </trkpt>
      <trkpt lat="42.03047" lon="9.1665">
        <ele>1453.2</ele>
        <time>2015-06-22T06:49:42Z</time>
      </trkpt>
      <trkpt lat="42.03042" lon="9.16636">
        <ele>1454</ele>
        <time>2015-06-22T06:50:05Z</time>
      </trkpt>
      <trkpt lat="42.03046" lon="9.16624">
        <ele>1455</ele>
        <time>2015-06-22T06:50:26Z</time>
      </trkpt>
      <trkpt lat="42.03048" lon="9.16617">
        <ele>1455.8</ele>
        <time>2015-06-22T06:50:35Z</time>
      </trkpt>
      <trkpt lat="42.03046" lon="9.16611">
        <ele>1456.8</ele>
        <time>2015-06-22T06:50:42Z</time>
      </trkpt>
      <trkpt lat="42.03043" lon="9.16603">
        <ele>1457.8</ele>
        <time>2015-06-22T06:50:53Z</time>
      </trkpt>
      <trkpt lat="42.03042" lon="9.166">
        <ele>1458.8</ele>
        <time>2015-06-22T06:50:59Z</time>
      </trkpt>
      <trkpt lat="42.03039" lon="9.16587">
        <ele>1460.4</ele>
        <time>2015-06-22T06:51:13Z</time>
      </trkpt>
      <trkpt lat="42.03041" lon="9.16579">
        <ele>1461.4</ele>
        <time>2015-06-22T06:51:21Z</time>
      </trkpt>
      <trkpt lat="42.03046" lon="9.16574">
        <ele>1462.2</ele>
        <time>2015-06-22T06:51:32Z</time>
      </trkpt>
      <trkpt lat="42.03047" lon="9.16568">
        <ele>1463.4</ele>
        <time>2015-06-22T06:51:38Z</time>
      </trkpt>
      <trkpt lat="42.03046" lon="9.16565">
        <ele>1463.4</ele>
        <time>2015-06-22T06:51:40Z</time>
      </trkpt>
      <trkpt lat="42.03048" lon="9.16552">
        <ele>1464.6</ele>
        <time>2015-06-22T06:51:53Z</time>
      </trkpt>
      <trkpt lat="42.03048" lon="9.16548">
        <ele>1465</ele>
        <time>2015-06-22T06:51:57Z</time>
      </trkpt>
      <trkpt lat="42.03046" lon="9.16543">
        <ele>1466</ele>
        <time>2015-06-22T06:52:02Z</time>
      </trkpt>
      <trkpt lat="42.03041" lon="9.16529">
        <ele>1468.2</ele>
        <time>2015-06-22T06:52:17Z</time>
      </trkpt>
      <trkpt lat="42.03038" lon="9.16522">
        <ele>1468.8</ele>
        <time>2015-06-22T06:52:25Z</time>
      </trkpt>
      <trkpt lat="42.03043" lon="9.16512">
        <ele>1469.8</ele>
        <time>2015-06-22T06:52:39Z</time>
      </trkpt>
      <trkpt lat="42.03045" lon="9.16508">
        <ele>1470.8</ele>
        <time>2015-06-22T06:52:46Z</time>
      </trkpt>
      <trkpt lat="42.03046" lon="9.165">
        <ele>1472.2</ele>
        <time>2015-06-22T06:52:55Z</time>
      </trkpt>
      <trkpt lat="42.03046" lon="9.16494">
        <ele>1473.4</ele>
        <time>2015-06-22T06:53:03Z</time>
      </trkpt>
      <trkpt lat="42.03045" lon="9.16487">
        <ele>1474</ele>
        <time>2015-06-22T06:53:11Z</time>
      </trkpt>
      <trkpt lat="42.03045" lon="9.1648">
        <ele>1475.4</ele>
        <time>2015-06-22T06:53:22Z</time>
      </trkpt>
      <trkpt lat="42.03046" lon="9.16474">
        <ele>1476.4</ele>
        <time>2015-06-22T06:53:32Z</time>
      </trkpt>
      <trkpt lat="42.03048" lon="9.1647">
        <ele>1477.4</ele>
        <time>2015-06-22T06:53:40Z</time>
      </trkpt>
      <trkpt lat="42.03049" lon="9.16466">
        <ele>1478.4</ele>
        <time>2015-06-22T06:53:47Z</time>
      </trkpt>
      <trkpt lat="42.03052" lon="9.16464">
        <ele>1479.2</ele>
        <time>2015-06-22T06:53:54Z</time>
      </trkpt>
      <trkpt lat="42.03056" lon="9.16458">
        <ele>1480.4</ele>
        <time>2015-06-22T06:54:04Z</time>
      </trkpt>
      <trkpt lat="42.03058" lon="9.16454">
        <ele>1481.4</ele>
        <time>2015-06-22T06:54:13Z</time>
      </trkpt>
      <trkpt lat="42.03059" lon="9.16449">
        <ele>1482.4</ele>
        <time>2015-06-22T06:54:20Z</time>
      </trkpt>
      <trkpt lat="42.0306" lon="9.16445">
        <ele>1483.6</ele>
        <time>2015-06-22T06:54:30Z</time>
      </trkpt>
      <trkpt lat="42.0306" lon="9.16439">
        <ele>1484.4</ele>
        <time>2015-06-22T06:54:39Z</time>
      </trkpt>
      <trkpt lat="42.03063" lon="9.16438">
        <ele>1485.6</ele>
        <time>2015-06-22T06:54:49Z</time>
      </trkpt>
      <trkpt lat="42.03065" lon="9.16442">
        <ele>1486.6</ele>
        <time>2015-06-22T06:54:57Z</time>
      </trkpt>
      <trkpt lat="42.03067" lon="9.1645">
        <ele>1487.6</ele>
        <time>2015-06-22T06:55:07Z</time>
      </trkpt>
      <trkpt lat="42.03068" lon="9.16457">
        <ele>1488.8</ele>
        <time>2015-06-22T06:55:16Z</time>
      </trkpt>
      <trkpt lat="42.03069" lon="9.16469">
        <ele>1490</ele>
        <time>2015-06-22T06:55:32Z</time>
      </trkpt>
      <trkpt lat="42.03071" lon="9.16475">
        <ele>1490.8</ele>
        <time>2015-06-22T06:55:40Z</time>
      </trkpt>
      <trkpt lat="42.03073" lon="9.16487">
        <ele>1492</ele>
        <time>2015-06-22T06:55:55Z</time>
      </trkpt>
      <trkpt lat="42.03077" lon="9.16495">
        <ele>1492.8</ele>
        <time>2015-06-22T06:56:07Z</time>
      </trkpt>
      <trkpt lat="42.03078" lon="9.165">
        <ele>1493.2</ele>
        <time>2015-06-22T06:56:13Z</time>
      </trkpt>
      <trkpt lat="42.03081" lon="9.16503">
        <ele>1494.6</ele>
        <time>2015-06-22T06:56:20Z</time>
      </trkpt>
      <trkpt lat="42.03085" lon="9.16514">
        <ele>1496.2</ele>
        <time>2015-06-22T06:56:40Z</time>
      </trkpt>
      <trkpt lat="42.03088" lon="9.1652">
        <ele>1496.6</ele>
        <time>2015-06-22T06:56:48Z</time>
      </trkpt>
      <trkpt lat="42.03091" lon="9.16522">
        <ele>1497</ele>
        <time>2015-06-22T06:56:52Z</time>
      </trkpt>
      <trkpt lat="42.03092" lon="9.16524">
        <ele>1497.2</ele>
        <time>2015-06-22T06:56:55Z</time>
      </trkpt>
      <trkpt lat="42.03094" lon="9.16529">
        <ele>1498.2</ele>
        <time>2015-06-22T06:57:00Z</time>
      </trkpt>
      <trkpt lat="42.03096" lon="9.16536">
        <ele>1499.8</ele>
        <time>2015-06-22T06:57:09Z</time>
      </trkpt>
      <trkpt lat="42.03099" lon="9.16544">
        <ele>1500.6</ele>
        <time>2015-06-22T06:57:19Z</time>
      </trkpt>
      <trkpt lat="42.03104" lon="9.1655">
        <ele>1501.8</ele>
        <time>2015-06-22T06:57:28Z</time>
      </trkpt>
      <trkpt lat="42.03108" lon="9.16558">
        <ele>1502.8</ele>
        <time>2015-06-22T06:57:37Z</time>
      </trkpt>
      <trkpt lat="42.03109" lon="9.16559">
        <ele>1503</ele>
        <time>2015-06-22T06:57:39Z</time>
      </trkpt>
      <trkpt lat="42.03114" lon="9.16563">
        <ele>1503.6</ele>
        <time>2015-06-22T06:57:45Z</time>
      </trkpt>
      <trkpt lat="42.03114" lon="9.16564">
        <ele>1503.6</ele>
        <time>2015-06-22T06:57:46Z</time>
      </trkpt>
      <trkpt lat="42.03119" lon="9.16568">
        <ele>1504.8</ele>
        <time>2015-06-22T06:57:56Z</time>
      </trkpt>
      <trkpt lat="42.03123" lon="9.16571">
        <ele>1505.6</ele>
        <time>2015-06-22T06:58:02Z</time>
      </trkpt>
      <trkpt lat="42.03125" lon="9.16575">
        <ele>1506.2</ele>
        <time>2015-06-22T06:58:06Z</time>
      </trkpt>
      <trkpt lat="42.03133" lon="9.1659">
        <ele>1507</ele>
        <time>2015-06-22T06:58:23Z</time>
      </trkpt>
      <trkpt lat="42.03136" lon="9.16594">
        <ele>1507.4</ele>
        <time>2015-06-22T06:58:29Z</time>
      </trkpt>
      <trkpt lat="42.03137" lon="9.16601">
        <ele>1508.6</ele>
        <time>2015-06-22T06:58:37Z</time>
      </trkpt>
      <trkpt lat="42.03138" lon="9.16604">
        <ele>1509.2</ele>
        <time>2015-06-22T06:58:40Z</time>
      </trkpt>
      <trkpt lat="42.03141" lon="9.16609">
        <ele>1509.8</ele>
        <time>2015-06-22T06:58:46Z</time>
      </trkpt>
      <trkpt lat="42.0314" lon="9.16617">
        <ele>1511</ele>
        <time>2015-06-22T06:58:55Z</time>
      </trkpt>
      <trkpt lat="42.03143" lon="9.16629">
        <ele>1512</ele>
        <time>2015-06-22T06:59:08Z</time>
      </trkpt>
      <trkpt lat="42.03149" lon="9.1663">
        <ele>1513</ele>
        <time>2015-06-22T06:59:20Z</time>
      </trkpt>
      <trkpt lat="42.03151" lon="9.16627">
        <ele>1513.8</ele>
        <time>2015-06-22T06:59:27Z</time>
      </trkpt>
      <trkpt lat="42.03149" lon="9.16622">
        <ele>1515.2</ele>
        <time>2015-06-22T06:59:35Z</time>
      </trkpt>
      <trkpt lat="42.03149" lon="9.16617">
        <ele>1516.4</ele>
        <time>2015-06-22T06:59:46Z</time>
      </trkpt>
      <trkpt lat="42.03149" lon="9.16609">
        <ele>1517</ele>
        <time>2015-06-22T06:59:54Z</time>
      </trkpt>
      <trkpt lat="42.03147" lon="9.16601">
        <ele>1518.2</ele>
        <time>2015-06-22T07:00:04Z</time>
      </trkpt>
      <trkpt lat="42.03145" lon="9.16594">
        <ele>1519.2</ele>
        <time>2015-06-22T07:00:14Z</time>
      </trkpt>
      <trkpt lat="42.03143" lon="9.16589">
        <ele>1520.4</ele>
        <time>2015-06-22T07:00:22Z</time>
      </trkpt>
      <trkpt lat="42.03144" lon="9.1658">
        <ele>1521.2</ele>
        <time>2015-06-22T07:00:32Z</time>
      </trkpt>
      <trkpt lat="42.03144" lon="9.16571">
        <ele>1522.4</ele>
        <time>2015-06-22T07:00:41Z</time>
      </trkpt>
      <trkpt lat="42.03143" lon="9.16562">
        <ele>1523.6</ele>
        <time>2015-06-22T07:00:51Z</time>
      </trkpt>
      <trkpt lat="42.03143" lon="9.16552">
        <ele>1524.8</ele>
        <time>2015-06-22T07:01:03Z</time>
      </trkpt>
      <trkpt lat="42.03143" lon="9.16542">
        <ele>1525.6</ele>
        <time>2015-06-22T07:01:20Z</time>
      </trkpt>
      <trkpt lat="42.03144" lon="9.16538">
        <ele>1526.4</ele>
        <time>2015-06-22T07:01:28Z</time>
      </trkpt>
      <trkpt lat="42.03142" lon="9.16531">
        <ele>1528.2</ele>
        <time>2015-06-22T07:01:39Z</time>
      </trkpt>
      <trkpt lat="42.03142" lon="9.16519">
        <ele>1529</ele>
        <time>2015-06-22T07:01:51Z</time>
      </trkpt>
      <trkpt lat="42.03142" lon="9.16514">
        <ele>1529.6</ele>
        <time>2015-06-22T07:01:59Z</time>
      </trkpt>
      <trkpt lat="42.03143" lon="9.16506">
        <ele>1530.8</ele>
        <time>2015-06-22T07:02:10Z</time>
      </trkpt>
      <trkpt lat="42.03148" lon="9.16501">
        <ele>1531.6</ele>
        <time>2015-06-22T07:02:20Z</time>
      </trkpt>
      <trkpt lat="42.0315" lon="9.16508">
        <ele>1532.8</ele>
        <time>2015-06-22T07:02:29Z</time>
      </trkpt>
      <trkpt lat="42.03152" lon="9.16518">
        <ele>1533.8</ele>
        <time>2015-06-22T07:02:39Z</time>
      </trkpt>
      <trkpt lat="42.03155" lon="9.16527">
        <ele>1534.8</ele>
        <time>2015-06-22T07:02:49Z</time>
      </trkpt>
      <trkpt lat="42.03159" lon="9.16535">
        <ele>1535.6</ele>
        <time>2015-06-22T07:02:59Z</time>
      </trkpt>
      <trkpt lat="42.03163" lon="9.16541">
        <ele>1536.8</ele>
        <time>2015-06-22T07:03:07Z</time>
      </trkpt>
      <trkpt lat="42.03165" lon="9.1655">
        <ele>1538</ele>
        <time>2015-06-22T07:03:19Z</time>
      </trkpt>
      <trkpt lat="42.03168" lon="9.1656">
        <ele>1539.2</ele>
        <time>2015-06-22T07:03:32Z</time>
      </trkpt>
      <trkpt lat="42.0317" lon="9.16569">
        <ele>1540</ele>
        <time>2015-06-22T07:03:48Z</time>
      </trkpt>
      <trkpt lat="42.03173" lon="9.16577">
        <ele>1540.8</ele>
        <time>2015-06-22T07:03:59Z</time>
      </trkpt>
      <trkpt lat="42.03179" lon="9.16581">
        <ele>1541.8</ele>
        <time>2015-06-22T07:04:09Z</time>
      </trkpt>
      <trkpt lat="42.03186" lon="9.1658">
        <ele>1542.8</ele>
        <time>2015-06-22T07:04:22Z</time>
      </trkpt>
      <trkpt lat="42.03192" lon="9.16579">
        <ele>1544.2</ele>
        <time>2015-06-22T07:04:33Z</time>
      </trkpt>
      <trkpt lat="42.03199" lon="9.16578">
        <ele>1544.6</ele>
        <time>2015-06-22T07:04:43Z</time>
      </trkpt>
      <trkpt lat="42.03207" lon="9.16576">
        <ele>1545.8</ele>
        <time>2015-06-22T07:05:01Z</time>
      </trkpt>
      <trkpt lat="42.03213" lon="9.16576">
        <ele>1547</ele>
        <time>2015-06-22T07:05:12Z</time>
      </trkpt>
      <trkpt lat="42.03225" lon="9.16586">
        <ele>1548</ele>
        <time>2015-06-22T07:05:30Z</time>
      </trkpt>
      <trkpt lat="42.03232" lon="9.16595">
        <ele>1549</ele>
        <time>2015-06-22T07:05:44Z</time>
      </trkpt>
      <trkpt lat="42.03239" lon="9.16602">
        <ele>1550</ele>
        <time>2015-06-22T07:05:55Z</time>
      </trkpt>
      <trkpt lat="42.03244" lon="9.16608">
        <ele>1550.8</ele>
        <time>2015-06-22T07:06:06Z</time>
      </trkpt>
      <trkpt lat="42.03246" lon="9.1661">
        <ele>1552.2</ele>
        <time>2015-06-22T07:06:36Z</time>
      </trkpt>
      <trkpt lat="42.03247" lon="9.16606">
        <ele>1552.8</ele>
        <time>2015-06-22T07:06:46Z</time>
      </trkpt>
      <trkpt lat="42.03247" lon="9.16606">
        <ele>1552.8</ele>
        <time>2015-06-22T07:06:49Z</time>
      </trkpt>
      <trkpt lat="42.03247" lon="9.16605">
        <ele>1553</ele>
        <time>2015-06-22T07:06:54Z</time>
      </trkpt>
      <trkpt lat="42.03247" lon="9.16605">
        <ele>1553</ele>
        <time>2015-06-22T07:06:55Z</time>
      </trkpt>
      <trkpt lat="42.03245" lon="9.16608">
        <ele>1553.6</ele>
        <time>2015-06-22T07:07:55Z</time>
      </trkpt>
      <trkpt lat="42.03244" lon="9.16605">
        <ele>1553.2</ele>
        <time>2015-06-22T07:11:46Z</time>
      </trkpt>
      <trkpt lat="42.03245" lon="9.16604">
        <ele>1553.2</ele>
        <time>2015-06-22T07:12:23Z</time>
      </trkpt>
      <trkpt lat="42.03245" lon="9.16605">
        <ele>1553.2</ele>
        <time>2015-06-22T07:13:12Z</time>
      </trkpt>
      <trkpt lat="42.03246" lon="9.16605">
        <ele>1552.6</ele>
        <time>2015-06-22T07:13:22Z</time>
      </trkpt>
      <trkpt lat="42.03245" lon="9.16604">
        <ele>1553.2</ele>
        <time>2015-06-22T07:14:32Z</time>
      </trkpt>
      <trkpt lat="42.03245" lon="9.16605">
        <ele>1553.2</ele>
        <time>2015-06-22T07:14:35Z</time>
      </trkpt>
      <trkpt lat="42.03244" lon="9.16604">
        <ele>1553.4</ele>
        <time>2015-06-22T07:15:23Z</time>
      </trkpt>
      <trkpt lat="42.03245" lon="9.16603">
        <ele>1553.2</ele>
        <time>2015-06-22T07:16:36Z</time>
      </trkpt>
      <trkpt lat="42.03246" lon="9.16603">
        <ele>1553.4</ele>
        <time>2015-06-22T07:17:22Z</time>
      </trkpt>
      <trkpt lat="42.03246" lon="9.16602">
        <ele>1553.2</ele>
        <time>2015-06-22T07:18:13Z</time>
      </trkpt>
      <trkpt lat="42.03246" lon="9.16603">
        <ele>1553.4</ele>
        <time>2015-06-22T07:19:27Z</time>
      </trkpt>
      <trkpt lat="42.03246" lon="9.16604">
        <ele>1553.2</ele>
        <time>2015-06-22T07:20:37Z</time>
      </trkpt>
      <trkpt lat="42.03247" lon="9.16605">
        <ele>1553.8</ele>
        <time>2015-06-22T07:22:30Z</time>
      </trkpt>
      <trkpt lat="42.03246" lon="9.16604">
        <ele>1553.6</ele>
        <time>2015-06-22T07:25:09Z</time>
      </trkpt>
      <trkpt lat="42.03245" lon="9.16604">
        <ele>1554</ele>
        <time>2015-06-22T07:28:04Z</time>
      </trkpt>
      <trkpt lat="42.03247" lon="9.16604">
        <ele>1554.2</ele>
        <time>2015-06-22T07:29:00Z</time>
      </trkpt>
      <trkpt lat="42.03249" lon="9.16609">
        <ele>1553</ele>
        <time>2015-06-22T07:30:20Z</time>
      </trkpt>
      <trkpt lat="42.03256" lon="9.16609">
        <ele>1552.8</ele>
        <time>2015-06-22T07:30:32Z</time>
      </trkpt>
      <trkpt lat="42.03265" lon="9.16609">
        <ele>1553.2</ele>
        <time>2015-06-22T07:30:49Z</time>
      </trkpt>
      <trkpt lat="42.03273" lon="9.16606">
        <ele>1554.2</ele>
        <time>2015-06-22T07:31:03Z</time>
      </trkpt>
      <trkpt lat="42.03276" lon="9.16601">
        <ele>1555</ele>
        <time>2015-06-22T07:31:11Z</time>
      </trkpt>
      <trkpt lat="42.03291" lon="9.16595">
        <ele>1556.6</ele>
        <time>2015-06-22T07:31:30Z</time>
      </trkpt>
      <trkpt lat="42.03301" lon="9.16579">
        <ele>1557.2</ele>
        <time>2015-06-22T07:31:46Z</time>
      </trkpt>
      <trkpt lat="42.03305" lon="9.16576">
        <ele>1557.4</ele>
        <time>2015-06-22T07:31:50Z</time>
      </trkpt>
      <trkpt lat="42.03306" lon="9.16574">
        <ele>1557.6</ele>
        <time>2015-06-22T07:31:52Z</time>
      </trkpt>
      <trkpt lat="42.03313" lon="9.16562">
        <ele>1558.2</ele>
        <time>2015-06-22T07:32:02Z</time>
      </trkpt>
      <trkpt lat="42.03328" lon="9.16567">
        <ele>1558.2</ele>
        <time>2015-06-22T07:32:23Z</time>
      </trkpt>
      <trkpt lat="42.03333" lon="9.16589">
        <ele>1557.8</ele>
        <time>2015-06-22T07:32:42Z</time>
      </trkpt>
      <trkpt lat="42.03335" lon="9.16594">
        <ele>1557.8</ele>
        <time>2015-06-22T07:32:47Z</time>
      </trkpt>
      <trkpt lat="42.03336" lon="9.16599">
        <ele>1558.2</ele>
        <time>2015-06-22T07:32:51Z</time>
      </trkpt>
      <trkpt lat="42.03336" lon="9.16603">
        <ele>1558.8</ele>
        <time>2015-06-22T07:32:54Z</time>
      </trkpt>
      <trkpt lat="42.03337" lon="9.16616">
        <ele>1560.2</ele>
        <time>2015-06-22T07:33:04Z</time>
      </trkpt>
      <trkpt lat="42.03338" lon="9.16617">
        <ele>1560.2</ele>
        <time>2015-06-22T07:33:05Z</time>
      </trkpt>
      <trkpt lat="42.03343" lon="9.16626">
        <ele>1561</ele>
        <time>2015-06-22T07:33:14Z</time>
      </trkpt>
      <trkpt lat="42.0335" lon="9.16639">
        <ele>1562</ele>
        <time>2015-06-22T07:33:26Z</time>
      </trkpt>
      <trkpt lat="42.03354" lon="9.16649">
        <ele>1563.2</ele>
        <time>2015-06-22T07:33:36Z</time>
      </trkpt>
      <trkpt lat="42.03359" lon="9.16661">
        <ele>1564.4</ele>
        <time>2015-06-22T07:33:49Z</time>
      </trkpt>
      <trkpt lat="42.03367" lon="9.16675">
        <ele>1565.2</ele>
        <time>2015-06-22T07:34:04Z</time>
      </trkpt>
      <trkpt lat="42.03377" lon="9.16691">
        <ele>1566.2</ele>
        <time>2015-06-22T07:34:22Z</time>
      </trkpt>
      <trkpt lat="42.03382" lon="9.16701">
        <ele>1567</ele>
        <time>2015-06-22T07:34:34Z</time>
      </trkpt>
      <trkpt lat="42.03386" lon="9.16709">
        <ele>1567.8</ele>
        <time>2015-06-22T07:34:42Z</time>
      </trkpt>
      <trkpt lat="42.03393" lon="9.16721">
        <ele>1569.2</ele>
        <time>2015-06-22T07:34:56Z</time>
      </trkpt>
      <trkpt lat="42.03395" lon="9.16726">
        <ele>1569.4</ele>
        <time>2015-06-22T07:35:00Z</time>
      </trkpt>
      <trkpt lat="42.03404" lon="9.1674">
        <ele>1570.4</ele>
        <time>2015-06-22T07:35:15Z</time>
      </trkpt>
      <trkpt lat="42.03409" lon="9.16756">
        <ele>1571</ele>
        <time>2015-06-22T07:35:33Z</time>
      </trkpt>
      <trkpt lat="42.03414" lon="9.16763">
        <ele>1571.6</ele>
        <time>2015-06-22T07:35:42Z</time>
      </trkpt>
      <trkpt lat="42.03422" lon="9.16775">
        <ele>1572.8</ele>
        <time>2015-06-22T07:35:54Z</time>
      </trkpt>
      <trkpt lat="42.03428" lon="9.16783">
        <ele>1573.8</ele>
        <time>2015-06-22T07:36:04Z</time>
      </trkpt>
      <trkpt lat="42.03429" lon="9.16784">
        <ele>1574</ele>
        <time>2015-06-22T07:36:05Z</time>
      </trkpt>
      <trkpt lat="42.03434" lon="9.16791">
        <ele>1575</ele>
        <time>2015-06-22T07:36:15Z</time>
      </trkpt>
      <trkpt lat="42.03442" lon="9.16798">
        <ele>1576</ele>
        <time>2015-06-22T07:36:26Z</time>
      </trkpt>
      <trkpt lat="42.03451" lon="9.16807">
        <ele>1577.4</ele>
        <time>2015-06-22T07:36:40Z</time>
      </trkpt>
      <trkpt lat="42.0347" lon="9.1682">
        <ele>1578.4</ele>
        <time>2015-06-22T07:37:04Z</time>
      </trkpt>
      <trkpt lat="42.0349" lon="9.16819">
        <ele>1578.8</ele>
        <time>2015-06-22T07:37:23Z</time>
      </trkpt>
      <trkpt lat="42.0349" lon="9.16835">
        <ele>1578.6</ele>
        <time>2015-06-22T07:37:35Z</time>
      </trkpt>
      <trkpt lat="42.03491" lon="9.16852">
        <ele>1579</ele>
        <time>2015-06-22T07:37:47Z</time>
      </trkpt>
      <trkpt lat="42.03491" lon="9.16853">
        <ele>1579</ele>
        <time>2015-06-22T07:37:48Z</time>
      </trkpt>
      <trkpt lat="42.03499" lon="9.16871">
        <ele>1579.8</ele>
        <time>2015-06-22T07:38:05Z</time>
      </trkpt>
      <trkpt lat="42.03529" lon="9.16894">
        <ele>1581</ele>
        <time>2015-06-22T07:38:38Z</time>
      </trkpt>
      <trkpt lat="42.03534" lon="9.16897">
        <ele>1581.2</ele>
        <time>2015-06-22T07:38:44Z</time>
      </trkpt>
      <trkpt lat="42.03563" lon="9.16911">
        <ele>1581</ele>
        <time>2015-06-22T07:39:12Z</time>
      </trkpt>
      <trkpt lat="42.03565" lon="9.16913">
        <ele>1580.6</ele>
        <time>2015-06-22T07:39:14Z</time>
      </trkpt>
      <trkpt lat="42.03569" lon="9.16916">
        <ele>1580.2</ele>
        <time>2015-06-22T07:39:19Z</time>
      </trkpt>
      <trkpt lat="42.03572" lon="9.16919">
        <ele>1580.2</ele>
        <time>2015-06-22T07:39:23Z</time>
      </trkpt>
      <trkpt lat="42.03585" lon="9.16925">
        <ele>1579.4</ele>
        <time>2015-06-22T07:39:34Z</time>
      </trkpt>
      <trkpt lat="42.03596" lon="9.16936">
        <ele>1578.4</ele>
        <time>2015-06-22T07:39:48Z</time>
      </trkpt>
      <trkpt lat="42.03605" lon="9.16939">
        <ele>1578.2</ele>
        <time>2015-06-22T07:40:03Z</time>
      </trkpt>
      <trkpt lat="42.03617" lon="9.16947">
        <ele>1577.8</ele>
        <time>2015-06-22T07:40:14Z</time>
      </trkpt>
      <trkpt lat="42.03619" lon="9.1695">
        <ele>1577.8</ele>
        <time>2015-06-22T07:40:17Z</time>
      </trkpt>
      <trkpt lat="42.03624" lon="9.16952">
        <ele>1577.6</ele>
        <time>2015-06-22T07:40:23Z</time>
      </trkpt>
      <trkpt lat="42.0367" lon="9.16965">
        <ele>1578.6</ele>
        <time>2015-06-22T07:41:06Z</time>
      </trkpt>
      <trkpt lat="42.03686" lon="9.16986">
        <ele>1578</ele>
        <time>2015-06-22T07:41:33Z</time>
      </trkpt>
      <trkpt lat="42.03688" lon="9.16988">
        <ele>1578</ele>
        <time>2015-06-22T07:41:36Z</time>
      </trkpt>
      <trkpt lat="42.03691" lon="9.16992">
        <ele>1578</ele>
        <time>2015-06-22T07:41:40Z</time>
      </trkpt>
      <trkpt lat="42.03708" lon="9.17004">
        <ele>1578.4</ele>
        <time>2015-06-22T07:42:00Z</time>
      </trkpt>
      <trkpt lat="42.03718" lon="9.17007">
        <ele>1578.4</ele>
        <time>2015-06-22T07:42:10Z</time>
      </trkpt>
      <trkpt lat="42.03756" lon="9.17015">
        <ele>1577.8</ele>
        <time>2015-06-22T07:42:42Z</time>
      </trkpt>
      <trkpt lat="42.03771" lon="9.17054">
        <ele>1576.8</ele>
        <time>2015-06-22T07:43:15Z</time>
      </trkpt>
      <trkpt lat="42.03773" lon="9.17066">
        <ele>1575.6</ele>
        <time>2015-06-22T07:43:25Z</time>
      </trkpt>
      <trkpt lat="42.03784" lon="9.17097">
        <ele>1574.4</ele>
        <time>2015-06-22T07:43:52Z</time>
      </trkpt>
      <trkpt lat="42.0379" lon="9.17112">
        <ele>1573.6</ele>
        <time>2015-06-22T07:44:05Z</time>
      </trkpt>
      <trkpt lat="42.03795" lon="9.17123">
        <ele>1572.6</ele>
        <time>2015-06-22T07:44:14Z</time>
      </trkpt>
      <trkpt lat="42.03797" lon="9.17144">
        <ele>1571.2</ele>
        <time>2015-06-22T07:44:28Z</time>
      </trkpt>
      <trkpt lat="42.03798" lon="9.17149">
        <ele>1570.8</ele>
        <time>2015-06-22T07:44:33Z</time>
      </trkpt>
      <trkpt lat="42.038" lon="9.17152">
        <ele>1570.6</ele>
        <time>2015-06-22T07:44:35Z</time>
      </trkpt>
      <trkpt lat="42.03802" lon="9.17156">
        <ele>1570.4</ele>
        <time>2015-06-22T07:44:37Z</time>
      </trkpt>
      <trkpt lat="42.0381" lon="9.17164">
        <ele>1569.6</ele>
        <time>2015-06-22T07:44:45Z</time>
      </trkpt>
      <trkpt lat="42.03814" lon="9.17169">
        <ele>1568.6</ele>
        <time>2015-06-22T07:44:51Z</time>
      </trkpt>
      <trkpt lat="42.03816" lon="9.17171">
        <ele>1568.4</ele>
        <time>2015-06-22T07:44:53Z</time>
      </trkpt>
      <trkpt lat="42.0382" lon="9.17177">
        <ele>1567.8</ele>
        <time>2015-06-22T07:44:58Z</time>
      </trkpt>
      <trkpt lat="42.03827" lon="9.1718">
        <ele>1566.6</ele>
        <time>2015-06-22T07:45:04Z</time>
      </trkpt>
      <trkpt lat="42.03844" lon="9.17195">
        <ele>1565.8</ele>
        <time>2015-06-22T07:45:26Z</time>
      </trkpt>
      <trkpt lat="42.03846" lon="9.17197">
        <ele>1565.6</ele>
        <time>2015-06-22T07:45:29Z</time>
      </trkpt>
      <trkpt lat="42.03849" lon="9.17198">
        <ele>1565.6</ele>
        <time>2015-06-22T07:45:32Z</time>
      </trkpt>
      <trkpt lat="42.03852" lon="9.17202">
        <ele>1565.2</ele>
        <time>2015-06-22T07:45:36Z</time>
      </trkpt>
      <trkpt lat="42.03864" lon="9.17219">
        <ele>1563.8</ele>
        <time>2015-06-22T07:45:53Z</time>
      </trkpt>
      <trkpt lat="42.0388" lon="9.17217">
        <ele>1563</ele>
        <time>2015-06-22T07:46:16Z</time>
      </trkpt>
      <trkpt lat="42.03884" lon="9.17214">
        <ele>1562.8</ele>
        <time>2015-06-22T07:46:19Z</time>
      </trkpt>
      <trkpt lat="42.03887" lon="9.17214">
        <ele>1562.4</ele>
        <time>2015-06-22T07:46:22Z</time>
      </trkpt>
      <trkpt lat="42.03897" lon="9.17216">
        <ele>1561.2</ele>
        <time>2015-06-22T07:46:29Z</time>
      </trkpt>
      <trkpt lat="42.03907" lon="9.17224">
        <ele>1560.2</ele>
        <time>2015-06-22T07:46:36Z</time>
      </trkpt>
      <trkpt lat="42.03915" lon="9.17228">
        <ele>1559</ele>
        <time>2015-06-22T07:46:43Z</time>
      </trkpt>
      <trkpt lat="42.03921" lon="9.17231">
        <ele>1558.4</ele>
        <time>2015-06-22T07:46:51Z</time>
      </trkpt>
      <trkpt lat="42.03929" lon="9.17231">
        <ele>1557.2</ele>
        <time>2015-06-22T07:47:02Z</time>
      </trkpt>
      <trkpt lat="42.03929" lon="9.17232">
        <ele>1557.2</ele>
        <time>2015-06-22T07:47:03Z</time>
      </trkpt>
      <trkpt lat="42.03936" lon="9.17233">
        <ele>1556.8</ele>
        <time>2015-06-22T07:47:11Z</time>
      </trkpt>
      <trkpt lat="42.03938" lon="9.17234">
        <ele>1556.6</ele>
        <time>2015-06-22T07:47:13Z</time>
      </trkpt>
      <trkpt lat="42.0394" lon="9.17235">
        <ele>1556.6</ele>
        <time>2015-06-22T07:47:15Z</time>
      </trkpt>
      <trkpt lat="42.03942" lon="9.17237">
        <ele>1556.2</ele>
        <time>2015-06-22T07:47:17Z</time>
      </trkpt>
      <trkpt lat="42.03943" lon="9.17237">
        <ele>1556</ele>
        <time>2015-06-22T07:47:18Z</time>
      </trkpt>
      <trkpt lat="42.03951" lon="9.17239">
        <ele>1554.6</ele>
        <time>2015-06-22T07:47:26Z</time>
      </trkpt>
      <trkpt lat="42.03956" lon="9.17243">
        <ele>1554</ele>
        <time>2015-06-22T07:47:31Z</time>
      </trkpt>
      <trkpt lat="42.03958" lon="9.17243">
        <ele>1553.2</ele>
        <time>2015-06-22T07:47:34Z</time>
      </trkpt>
      <trkpt lat="42.03959" lon="9.17243">
        <ele>1553</ele>
        <time>2015-06-22T07:47:35Z</time>
      </trkpt>
      <trkpt lat="42.03965" lon="9.17241">
        <ele>1551.4</ele>
        <time>2015-06-22T07:47:44Z</time>
      </trkpt>
      <trkpt lat="42.03971" lon="9.17235">
        <ele>1550.2</ele>
        <time>2015-06-22T07:47:53Z</time>
      </trkpt>
      <trkpt lat="42.03977" lon="9.17226">
        <ele>1549</ele>
        <time>2015-06-22T07:48:04Z</time>
      </trkpt>
      <trkpt lat="42.03983" lon="9.17213">
        <ele>1548.2</ele>
        <time>2015-06-22T07:48:17Z</time>
      </trkpt>
      <trkpt lat="42.03988" lon="9.172">
        <ele>1547</ele>
        <time>2015-06-22T07:48:29Z</time>
      </trkpt>
      <trkpt lat="42.03993" lon="9.1719">
        <ele>1546.2</ele>
        <time>2015-06-22T07:48:39Z</time>
      </trkpt>
      <trkpt lat="42.04002" lon="9.17174">
        <ele>1544.8</ele>
        <time>2015-06-22T07:48:53Z</time>
      </trkpt>
      <trkpt lat="42.04011" lon="9.17152">
        <ele>1543.6</ele>
        <time>2015-06-22T07:49:11Z</time>
      </trkpt>
      <trkpt lat="42.0402" lon="9.17087">
        <ele>1542.8</ele>
        <time>2015-06-22T07:50:02Z</time>
      </trkpt>
      <trkpt lat="42.04024" lon="9.17083">
        <ele>1543</ele>
        <time>2015-06-22T07:50:08Z</time>
      </trkpt>
      <trkpt lat="42.04028" lon="9.17083">
        <ele>1543</ele>
        <time>2015-06-22T07:50:11Z</time>
      </trkpt>
      <trkpt lat="42.04038" lon="9.17083">
        <ele>1543.2</ele>
        <time>2015-06-22T07:50:19Z</time>
      </trkpt>
      <trkpt lat="42.04042" lon="9.17084">
        <ele>1543.2</ele>
        <time>2015-06-22T07:50:22Z</time>
      </trkpt>
      <trkpt lat="42.0405" lon="9.17085">
        <ele>1542.2</ele>
        <time>2015-06-22T07:50:30Z</time>
      </trkpt>
      <trkpt lat="42.04059" lon="9.17078">
        <ele>1541.4</ele>
        <time>2015-06-22T07:50:42Z</time>
      </trkpt>
      <trkpt lat="42.0406" lon="9.17076">
        <ele>1541.4</ele>
        <time>2015-06-22T07:50:44Z</time>
      </trkpt>
      <trkpt lat="42.04082" lon="9.17047">
        <ele>1541</ele>
        <time>2015-06-22T07:51:12Z</time>
      </trkpt>
      <trkpt lat="42.04091" lon="9.1703">
        <ele>1540.4</ele>
        <time>2015-06-22T07:51:27Z</time>
      </trkpt>
      <trkpt lat="42.041" lon="9.17014">
        <ele>1539.6</ele>
        <time>2015-06-22T07:51:41Z</time>
      </trkpt>
      <trkpt lat="42.04102" lon="9.17012">
        <ele>1539.4</ele>
        <time>2015-06-22T07:51:43Z</time>
      </trkpt>
      <trkpt lat="42.04114" lon="9.1695">
        <ele>1538.8</ele>
        <time>2015-06-22T07:52:30Z</time>
      </trkpt>
      <trkpt lat="42.04112" lon="9.16917">
        <ele>1538.8</ele>
        <time>2015-06-22T07:52:53Z</time>
      </trkpt>
      <trkpt lat="42.04119" lon="9.16906">
        <ele>1538</ele>
        <time>2015-06-22T07:53:01Z</time>
      </trkpt>
      <trkpt lat="42.04128" lon="9.16883">
        <ele>1537.8</ele>
        <time>2015-06-22T07:53:21Z</time>
      </trkpt>
      <trkpt lat="42.04139" lon="9.16851">
        <ele>1538.8</ele>
        <time>2015-06-22T07:53:49Z</time>
      </trkpt>
      <trkpt lat="42.04164" lon="9.16798">
        <ele>1538.6</ele>
        <time>2015-06-22T07:54:36Z</time>
      </trkpt>
      <trkpt lat="42.04167" lon="9.1679">
        <ele>1538.8</ele>
        <time>2015-06-22T07:54:42Z</time>
      </trkpt>
      <trkpt lat="42.04167" lon="9.16787">
        <ele>1538.8</ele>
        <time>2015-06-22T07:54:45Z</time>
      </trkpt>
      <trkpt lat="42.04167" lon="9.16783">
        <ele>1538.8</ele>
        <time>2015-06-22T07:54:48Z</time>
      </trkpt>
      <trkpt lat="42.04167" lon="9.1678">
        <ele>1538.8</ele>
        <time>2015-06-22T07:54:51Z</time>
      </trkpt>
      <trkpt lat="42.04168" lon="9.16775">
        <ele>1539.2</ele>
        <time>2015-06-22T07:54:56Z</time>
      </trkpt>
      <trkpt lat="42.04168" lon="9.16774">
        <ele>1539.2</ele>
        <time>2015-06-22T07:54:58Z</time>
      </trkpt>
      <trkpt lat="42.04168" lon="9.16771">
        <ele>1539.8</ele>
        <time>2015-06-22T07:55:01Z</time>
      </trkpt>
      <trkpt lat="42.0417" lon="9.16769">
        <ele>1540</ele>
        <time>2015-06-22T07:55:03Z</time>
      </trkpt>
      <trkpt lat="42.04172" lon="9.16766">
        <ele>1540.4</ele>
        <time>2015-06-22T07:55:06Z</time>
      </trkpt>
      <trkpt lat="42.04174" lon="9.16764">
        <ele>1540.6</ele>
        <time>2015-06-22T07:55:08Z</time>
      </trkpt>
      <trkpt lat="42.04176" lon="9.16759">
        <ele>1540.6</ele>
        <time>2015-06-22T07:55:12Z</time>
      </trkpt>
      <trkpt lat="42.04181" lon="9.16749">
        <ele>1541.4</ele>
        <time>2015-06-22T07:55:27Z</time>
      </trkpt>
      <trkpt lat="42.04186" lon="9.16743">
        <ele>1542.4</ele>
        <time>2015-06-22T07:55:44Z</time>
      </trkpt>
      <trkpt lat="42.04194" lon="9.16734">
        <ele>1543.8</ele>
        <time>2015-06-22T07:56:06Z</time>
      </trkpt>
      <trkpt lat="42.04196" lon="9.16734">
        <ele>1543.8</ele>
        <time>2015-06-22T07:56:08Z</time>
      </trkpt>
      <trkpt lat="42.04198" lon="9.16733">
        <ele>1544</ele>
        <time>2015-06-22T07:56:10Z</time>
      </trkpt>
      <trkpt lat="42.042" lon="9.16733">
        <ele>1544.2</ele>
        <time>2015-06-22T07:56:13Z</time>
      </trkpt>
      <trkpt lat="42.04205" lon="9.16734">
        <ele>1544.2</ele>
        <time>2015-06-22T07:56:18Z</time>
      </trkpt>
      <trkpt lat="42.04247" lon="9.16759">
        <ele>1544.4</ele>
        <time>2015-06-22T07:56:54Z</time>
      </trkpt>
      <trkpt lat="42.04249" lon="9.16761">
        <ele>1544.2</ele>
        <time>2015-06-22T07:56:56Z</time>
      </trkpt>
      <trkpt lat="42.04256" lon="9.16766">
        <ele>1543.8</ele>
        <time>2015-06-22T07:57:02Z</time>
      </trkpt>
      <trkpt lat="42.0426" lon="9.16772">
        <ele>1543.4</ele>
        <time>2015-06-22T07:57:07Z</time>
      </trkpt>
      <trkpt lat="42.04288" lon="9.16797">
        <ele>1542.8</ele>
        <time>2015-06-22T07:57:37Z</time>
      </trkpt>
      <trkpt lat="42.04292" lon="9.16802">
        <ele>1542.6</ele>
        <time>2015-06-22T07:57:42Z</time>
      </trkpt>
      <trkpt lat="42.04296" lon="9.16801">
        <ele>1542.2</ele>
        <time>2015-06-22T07:57:47Z</time>
      </trkpt>
      <trkpt lat="42.043" lon="9.16797">
        <ele>1541.8</ele>
        <time>2015-06-22T07:57:52Z</time>
      </trkpt>
      <trkpt lat="42.04302" lon="9.16796">
        <ele>1541.8</ele>
        <time>2015-06-22T07:57:55Z</time>
      </trkpt>
      <trkpt lat="42.04307" lon="9.16792">
        <ele>1541.8</ele>
        <time>2015-06-22T07:58:00Z</time>
      </trkpt>
      <trkpt lat="42.0433" lon="9.1677">
        <ele>1541.4</ele>
        <time>2015-06-22T07:58:26Z</time>
      </trkpt>
      <trkpt lat="42.04338" lon="9.16763">
        <ele>1540.6</ele>
        <time>2015-06-22T07:58:40Z</time>
      </trkpt>
      <trkpt lat="42.04347" lon="9.16763">
        <ele>1540.6</ele>
        <time>2015-06-22T07:58:45Z</time>
      </trkpt>
      <trkpt lat="42.04363" lon="9.16766">
        <ele>1539.6</ele>
        <time>2015-06-22T07:59:00Z</time>
      </trkpt>
      <trkpt lat="42.04374" lon="9.16763">
        <ele>1539.4</ele>
        <time>2015-06-22T07:59:19Z</time>
      </trkpt>
      <trkpt lat="42.04403" lon="9.16715">
        <ele>1539</ele>
        <time>2015-06-22T08:00:02Z</time>
      </trkpt>
      <trkpt lat="42.04424" lon="9.16683">
        <ele>1538.2</ele>
        <time>2015-06-22T08:00:44Z</time>
      </trkpt>
      <trkpt lat="42.04434" lon="9.16681">
        <ele>1537.6</ele>
        <time>2015-06-22T08:00:55Z</time>
      </trkpt>
      <trkpt lat="42.0444" lon="9.16682">
        <ele>1536.4</ele>
        <time>2015-06-22T08:01:08Z</time>
      </trkpt>
      <trkpt lat="42.04463" lon="9.16667">
        <ele>1535.8</ele>
        <time>2015-06-22T08:01:29Z</time>
      </trkpt>
      <trkpt lat="42.04479" lon="9.16672">
        <ele>1534.6</ele>
        <time>2015-06-22T08:01:45Z</time>
      </trkpt>
      <trkpt lat="42.04493" lon="9.16681">
        <ele>1533.2</ele>
        <time>2015-06-22T08:01:57Z</time>
      </trkpt>
      <trkpt lat="42.04501" lon="9.16694">
        <ele>1532.2</ele>
        <time>2015-06-22T08:02:19Z</time>
      </trkpt>
      <trkpt lat="42.04503" lon="9.167">
        <ele>1531.6</ele>
        <time>2015-06-22T08:02:26Z</time>
      </trkpt>
      <trkpt lat="42.04509" lon="9.16708">
        <ele>1530.2</ele>
        <time>2015-06-22T08:02:38Z</time>
      </trkpt>
      <trkpt lat="42.04515" lon="9.16712">
        <ele>1529.4</ele>
        <time>2015-06-22T08:02:48Z</time>
      </trkpt>
      <trkpt lat="42.04535" lon="9.16702">
        <ele>1527.8</ele>
        <time>2015-06-22T08:03:53Z</time>
      </trkpt>
      <trkpt lat="42.04549" lon="9.16718">
        <ele>1527.4</ele>
        <time>2015-06-22T08:04:09Z</time>
      </trkpt>
      <trkpt lat="42.04559" lon="9.16734">
        <ele>1526.6</ele>
        <time>2015-06-22T08:04:23Z</time>
      </trkpt>
      <trkpt lat="42.0457" lon="9.16752">
        <ele>1525.6</ele>
        <time>2015-06-22T08:04:39Z</time>
      </trkpt>
      <trkpt lat="42.04595" lon="9.16758">
        <ele>1524.4</ele>
        <time>2015-06-22T08:05:00Z</time>
      </trkpt>
      <trkpt lat="42.04597" lon="9.1676">
        <ele>1524.2</ele>
        <time>2015-06-22T08:05:02Z</time>
      </trkpt>
      <trkpt lat="42.04602" lon="9.16763">
        <ele>1523.8</ele>
        <time>2015-06-22T08:05:07Z</time>
      </trkpt>
      <trkpt lat="42.04628" lon="9.16782">
        <ele>1521.8</ele>
        <time>2015-06-22T08:05:35Z</time>
      </trkpt>
      <trkpt lat="42.0464" lon="9.16797">
        <ele>1521.2</ele>
        <time>2015-06-22T08:05:52Z</time>
      </trkpt>
      <trkpt lat="42.04637" lon="9.16793">
        <ele>1521</ele>
        <time>2015-06-22T08:06:21Z</time>
      </trkpt>
      <trkpt lat="42.04677" lon="9.16808">
        <ele>1520.4</ele>
        <time>2015-06-22T08:07:13Z</time>
      </trkpt>
      <trkpt lat="42.04715" lon="9.16804">
        <ele>1520.8</ele>
        <time>2015-06-22T08:07:46Z</time>
      </trkpt>
      <trkpt lat="42.04736" lon="9.16817">
        <ele>1520.8</ele>
        <time>2015-06-22T08:08:06Z</time>
      </trkpt>
      <trkpt lat="42.04778" lon="9.16845">
        <ele>1521</ele>
        <time>2015-06-22T08:08:47Z</time>
      </trkpt>
      <trkpt lat="42.0479" lon="9.16849">
        <ele>1521.2</ele>
        <time>2015-06-22T08:09:01Z</time>
      </trkpt>
      <trkpt lat="42.04801" lon="9.16848">
        <ele>1522.2</ele>
        <time>2015-06-22T08:09:14Z</time>
      </trkpt>
      <trkpt lat="42.04801" lon="9.16848">
        <ele>1522.2</ele>
        <time>2015-06-22T08:09:15Z</time>
      </trkpt>
      <trkpt lat="42.0481" lon="9.16852">
        <ele>1522.8</ele>
        <time>2015-06-22T08:09:22Z</time>
      </trkpt>
      <trkpt lat="42.04832" lon="9.16873">
        <ele>1524.4</ele>
        <time>2015-06-22T08:09:48Z</time>
      </trkpt>
      <trkpt lat="42.04843" lon="9.16894">
        <ele>1524.6</ele>
        <time>2015-06-22T08:10:06Z</time>
      </trkpt>
      <trkpt lat="42.04849" lon="9.16902">
        <ele>1523.4</ele>
        <time>2015-06-22T08:10:14Z</time>
      </trkpt>
      <trkpt lat="42.04859" lon="9.16933">
        <ele>1521.8</ele>
        <time>2015-06-22T08:10:39Z</time>
      </trkpt>
      <trkpt lat="42.04862" lon="9.16945">
        <ele>1521.4</ele>
        <time>2015-06-22T08:10:48Z</time>
      </trkpt>
      <trkpt lat="42.04867" lon="9.16967">
        <ele>1520</ele>
        <time>2015-06-22T08:11:01Z</time>
      </trkpt>
      <trkpt lat="42.04873" lon="9.1698">
        <ele>1519.2</ele>
        <time>2015-06-22T08:11:11Z</time>
      </trkpt>
      <trkpt lat="42.04881" lon="9.16989">
        <ele>1518.2</ele>
        <time>2015-06-22T08:11:22Z</time>
      </trkpt>
      <trkpt lat="42.04896" lon="9.17">
        <ele>1517</ele>
        <time>2015-06-22T08:11:40Z</time>
      </trkpt>
      <trkpt lat="42.04906" lon="9.17002">
        <ele>1516.2</ele>
        <time>2015-06-22T08:11:47Z</time>
      </trkpt>
      <trkpt lat="42.0491" lon="9.17004">
        <ele>1515.6</ele>
        <time>2015-06-22T08:11:51Z</time>
      </trkpt>
      <trkpt lat="42.04918" lon="9.1701">
        <ele>1515.4</ele>
        <time>2015-06-22T08:11:59Z</time>
      </trkpt>
      <trkpt lat="42.04921" lon="9.17014">
        <ele>1515.2</ele>
        <time>2015-06-22T08:12:03Z</time>
      </trkpt>
      <trkpt lat="42.04923" lon="9.17014">
        <ele>1515</ele>
        <time>2015-06-22T08:12:05Z</time>
      </trkpt>
      <trkpt lat="42.04927" lon="9.17015">
        <ele>1514.6</ele>
        <time>2015-06-22T08:12:09Z</time>
      </trkpt>
      <trkpt lat="42.04932" lon="9.17017">
        <ele>1514.2</ele>
        <time>2015-06-22T08:12:13Z</time>
      </trkpt>
      <trkpt lat="42.04935" lon="9.17016">
        <ele>1514</ele>
        <time>2015-06-22T08:12:16Z</time>
      </trkpt>
      <trkpt lat="42.04937" lon="9.17016">
        <ele>1514</ele>
        <time>2015-06-22T08:12:18Z</time>
      </trkpt>
      <trkpt lat="42.04939" lon="9.17017">
        <ele>1514</ele>
        <time>2015-06-22T08:12:20Z</time>
      </trkpt>
      <trkpt lat="42.04943" lon="9.17018">
        <ele>1513.6</ele>
        <time>2015-06-22T08:12:25Z</time>
      </trkpt>
      <trkpt lat="42.04944" lon="9.17019">
        <ele>1513.6</ele>
        <time>2015-06-22T08:12:26Z</time>
      </trkpt>
      <trkpt lat="42.04964" lon="9.17024">
        <ele>1513.2</ele>
        <time>2015-06-22T08:12:45Z</time>
      </trkpt>
      <trkpt lat="42.04992" lon="9.17034">
        <ele>1511.6</ele>
        <time>2015-06-22T08:13:12Z</time>
      </trkpt>
      <trkpt lat="42.04999" lon="9.17038">
        <ele>1511.4</ele>
        <time>2015-06-22T08:13:20Z</time>
      </trkpt>
      <trkpt lat="42.05009" lon="9.1705">
        <ele>1510.4</ele>
        <time>2015-06-22T08:13:31Z</time>
      </trkpt>
      <trkpt lat="42.05015" lon="9.17057">
        <ele>1510.2</ele>
        <time>2015-06-22T08:13:38Z</time>
      </trkpt>
      <trkpt lat="42.0502" lon="9.17063">
        <ele>1509.4</ele>
        <time>2015-06-22T08:13:44Z</time>
      </trkpt>
      <trkpt lat="42.05035" lon="9.17075">
        <ele>1508.6</ele>
        <time>2015-06-22T08:14:07Z</time>
      </trkpt>
      <trkpt lat="42.05038" lon="9.17076">
        <ele>1508</ele>
        <time>2015-06-22T08:14:11Z</time>
      </trkpt>
      <trkpt lat="42.0504" lon="9.17077">
        <ele>1508</ele>
        <time>2015-06-22T08:14:13Z</time>
      </trkpt>
      <trkpt lat="42.05057" lon="9.17077">
        <ele>1507.8</ele>
        <time>2015-06-22T08:17:17Z</time>
      </trkpt>
      <trkpt lat="42.05059" lon="9.17065">
        <ele>1507.4</ele>
        <time>2015-06-22T08:17:31Z</time>
      </trkpt>
      <trkpt lat="42.05064" lon="9.17049">
        <ele>1506.4</ele>
        <time>2015-06-22T08:17:51Z</time>
      </trkpt>
      <trkpt lat="42.05062" lon="9.17045">
        <ele>1506.2</ele>
        <time>2015-06-22T08:17:58Z</time>
      </trkpt>
      <trkpt lat="42.05072" lon="9.17018">
        <ele>1505.8</ele>
        <time>2015-06-22T08:18:22Z</time>
      </trkpt>
      <trkpt lat="42.05079" lon="9.16994">
        <ele>1504.6</ele>
        <time>2015-06-22T08:18:37Z</time>
      </trkpt>
      <trkpt lat="42.05086" lon="9.16965">
        <ele>1503.6</ele>
        <time>2015-06-22T08:18:57Z</time>
      </trkpt>
      <trkpt lat="42.05109" lon="9.16928">
        <ele>1502.4</ele>
        <time>2015-06-22T08:19:35Z</time>
      </trkpt>
      <trkpt lat="42.05145" lon="9.1689">
        <ele>1501.6</ele>
        <time>2015-06-22T08:20:12Z</time>
      </trkpt>
      <trkpt lat="42.05155" lon="9.16877">
        <ele>1501.6</ele>
        <time>2015-06-22T08:20:23Z</time>
      </trkpt>
      <trkpt lat="42.05164" lon="9.16858">
        <ele>1500.8</ele>
        <time>2015-06-22T08:20:37Z</time>
      </trkpt>
      <trkpt lat="42.0517" lon="9.16815">
        <ele>1499.8</ele>
        <time>2015-06-22T08:21:07Z</time>
      </trkpt>
      <trkpt lat="42.05172" lon="9.16775">
        <ele>1499</ele>
        <time>2015-06-22T08:21:40Z</time>
      </trkpt>
      <trkpt lat="42.05172" lon="9.16772">
        <ele>1499</ele>
        <time>2015-06-22T08:21:42Z</time>
      </trkpt>
      <trkpt lat="42.05178" lon="9.16735">
        <ele>1498.4</ele>
        <time>2015-06-22T08:22:18Z</time>
      </trkpt>
      <trkpt lat="42.05186" lon="9.16731">
        <ele>1497.6</ele>
        <time>2015-06-22T08:22:28Z</time>
      </trkpt>
      <trkpt lat="42.05189" lon="9.1673">
        <ele>1497.6</ele>
        <time>2015-06-22T08:22:31Z</time>
      </trkpt>
      <trkpt lat="42.05197" lon="9.16724">
        <ele>1497.4</ele>
        <time>2015-06-22T08:22:48Z</time>
      </trkpt>
      <trkpt lat="42.05198" lon="9.16723">
        <ele>1497.4</ele>
        <time>2015-06-22T08:22:50Z</time>
      </trkpt>
      <trkpt lat="42.05201" lon="9.16719">
        <ele>1497</ele>
        <time>2015-06-22T08:23:00Z</time>
      </trkpt>
      <trkpt lat="42.05204" lon="9.16708">
        <ele>1495.6</ele>
        <time>2015-06-22T08:23:14Z</time>
      </trkpt>
      <trkpt lat="42.05211" lon="9.16701">
        <ele>1495</ele>
        <time>2015-06-22T08:23:31Z</time>
      </trkpt>
      <trkpt lat="42.05216" lon="9.16701">
        <ele>1494.4</ele>
        <time>2015-06-22T08:23:35Z</time>
      </trkpt>
      <trkpt lat="42.0522" lon="9.16699">
        <ele>1494.4</ele>
        <time>2015-06-22T08:23:38Z</time>
      </trkpt>
      <trkpt lat="42.05226" lon="9.16696">
        <ele>1493.8</ele>
        <time>2015-06-22T08:23:45Z</time>
      </trkpt>
      <trkpt lat="42.0523" lon="9.1669">
        <ele>1493.2</ele>
        <time>2015-06-22T08:23:52Z</time>
      </trkpt>
      <trkpt lat="42.05246" lon="9.167">
        <ele>1491.8</ele>
        <time>2015-06-22T08:24:10Z</time>
      </trkpt>
      <trkpt lat="42.05257" lon="9.16708">
        <ele>1490.8</ele>
        <time>2015-06-22T08:24:22Z</time>
      </trkpt>
      <trkpt lat="42.0527" lon="9.16719">
        <ele>1490.2</ele>
        <time>2015-06-22T08:24:37Z</time>
      </trkpt>
      <trkpt lat="42.05283" lon="9.16724">
        <ele>1488.8</ele>
        <time>2015-06-22T08:24:49Z</time>
      </trkpt>
      <trkpt lat="42.05305" lon="9.16718">
        <ele>1487.4</ele>
        <time>2015-06-22T08:25:24Z</time>
      </trkpt>
      <trkpt lat="42.0532" lon="9.16706">
        <ele>1488.4</ele>
        <time>2015-06-22T08:25:41Z</time>
      </trkpt>
      <trkpt lat="42.05322" lon="9.16702">
        <ele>1489</ele>
        <time>2015-06-22T08:25:45Z</time>
      </trkpt>
      <trkpt lat="42.05324" lon="9.16691">
        <ele>1489.8</ele>
        <time>2015-06-22T08:25:54Z</time>
      </trkpt>
      <trkpt lat="42.05323" lon="9.16688">
        <ele>1490</ele>
        <time>2015-06-22T08:25:57Z</time>
      </trkpt>
      <trkpt lat="42.05323" lon="9.16687">
        <ele>1490</ele>
        <time>2015-06-22T08:25:58Z</time>
      </trkpt>
      <trkpt lat="42.05324" lon="9.16684">
        <ele>1490.2</ele>
        <time>2015-06-22T08:26:01Z</time>
      </trkpt>
      <trkpt lat="42.05331" lon="9.16654">
        <ele>1490.6</ele>
        <time>2015-06-22T08:26:24Z</time>
      </trkpt>
      <trkpt lat="42.05334" lon="9.16644">
        <ele>1491.2</ele>
        <time>2015-06-22T08:26:33Z</time>
      </trkpt>
      <trkpt lat="42.05336" lon="9.1664">
        <ele>1491.4</ele>
        <time>2015-06-22T08:26:36Z</time>
      </trkpt>
      <trkpt lat="42.05338" lon="9.16635">
        <ele>1490.8</ele>
        <time>2015-06-22T08:26:43Z</time>
      </trkpt>
      <trkpt lat="42.05341" lon="9.16631">
        <ele>1490.4</ele>
        <time>2015-06-22T08:26:48Z</time>
      </trkpt>
      <trkpt lat="42.05344" lon="9.16628">
        <ele>1490.2</ele>
        <time>2015-06-22T08:26:51Z</time>
      </trkpt>
      <trkpt lat="42.05359" lon="9.16623">
        <ele>1488.8</ele>
        <time>2015-06-22T08:27:07Z</time>
      </trkpt>
      <trkpt lat="42.05365" lon="9.16622">
        <ele>1488</ele>
        <time>2015-06-22T08:27:16Z</time>
      </trkpt>
      <trkpt lat="42.05366" lon="9.16622">
        <ele>1487.6</ele>
        <time>2015-06-22T08:27:19Z</time>
      </trkpt>
      <trkpt lat="42.05376" lon="9.16624">
        <ele>1486.8</ele>
        <time>2015-06-22T08:27:32Z</time>
      </trkpt>
      <trkpt lat="42.05377" lon="9.16624">
        <ele>1486.8</ele>
        <time>2015-06-22T08:27:33Z</time>
      </trkpt>
      <trkpt lat="42.0539" lon="9.16623">
        <ele>1485.8</ele>
        <time>2015-06-22T08:27:46Z</time>
      </trkpt>
      <trkpt lat="42.05403" lon="9.1662">
        <ele>1484.6</ele>
        <time>2015-06-22T08:27:57Z</time>
      </trkpt>
      <trkpt lat="42.05412" lon="9.16617">
        <ele>1484</ele>
        <time>2015-06-22T08:28:05Z</time>
      </trkpt>
      <trkpt lat="42.05424" lon="9.16613">
        <ele>1482.6</ele>
        <time>2015-06-22T08:28:18Z</time>
      </trkpt>
      <trkpt lat="42.05428" lon="9.16609">
        <ele>1482.2</ele>
        <time>2015-06-22T08:28:23Z</time>
      </trkpt>
      <trkpt lat="42.05432" lon="9.16607">
        <ele>1481.4</ele>
        <time>2015-06-22T08:28:27Z</time>
      </trkpt>
      <trkpt lat="42.05435" lon="9.16605">
        <ele>1481.2</ele>
        <time>2015-06-22T08:28:30Z</time>
      </trkpt>
      <trkpt lat="42.05438" lon="9.16604">
        <ele>1481</ele>
        <time>2015-06-22T08:28:33Z</time>
      </trkpt>
      <trkpt lat="42.05447" lon="9.16598">
        <ele>1479.4</ele>
        <time>2015-06-22T08:28:42Z</time>
      </trkpt>
      <trkpt lat="42.05451" lon="9.16594">
        <ele>1478.8</ele>
        <time>2015-06-22T08:28:48Z</time>
      </trkpt>
      <trkpt lat="42.05454" lon="9.16587">
        <ele>1477.4</ele>
        <time>2015-06-22T08:28:55Z</time>
      </trkpt>
      <trkpt lat="42.05456" lon="9.16585">
        <ele>1477</ele>
        <time>2015-06-22T08:28:58Z</time>
      </trkpt>
      <trkpt lat="42.05457" lon="9.16582">
        <ele>1476.6</ele>
        <time>2015-06-22T08:29:00Z</time>
      </trkpt>
      <trkpt lat="42.05459" lon="9.1658">
        <ele>1476</ele>
        <time>2015-06-22T08:29:03Z</time>
      </trkpt>
      <trkpt lat="42.05463" lon="9.16573">
        <ele>1475.2</ele>
        <time>2015-06-22T08:29:09Z</time>
      </trkpt>
      <trkpt lat="42.05469" lon="9.16565">
        <ele>1473.6</ele>
        <time>2015-06-22T08:29:18Z</time>
      </trkpt>
      <trkpt lat="42.05472" lon="9.16557">
        <ele>1473</ele>
        <time>2015-06-22T08:29:24Z</time>
      </trkpt>
      <trkpt lat="42.05487" lon="9.16515">
        <ele>1471.6</ele>
        <time>2015-06-22T08:29:57Z</time>
      </trkpt>
      <trkpt lat="42.05489" lon="9.16507">
        <ele>1470.8</ele>
        <time>2015-06-22T08:30:03Z</time>
      </trkpt>
      <trkpt lat="42.05497" lon="9.16491">
        <ele>1469.2</ele>
        <time>2015-06-22T08:30:16Z</time>
      </trkpt>
      <trkpt lat="42.05498" lon="9.16489">
        <ele>1469.2</ele>
        <time>2015-06-22T08:30:18Z</time>
      </trkpt>
      <trkpt lat="42.05502" lon="9.16482">
        <ele>1468.4</ele>
        <time>2015-06-22T08:30:26Z</time>
      </trkpt>
      <trkpt lat="42.05507" lon="9.16473">
        <ele>1467.2</ele>
        <time>2015-06-22T08:30:37Z</time>
      </trkpt>
      <trkpt lat="42.05508" lon="9.16468">
        <ele>1467.2</ele>
        <time>2015-06-22T08:30:40Z</time>
      </trkpt>
      <trkpt lat="42.05514" lon="9.16455">
        <ele>1466.4</ele>
        <time>2015-06-22T08:30:53Z</time>
      </trkpt>
      <trkpt lat="42.05518" lon="9.16441">
        <ele>1465.6</ele>
        <time>2015-06-22T08:31:04Z</time>
      </trkpt>
      <trkpt lat="42.05523" lon="9.16421">
        <ele>1464</ele>
        <time>2015-06-22T08:31:21Z</time>
      </trkpt>
      <trkpt lat="42.05527" lon="9.16412">
        <ele>1463.4</ele>
        <time>2015-06-22T08:31:29Z</time>
      </trkpt>
      <trkpt lat="42.0553" lon="9.16402">
        <ele>1462.4</ele>
        <time>2015-06-22T08:31:39Z</time>
      </trkpt>
      <trkpt lat="42.05532" lon="9.16391">
        <ele>1461.4</ele>
        <time>2015-06-22T08:31:47Z</time>
      </trkpt>
      <trkpt lat="42.05542" lon="9.1637">
        <ele>1460.2</ele>
        <time>2015-06-22T08:32:05Z</time>
      </trkpt>
      <trkpt lat="42.05543" lon="9.1636">
        <ele>1459.8</ele>
        <time>2015-06-22T08:32:14Z</time>
      </trkpt>
      <trkpt lat="42.05543" lon="9.16359">
        <ele>1459.8</ele>
        <time>2015-06-22T08:32:15Z</time>
      </trkpt>
      <trkpt lat="42.05546" lon="9.16353">
        <ele>1459</ele>
        <time>2015-06-22T08:32:20Z</time>
      </trkpt>
      <trkpt lat="42.0555" lon="9.16341">
        <ele>1457.8</ele>
        <time>2015-06-22T08:32:29Z</time>
      </trkpt>
      <trkpt lat="42.05555" lon="9.16326">
        <ele>1456.4</ele>
        <time>2015-06-22T08:32:40Z</time>
      </trkpt>
      <trkpt lat="42.05561" lon="9.16314">
        <ele>1455.4</ele>
        <time>2015-06-22T08:32:50Z</time>
      </trkpt>
      <trkpt lat="42.05565" lon="9.16296">
        <ele>1454.4</ele>
        <time>2015-06-22T08:33:04Z</time>
      </trkpt>
      <trkpt lat="42.05564" lon="9.16277">
        <ele>1453.8</ele>
        <time>2015-06-22T08:33:19Z</time>
      </trkpt>
      <trkpt lat="42.05565" lon="9.16269">
        <ele>1453.2</ele>
        <time>2015-06-22T08:33:27Z</time>
      </trkpt>
      <trkpt lat="42.05565" lon="9.16267">
        <ele>1453</ele>
        <time>2015-06-22T08:33:29Z</time>
      </trkpt>
      <trkpt lat="42.05565" lon="9.16262">
        <ele>1452.4</ele>
        <time>2015-06-22T08:33:32Z</time>
      </trkpt>
      <trkpt lat="42.05564" lon="9.1626">
        <ele>1451.8</ele>
        <time>2015-06-22T08:33:36Z</time>
      </trkpt>
      <trkpt lat="42.05568" lon="9.16255">
        <ele>1451</ele>
        <time>2015-06-22T08:33:46Z</time>
      </trkpt>
      <trkpt lat="42.05575" lon="9.16243">
        <ele>1449.6</ele>
        <time>2015-06-22T08:33:59Z</time>
      </trkpt>
      <trkpt lat="42.05585" lon="9.16219">
        <ele>1449.2</ele>
        <time>2015-06-22T08:34:20Z</time>
      </trkpt>
      <trkpt lat="42.05587" lon="9.16208">
        <ele>1447.8</ele>
        <time>2015-06-22T08:34:30Z</time>
      </trkpt>
      <trkpt lat="42.0559" lon="9.16198">
        <ele>1446.6</ele>
        <time>2015-06-22T08:34:40Z</time>
      </trkpt>
      <trkpt lat="42.0559" lon="9.16189">
        <ele>1446.2</ele>
        <time>2015-06-22T08:34:48Z</time>
      </trkpt>
      <trkpt lat="42.05589" lon="9.16188">
        <ele>1446</ele>
        <time>2015-06-22T08:34:50Z</time>
      </trkpt>
      <trkpt lat="42.05586" lon="9.16184">
        <ele>1446.8</ele>
        <time>2015-06-22T08:35:13Z</time>
      </trkpt>
      <trkpt lat="42.05597" lon="9.16163">
        <ele>1447.6</ele>
        <time>2015-06-22T08:36:05Z</time>
      </trkpt>
      <trkpt lat="42.05627" lon="9.16138">
        <ele>1449</ele>
        <time>2015-06-22T08:36:47Z</time>
      </trkpt>
      <trkpt lat="42.05635" lon="9.16126">
        <ele>1450.2</ele>
        <time>2015-06-22T08:37:03Z</time>
      </trkpt>
      <trkpt lat="42.05638" lon="9.16139">
        <ele>1449.6</ele>
        <time>2015-06-22T08:37:50Z</time>
      </trkpt>
      <trkpt lat="42.05638" lon="9.16141">
        <ele>1448.2</ele>
        <time>2015-06-22T08:37:59Z</time>
      </trkpt>
      <trkpt lat="42.05642" lon="9.16144">
        <ele>1447</ele>
        <time>2015-06-22T08:38:39Z</time>
      </trkpt>
      <trkpt lat="42.05648" lon="9.16142">
        <ele>1446.6</ele>
        <time>2015-06-22T08:38:46Z</time>
      </trkpt>
      <trkpt lat="42.05648" lon="9.16142">
        <ele>1446.6</ele>
        <time>2015-06-22T08:38:48Z</time>
      </trkpt>
      <trkpt lat="42.0565" lon="9.16142">
        <ele>1446.8</ele>
        <time>2015-06-22T08:38:58Z</time>
      </trkpt>
      <trkpt lat="42.0565" lon="9.16142">
        <ele>1448</ele>
        <time>2015-06-22T08:39:04Z</time>
      </trkpt>
      <trkpt lat="42.05653" lon="9.16141">
        <ele>1448.8</ele>
        <time>2015-06-22T08:39:09Z</time>
      </trkpt>
      <trkpt lat="42.05656" lon="9.16142">
        <ele>1449.8</ele>
        <time>2015-06-22T08:39:14Z</time>
      </trkpt>
      <trkpt lat="42.05657" lon="9.16145">
        <ele>1450.4</ele>
        <time>2015-06-22T08:39:16Z</time>
      </trkpt>
      <trkpt lat="42.05668" lon="9.16167">
        <ele>1451</ele>
        <time>2015-06-22T08:39:53Z</time>
      </trkpt>
      <trkpt lat="42.05671" lon="9.16178">
        <ele>1450</ele>
        <time>2015-06-22T08:40:03Z</time>
      </trkpt>
      <trkpt lat="42.05675" lon="9.16185">
        <ele>1449.2</ele>
        <time>2015-06-22T08:40:12Z</time>
      </trkpt>
      <trkpt lat="42.05679" lon="9.1619">
        <ele>1447.8</ele>
        <time>2015-06-22T08:40:21Z</time>
      </trkpt>
      <trkpt lat="42.05684" lon="9.16201">
        <ele>1446.4</ele>
        <time>2015-06-22T08:40:37Z</time>
      </trkpt>
      <trkpt lat="42.05697" lon="9.16215">
        <ele>1445.8</ele>
        <time>2015-06-22T08:41:02Z</time>
      </trkpt>
      <trkpt lat="42.05704" lon="9.16225">
        <ele>1444</ele>
        <time>2015-06-22T08:41:15Z</time>
      </trkpt>
      <trkpt lat="42.05715" lon="9.16246">
        <ele>1443.4</ele>
        <time>2015-06-22T08:41:30Z</time>
      </trkpt>
      <trkpt lat="42.05716" lon="9.16255">
        <ele>1442.4</ele>
        <time>2015-06-22T08:41:38Z</time>
      </trkpt>
      <trkpt lat="42.05718" lon="9.16264">
        <ele>1441.4</ele>
        <time>2015-06-22T08:41:46Z</time>
      </trkpt>
      <trkpt lat="42.05722" lon="9.16273">
        <ele>1440.2</ele>
        <time>2015-06-22T08:41:55Z</time>
      </trkpt>
      <trkpt lat="42.05726" lon="9.16281">
        <ele>1439.2</ele>
        <time>2015-06-22T08:42:05Z</time>
      </trkpt>
      <trkpt lat="42.0573" lon="9.16285">
        <ele>1438.4</ele>
        <time>2015-06-22T08:42:12Z</time>
      </trkpt>
      <trkpt lat="42.05733" lon="9.16293">
        <ele>1437.4</ele>
        <time>2015-06-22T08:42:20Z</time>
      </trkpt>
      <trkpt lat="42.05733" lon="9.16296">
        <ele>1437.2</ele>
        <time>2015-06-22T08:42:22Z</time>
      </trkpt>
      <trkpt lat="42.05736" lon="9.16305">
        <ele>1436</ele>
        <time>2015-06-22T08:42:30Z</time>
      </trkpt>
      <trkpt lat="42.05739" lon="9.16318">
        <ele>1434.8</ele>
        <time>2015-06-22T08:42:41Z</time>
      </trkpt>
      <trkpt lat="42.05744" lon="9.16327">
        <ele>1433.6</ele>
        <time>2015-06-22T08:42:51Z</time>
      </trkpt>
      <trkpt lat="42.05754" lon="9.16332">
        <ele>1432.8</ele>
        <time>2015-06-22T08:43:08Z</time>
      </trkpt>
      <trkpt lat="42.05763" lon="9.16339">
        <ele>1431.4</ele>
        <time>2015-06-22T08:43:18Z</time>
      </trkpt>
      <trkpt lat="42.05769" lon="9.16344">
        <ele>1430.6</ele>
        <time>2015-06-22T08:43:27Z</time>
      </trkpt>
      <trkpt lat="42.05775" lon="9.16356">
        <ele>1429.4</ele>
        <time>2015-06-22T08:43:38Z</time>
      </trkpt>
      <trkpt lat="42.05781" lon="9.16376">
        <ele>1428.2</ele>
        <time>2015-06-22T08:43:52Z</time>
      </trkpt>
      <trkpt lat="42.05787" lon="9.16388">
        <ele>1427.4</ele>
        <time>2015-06-22T08:44:03Z</time>
      </trkpt>
      <trkpt lat="42.05789" lon="9.16397">
        <ele>1426.6</ele>
        <time>2015-06-22T08:44:09Z</time>
      </trkpt>
      <trkpt lat="42.05792" lon="9.16405">
        <ele>1425.2</ele>
        <time>2015-06-22T08:44:18Z</time>
      </trkpt>
      <trkpt lat="42.05795" lon="9.16412">
        <ele>1424.6</ele>
        <time>2015-06-22T08:44:24Z</time>
      </trkpt>
      <trkpt lat="42.05798" lon="9.16421">
        <ele>1423.4</ele>
        <time>2015-06-22T08:44:31Z</time>
      </trkpt>
      <trkpt lat="42.05801" lon="9.16433">
        <ele>1421.8</ele>
        <time>2015-06-22T08:44:41Z</time>
      </trkpt>
      <trkpt lat="42.05808" lon="9.16442">
        <ele>1421</ele>
        <time>2015-06-22T08:44:54Z</time>
      </trkpt>
      <trkpt lat="42.05808" lon="9.16443">
        <ele>1420.8</ele>
        <time>2015-06-22T08:44:55Z</time>
      </trkpt>
      <trkpt lat="42.05809" lon="9.16451">
        <ele>1420.2</ele>
        <time>2015-06-22T08:45:02Z</time>
      </trkpt>
      <trkpt lat="42.0581" lon="9.1646">
        <ele>1419</ele>
        <time>2015-06-22T08:45:10Z</time>
      </trkpt>
      <trkpt lat="42.05814" lon="9.16468">
        <ele>1417.8</ele>
        <time>2015-06-22T08:45:18Z</time>
      </trkpt>
      <trkpt lat="42.05816" lon="9.16471">
        <ele>1417.6</ele>
        <time>2015-06-22T08:45:21Z</time>
      </trkpt>
      <trkpt lat="42.05819" lon="9.16475">
        <ele>1417</ele>
        <time>2015-06-22T08:45:27Z</time>
      </trkpt>
      <trkpt lat="42.05823" lon="9.16475">
        <ele>1416</ele>
        <time>2015-06-22T08:45:32Z</time>
      </trkpt>
      <trkpt lat="42.05833" lon="9.16473">
        <ele>1415.2</ele>
        <time>2015-06-22T08:45:42Z</time>
      </trkpt>
      <trkpt lat="42.05836" lon="9.16478">
        <ele>1414.6</ele>
        <time>2015-06-22T08:45:51Z</time>
      </trkpt>
      <trkpt lat="42.05839" lon="9.16488">
        <ele>1414.4</ele>
        <time>2015-06-22T08:45:59Z</time>
      </trkpt>
      <trkpt lat="42.05847" lon="9.16511">
        <ele>1414.2</ele>
        <time>2015-06-22T08:46:16Z</time>
      </trkpt>
      <trkpt lat="42.05856" lon="9.16544">
        <ele>1412.8</ele>
        <time>2015-06-22T08:46:37Z</time>
      </trkpt>
      <trkpt lat="42.05856" lon="9.16549">
        <ele>1412.6</ele>
        <time>2015-06-22T08:46:41Z</time>
      </trkpt>
      <trkpt lat="42.05855" lon="9.16555">
        <ele>1412.2</ele>
        <time>2015-06-22T08:46:44Z</time>
      </trkpt>
      <trkpt lat="42.05856" lon="9.1656">
        <ele>1411.6</ele>
        <time>2015-06-22T08:46:48Z</time>
      </trkpt>
      <trkpt lat="42.05857" lon="9.16563">
        <ele>1411</ele>
        <time>2015-06-22T08:46:51Z</time>
      </trkpt>
      <trkpt lat="42.05859" lon="9.1657">
        <ele>1410</ele>
        <time>2015-06-22T08:46:57Z</time>
      </trkpt>
      <trkpt lat="42.0586" lon="9.16572">
        <ele>1409.8</ele>
        <time>2015-06-22T08:46:59Z</time>
      </trkpt>
      <trkpt lat="42.05865" lon="9.16579">
        <ele>1409.2</ele>
        <time>2015-06-22T08:47:04Z</time>
      </trkpt>
      <trkpt lat="42.05867" lon="9.16581">
        <ele>1408.4</ele>
        <time>2015-06-22T08:47:07Z</time>
      </trkpt>
      <trkpt lat="42.0587" lon="9.16583">
        <ele>1408.2</ele>
        <time>2015-06-22T08:47:09Z</time>
      </trkpt>
      <trkpt lat="42.05874" lon="9.16586">
        <ele>1407.4</ele>
        <time>2015-06-22T08:47:12Z</time>
      </trkpt>
      <trkpt lat="42.05876" lon="9.16589">
        <ele>1407</ele>
        <time>2015-06-22T08:47:14Z</time>
      </trkpt>
      <trkpt lat="42.05877" lon="9.16597">
        <ele>1405.6</ele>
        <time>2015-06-22T08:47:20Z</time>
      </trkpt>
      <trkpt lat="42.05878" lon="9.166">
        <ele>1405.2</ele>
        <time>2015-06-22T08:47:22Z</time>
      </trkpt>
      <trkpt lat="42.05879" lon="9.16603">
        <ele>1404.8</ele>
        <time>2015-06-22T08:47:25Z</time>
      </trkpt>
      <trkpt lat="42.0588" lon="9.16603">
        <ele>1404.4</ele>
        <time>2015-06-22T08:47:26Z</time>
      </trkpt>
      <trkpt lat="42.0588" lon="9.16604">
        <ele>1404.2</ele>
        <time>2015-06-22T08:47:27Z</time>
      </trkpt>
      <trkpt lat="42.05882" lon="9.16607">
        <ele>1403.8</ele>
        <time>2015-06-22T08:47:30Z</time>
      </trkpt>
      <trkpt lat="42.05882" lon="9.16609">
        <ele>1403.4</ele>
        <time>2015-06-22T08:47:32Z</time>
      </trkpt>
      <trkpt lat="42.05885" lon="9.16614">
        <ele>1402.2</ele>
        <time>2015-06-22T08:47:38Z</time>
      </trkpt>
      <trkpt lat="42.05893" lon="9.16625">
        <ele>1400.6</ele>
        <time>2015-06-22T08:47:49Z</time>
      </trkpt>
      <trkpt lat="42.05899" lon="9.16639">
        <ele>1399.4</ele>
        <time>2015-06-22T08:48:03Z</time>
      </trkpt>
      <trkpt lat="42.05904" lon="9.16648">
        <ele>1398.4</ele>
        <time>2015-06-22T08:48:11Z</time>
      </trkpt>
      <trkpt lat="42.05912" lon="9.16664">
        <ele>1397</ele>
        <time>2015-06-22T08:48:25Z</time>
      </trkpt>
      <trkpt lat="42.05918" lon="9.1667">
        <ele>1396.2</ele>
        <time>2015-06-22T08:48:33Z</time>
      </trkpt>
      <trkpt lat="42.05928" lon="9.16684">
        <ele>1394.8</ele>
        <time>2015-06-22T08:48:46Z</time>
      </trkpt>
      <trkpt lat="42.05937" lon="9.16691">
        <ele>1393.8</ele>
        <time>2015-06-22T08:48:56Z</time>
      </trkpt>
      <trkpt lat="42.05941" lon="9.16695">
        <ele>1393.2</ele>
        <time>2015-06-22T08:49:02Z</time>
      </trkpt>
      <trkpt lat="42.05945" lon="9.16706">
        <ele>1391.2</ele>
        <time>2015-06-22T08:49:13Z</time>
      </trkpt>
      <trkpt lat="42.05947" lon="9.16713">
        <ele>1390.8</ele>
        <time>2015-06-22T08:49:20Z</time>
      </trkpt>
      <trkpt lat="42.05949" lon="9.16722">
        <ele>1389.8</ele>
        <time>2015-06-22T08:49:27Z</time>
      </trkpt>
      <trkpt lat="42.05949" lon="9.16735">
        <ele>1388.4</ele>
        <time>2015-06-22T08:49:35Z</time>
      </trkpt>
      <trkpt lat="42.0595" lon="9.16742">
        <ele>1387.4</ele>
        <time>2015-06-22T08:49:42Z</time>
      </trkpt>
      <trkpt lat="42.05951" lon="9.16747">
        <ele>1386.6</ele>
        <time>2015-06-22T08:49:49Z</time>
      </trkpt>
      <trkpt lat="42.05947" lon="9.16758">
        <ele>1385.2</ele>
        <time>2015-06-22T08:50:12Z</time>
      </trkpt>
      <trkpt lat="42.05949" lon="9.16763">
        <ele>1385</ele>
        <time>2015-06-22T08:50:17Z</time>
      </trkpt>
      <trkpt lat="42.05949" lon="9.16771">
        <ele>1383.8</ele>
        <time>2015-06-22T08:50:24Z</time>
      </trkpt>
      <trkpt lat="42.0595" lon="9.16779">
        <ele>1383</ele>
        <time>2015-06-22T08:50:30Z</time>
      </trkpt>
      <trkpt lat="42.05954" lon="9.16786">
        <ele>1381.6</ele>
        <time>2015-06-22T08:50:36Z</time>
      </trkpt>
      <trkpt lat="42.05957" lon="9.1679">
        <ele>1380.8</ele>
        <time>2015-06-22T08:50:40Z</time>
      </trkpt>
      <trkpt lat="42.05959" lon="9.16794">
        <ele>1379.6</ele>
        <time>2015-06-22T08:50:45Z</time>
      </trkpt>
      <trkpt lat="42.05961" lon="9.16801">
        <ele>1378.2</ele>
        <time>2015-06-22T08:50:51Z</time>
      </trkpt>
      <trkpt lat="42.05974" lon="9.16832">
        <ele>1376.6</ele>
        <time>2015-06-22T08:51:25Z</time>
      </trkpt>
      <trkpt lat="42.05975" lon="9.16834">
        <ele>1376.4</ele>
        <time>2015-06-22T08:51:27Z</time>
      </trkpt>
      <trkpt lat="42.05977" lon="9.16836">
        <ele>1376</ele>
        <time>2015-06-22T08:51:29Z</time>
      </trkpt>
      <trkpt lat="42.05977" lon="9.16837">
        <ele>1375.6</ele>
        <time>2015-06-22T08:51:31Z</time>
      </trkpt>
      <trkpt lat="42.05978" lon="9.16842">
        <ele>1375</ele>
        <time>2015-06-22T08:51:35Z</time>
      </trkpt>
      <trkpt lat="42.0598" lon="9.16845">
        <ele>1374.6</ele>
        <time>2015-06-22T08:51:38Z</time>
      </trkpt>
      <trkpt lat="42.05983" lon="9.16847">
        <ele>1373.8</ele>
        <time>2015-06-22T08:51:43Z</time>
      </trkpt>
      <trkpt lat="42.05985" lon="9.16845">
        <ele>1372.4</ele>
        <time>2015-06-22T08:51:49Z</time>
      </trkpt>
      <trkpt lat="42.0599" lon="9.16839">
        <ele>1371.2</ele>
        <time>2015-06-22T08:51:58Z</time>
      </trkpt>
      <trkpt lat="42.05996" lon="9.16822">
        <ele>1369.6</ele>
        <time>2015-06-22T08:52:12Z</time>
      </trkpt>
      <trkpt lat="42.06001" lon="9.16809">
        <ele>1368.6</ele>
        <time>2015-06-22T08:52:23Z</time>
      </trkpt>
      <trkpt lat="42.06007" lon="9.16794">
        <ele>1367</ele>
        <time>2015-06-22T08:52:36Z</time>
      </trkpt>
      <trkpt lat="42.06009" lon="9.16773">
        <ele>1366</ele>
        <time>2015-06-22T08:52:48Z</time>
      </trkpt>
      <trkpt lat="42.0601" lon="9.16771">
        <ele>1365.8</ele>
        <time>2015-06-22T08:52:51Z</time>
      </trkpt>
      <trkpt lat="42.06011" lon="9.16764">
        <ele>1365.2</ele>
        <time>2015-06-22T08:52:57Z</time>
      </trkpt>
      <trkpt lat="42.06015" lon="9.16757">
        <ele>1364.8</ele>
        <time>2015-06-22T08:53:01Z</time>
      </trkpt>
      <trkpt lat="42.06016" lon="9.16754">
        <ele>1364.4</ele>
        <time>2015-06-22T08:53:03Z</time>
      </trkpt>
      <trkpt lat="42.06022" lon="9.16743">
        <ele>1363</ele>
        <time>2015-06-22T08:53:12Z</time>
      </trkpt>
      <trkpt lat="42.06025" lon="9.16735">
        <ele>1361.8</ele>
        <time>2015-06-22T08:53:20Z</time>
      </trkpt>
      <trkpt lat="42.06032" lon="9.16724">
        <ele>1360.4</ele>
        <time>2015-06-22T08:53:30Z</time>
      </trkpt>
      <trkpt lat="42.06035" lon="9.16724">
        <ele>1360.2</ele>
        <time>2015-06-22T08:53:34Z</time>
      </trkpt>
      <trkpt lat="42.06055" lon="9.16735">
        <ele>1359</ele>
        <time>2015-06-22T08:53:51Z</time>
      </trkpt>
      <trkpt lat="42.06071" lon="9.16735">
        <ele>1359</ele>
        <time>2015-06-22T08:54:06Z</time>
      </trkpt>
      <trkpt lat="42.06076" lon="9.16727">
        <ele>1360.4</ele>
        <time>2015-06-22T08:54:15Z</time>
      </trkpt>
      <trkpt lat="42.0608" lon="9.16721">
        <ele>1361</ele>
        <time>2015-06-22T08:54:22Z</time>
      </trkpt>
      <trkpt lat="42.06081" lon="9.1672">
        <ele>1361</ele>
        <time>2015-06-22T08:54:23Z</time>
      </trkpt>
      <trkpt lat="42.06083" lon="9.16713">
        <ele>1361.8</ele>
        <time>2015-06-22T08:54:28Z</time>
      </trkpt>
      <trkpt lat="42.06089" lon="9.16701">
        <ele>1363.4</ele>
        <time>2015-06-22T08:54:38Z</time>
      </trkpt>
      <trkpt lat="42.06114" lon="9.16702">
        <ele>1363.6</ele>
        <time>2015-06-22T08:55:16Z</time>
      </trkpt>
      <trkpt lat="42.06125" lon="9.16715">
        <ele>1362.4</ele>
        <time>2015-06-22T08:55:29Z</time>
      </trkpt>
      <trkpt lat="42.06131" lon="9.16722">
        <ele>1361.8</ele>
        <time>2015-06-22T08:55:37Z</time>
      </trkpt>
      <trkpt lat="42.06139" lon="9.16729">
        <ele>1360.4</ele>
        <time>2015-06-22T08:55:45Z</time>
      </trkpt>
      <trkpt lat="42.06148" lon="9.16735">
        <ele>1359.4</ele>
        <time>2015-06-22T08:55:56Z</time>
      </trkpt>
      <trkpt lat="42.06153" lon="9.16738">
        <ele>1358.8</ele>
        <time>2015-06-22T08:56:03Z</time>
      </trkpt>
      <trkpt lat="42.06166" lon="9.16744">
        <ele>1357.4</ele>
        <time>2015-06-22T08:56:14Z</time>
      </trkpt>
      <trkpt lat="42.06178" lon="9.16749">
        <ele>1356.2</ele>
        <time>2015-06-22T08:56:23Z</time>
      </trkpt>
      <trkpt lat="42.06182" lon="9.16751">
        <ele>1355.8</ele>
        <time>2015-06-22T08:56:29Z</time>
      </trkpt>
      <trkpt lat="42.06185" lon="9.16755">
        <ele>1354.4</ele>
        <time>2015-06-22T08:56:36Z</time>
      </trkpt>
      <trkpt lat="42.0619" lon="9.1676">
        <ele>1353.4</ele>
        <time>2015-06-22T08:56:42Z</time>
      </trkpt>
      <trkpt lat="42.06198" lon="9.16764">
        <ele>1352.8</ele>
        <time>2015-06-22T08:56:50Z</time>
      </trkpt>
      <trkpt lat="42.06209" lon="9.1676">
        <ele>1351.8</ele>
        <time>2015-06-22T08:57:04Z</time>
      </trkpt>
      <trkpt lat="42.06216" lon="9.16747">
        <ele>1351.6</ele>
        <time>2015-06-22T08:57:15Z</time>
      </trkpt>
      <trkpt lat="42.06226" lon="9.16734">
        <ele>1350.8</ele>
        <time>2015-06-22T08:57:27Z</time>
      </trkpt>
      <trkpt lat="42.06233" lon="9.16722">
        <ele>1349.8</ele>
        <time>2015-06-22T08:57:38Z</time>
      </trkpt>
      <trkpt lat="42.06238" lon="9.16715">
        <ele>1349.4</ele>
        <time>2015-06-22T08:57:43Z</time>
      </trkpt>
      <trkpt lat="42.06276" lon="9.1668">
        <ele>1348.2</ele>
        <time>2015-06-22T08:58:34Z</time>
      </trkpt>
      <trkpt lat="42.06281" lon="9.16674">
        <ele>1347.6</ele>
        <time>2015-06-22T08:58:43Z</time>
      </trkpt>
      <trkpt lat="42.06284" lon="9.16672">
        <ele>1347.2</ele>
        <time>2015-06-22T08:58:48Z</time>
      </trkpt>
      <trkpt lat="42.06292" lon="9.16675">
        <ele>1346.6</ele>
        <time>2015-06-22T08:59:05Z</time>
      </trkpt>
      <trkpt lat="42.06298" lon="9.16681">
        <ele>1345.4</ele>
        <time>2015-06-22T08:59:18Z</time>
      </trkpt>
      <trkpt lat="42.06301" lon="9.16683">
        <ele>1345</ele>
        <time>2015-06-22T08:59:24Z</time>
      </trkpt>
      <trkpt lat="42.0631" lon="9.1668">
        <ele>1343.6</ele>
        <time>2015-06-22T08:59:37Z</time>
      </trkpt>
      <trkpt lat="42.06316" lon="9.16675">
        <ele>1342.6</ele>
        <time>2015-06-22T08:59:46Z</time>
      </trkpt>
      <trkpt lat="42.0632" lon="9.16674">
        <ele>1341.6</ele>
        <time>2015-06-22T08:59:53Z</time>
      </trkpt>
      <trkpt lat="42.06327" lon="9.16672">
        <ele>1340.6</ele>
        <time>2015-06-22T08:59:59Z</time>
      </trkpt>
      <trkpt lat="42.06328" lon="9.16672">
        <ele>1340.6</ele>
        <time>2015-06-22T09:00:00Z</time>
      </trkpt>
      <trkpt lat="42.06345" lon="9.16669">
        <ele>1339</ele>
        <time>2015-06-22T09:00:14Z</time>
      </trkpt>
      <trkpt lat="42.06363" lon="9.16661">
        <ele>1338.4</ele>
        <time>2015-06-22T09:00:32Z</time>
      </trkpt>
      <trkpt lat="42.06368" lon="9.16662">
        <ele>1338.4</ele>
        <time>2015-06-22T09:00:38Z</time>
      </trkpt>
      <trkpt lat="42.0637" lon="9.16661">
        <ele>1338.4</ele>
        <time>2015-06-22T09:00:41Z</time>
      </trkpt>
      <trkpt lat="42.06377" lon="9.16674">
        <ele>1338.6</ele>
        <time>2015-06-22T09:01:29Z</time>
      </trkpt>
      <trkpt lat="42.06379" lon="9.16673">
        <ele>1336.6</ele>
        <time>2015-06-22T09:01:42Z</time>
      </trkpt>
      <trkpt lat="42.0639" lon="9.16677">
        <ele>1335.8</ele>
        <time>2015-06-22T09:01:55Z</time>
      </trkpt>
      <trkpt lat="42.0639" lon="9.16678">
        <ele>1335.8</ele>
        <time>2015-06-22T09:01:56Z</time>
      </trkpt>
      <trkpt lat="42.06391" lon="9.16681">
        <ele>1335</ele>
        <time>2015-06-22T09:02:04Z</time>
      </trkpt>
      <trkpt lat="42.06391" lon="9.16686">
        <ele>1333.8</ele>
        <time>2015-06-22T09:02:11Z</time>
      </trkpt>
      <trkpt lat="42.06392" lon="9.16687">
        <ele>1333</ele>
        <time>2015-06-22T09:02:16Z</time>
      </trkpt>
      <trkpt lat="42.06402" lon="9.16696">
        <ele>1331</ele>
        <time>2015-06-22T09:02:33Z</time>
      </trkpt>
      <trkpt lat="42.0643" lon="9.16691">
        <ele>1330</ele>
        <time>2015-06-22T09:03:06Z</time>
      </trkpt>
      <trkpt lat="42.06444" lon="9.1669">
        <ele>1328.8</ele>
        <time>2015-06-22T09:03:25Z</time>
      </trkpt>
      <trkpt lat="42.06452" lon="9.16693">
        <ele>1328.4</ele>
        <time>2015-06-22T09:03:31Z</time>
      </trkpt>
      <trkpt lat="42.06479" lon="9.16699">
        <ele>1327.6</ele>
        <time>2015-06-22T09:03:53Z</time>
      </trkpt>
      <trkpt lat="42.0652" lon="9.16715">
        <ele>1327.6</ele>
        <time>2015-06-22T09:04:37Z</time>
      </trkpt>
      <trkpt lat="42.06554" lon="9.16713">
        <ele>1329.2</ele>
        <time>2015-06-22T09:05:10Z</time>
      </trkpt>
      <trkpt lat="42.06575" lon="9.16697">
        <ele>1330.2</ele>
        <time>2015-06-22T09:05:40Z</time>
      </trkpt>
      <trkpt lat="42.06598" lon="9.16688">
        <ele>1329.8</ele>
        <time>2015-06-22T09:06:03Z</time>
      </trkpt>
      <trkpt lat="42.06606" lon="9.16687">
        <ele>1329.4</ele>
        <time>2015-06-22T09:06:11Z</time>
      </trkpt>
      <trkpt lat="42.06621" lon="9.16687">
        <ele>1329.2</ele>
        <time>2015-06-22T09:06:29Z</time>
      </trkpt>
      <trkpt lat="42.06642" lon="9.16697">
        <ele>1330.4</ele>
        <time>2015-06-22T09:06:50Z</time>
      </trkpt>
      <trkpt lat="42.0665" lon="9.16699">
        <ele>1330.8</ele>
        <time>2015-06-22T09:06:58Z</time>
      </trkpt>
      <trkpt lat="42.06661" lon="9.16698">
        <ele>1332</ele>
        <time>2015-06-22T09:07:09Z</time>
      </trkpt>
      <trkpt lat="42.06669" lon="9.16696">
        <ele>1333.4</ele>
        <time>2015-06-22T09:07:18Z</time>
      </trkpt>
      <trkpt lat="42.06676" lon="9.16688">
        <ele>1334.4</ele>
        <time>2015-06-22T09:07:30Z</time>
      </trkpt>
      <trkpt lat="42.06681" lon="9.16683">
        <ele>1335.4</ele>
        <time>2015-06-22T09:07:38Z</time>
      </trkpt>
      <trkpt lat="42.06683" lon="9.1668">
        <ele>1336</ele>
        <time>2015-06-22T09:07:41Z</time>
      </trkpt>
      <trkpt lat="42.06689" lon="9.16673">
        <ele>1336.8</ele>
        <time>2015-06-22T09:07:47Z</time>
      </trkpt>
      <trkpt lat="42.06696" lon="9.16667">
        <ele>1337.8</ele>
        <time>2015-06-22T09:07:58Z</time>
      </trkpt>
      <trkpt lat="42.06705" lon="9.16647">
        <ele>1339.4</ele>
        <time>2015-06-22T09:08:22Z</time>
      </trkpt>
      <trkpt lat="42.06706" lon="9.16645">
        <ele>1339.6</ele>
        <time>2015-06-22T09:08:24Z</time>
      </trkpt>
      <trkpt lat="42.06711" lon="9.16622">
        <ele>1340.6</ele>
        <time>2015-06-22T09:08:43Z</time>
      </trkpt>
      <trkpt lat="42.06712" lon="9.16616">
        <ele>1341.2</ele>
        <time>2015-06-22T09:08:50Z</time>
      </trkpt>
      <trkpt lat="42.06715" lon="9.16607">
        <ele>1342.6</ele>
        <time>2015-06-22T09:09:00Z</time>
      </trkpt>
      <trkpt lat="42.06718" lon="9.16601">
        <ele>1343.2</ele>
        <time>2015-06-22T09:09:06Z</time>
      </trkpt>
      <trkpt lat="42.06719" lon="9.16598">
        <ele>1343.2</ele>
        <time>2015-06-22T09:09:08Z</time>
      </trkpt>
      <trkpt lat="42.06722" lon="9.16595">
        <ele>1343.4</ele>
        <time>2015-06-22T09:09:11Z</time>
      </trkpt>
      <trkpt lat="42.0673" lon="9.16581">
        <ele>1343.2</ele>
        <time>2015-06-22T09:09:29Z</time>
      </trkpt>
      <trkpt lat="42.06743" lon="9.16573">
        <ele>1342</ele>
        <time>2015-06-22T09:10:37Z</time>
      </trkpt>
      <trkpt lat="42.06748" lon="9.1657">
        <ele>1341.4</ele>
        <time>2015-06-22T09:10:50Z</time>
      </trkpt>
      <trkpt lat="42.06748" lon="9.1657">
        <ele>1341</ele>
        <time>2015-06-22T09:10:55Z</time>
      </trkpt>
      <trkpt lat="42.0675" lon="9.16569">
        <ele>1339.8</ele>
        <time>2015-06-22T09:11:01Z</time>
      </trkpt>
      <trkpt lat="42.06752" lon="9.16565">
        <ele>1338.6</ele>
        <time>2015-06-22T09:11:07Z</time>
      </trkpt>
      <trkpt lat="42.06754" lon="9.16557">
        <ele>1337.2</ele>
        <time>2015-06-22T09:11:16Z</time>
      </trkpt>
      <trkpt lat="42.06756" lon="9.16552">
        <ele>1336.8</ele>
        <time>2015-06-22T09:11:21Z</time>
      </trkpt>
      <trkpt lat="42.06757" lon="9.16546">
        <ele>1335.6</ele>
        <time>2015-06-22T09:11:26Z</time>
      </trkpt>
      <trkpt lat="42.06754" lon="9.16512">
        <ele>1335</ele>
        <time>2015-06-22T09:11:53Z</time>
      </trkpt>
      <trkpt lat="42.06753" lon="9.16511">
        <ele>1335</ele>
        <time>2015-06-22T09:11:54Z</time>
      </trkpt>
      <trkpt lat="42.06752" lon="9.1651">
        <ele>1335.2</ele>
        <time>2015-06-22T09:11:55Z</time>
      </trkpt>
      <trkpt lat="42.06751" lon="9.16506">
        <ele>1335.2</ele>
        <time>2015-06-22T09:11:59Z</time>
      </trkpt>
      <trkpt lat="42.06748" lon="9.16494">
        <ele>1335.6</ele>
        <time>2015-06-22T09:12:09Z</time>
      </trkpt>
      <trkpt lat="42.06746" lon="9.16488">
        <ele>1335.4</ele>
        <time>2015-06-22T09:12:14Z</time>
      </trkpt>
      <trkpt lat="42.06743" lon="9.16472">
        <ele>1335.6</ele>
        <time>2015-06-22T09:12:28Z</time>
      </trkpt>
      <trkpt lat="42.06745" lon="9.16464">
        <ele>1335.8</ele>
        <time>2015-06-22T09:12:34Z</time>
      </trkpt>
      <trkpt lat="42.06745" lon="9.1646">
        <ele>1335.8</ele>
        <time>2015-06-22T09:12:37Z</time>
      </trkpt>
      <trkpt lat="42.06747" lon="9.16449">
        <ele>1336.4</ele>
        <time>2015-06-22T09:12:47Z</time>
      </trkpt>
      <trkpt lat="42.0675" lon="9.16442">
        <ele>1337</ele>
        <time>2015-06-22T09:12:55Z</time>
      </trkpt>
      <trkpt lat="42.06752" lon="9.16436">
        <ele>1337.8</ele>
        <time>2015-06-22T09:13:02Z</time>
      </trkpt>
      <trkpt lat="42.06755" lon="9.16423">
        <ele>1339.4</ele>
        <time>2015-06-22T09:13:16Z</time>
      </trkpt>
      <trkpt lat="42.06756" lon="9.16419">
        <ele>1339.4</ele>
        <time>2015-06-22T09:13:19Z</time>
      </trkpt>
      <trkpt lat="42.06758" lon="9.16411">
        <ele>1339.6</ele>
        <time>2015-06-22T09:13:23Z</time>
      </trkpt>
      <trkpt lat="42.06761" lon="9.16403">
        <ele>1340.6</ele>
        <time>2015-06-22T09:13:31Z</time>
      </trkpt>
      <trkpt lat="42.06765" lon="9.16398">
        <ele>1341.2</ele>
        <time>2015-06-22T09:13:36Z</time>
      </trkpt>
      <trkpt lat="42.06766" lon="9.16397">
        <ele>1341.6</ele>
        <time>2015-06-22T09:13:37Z</time>
      </trkpt>
      <trkpt lat="42.06767" lon="9.16395">
        <ele>1342.6</ele>
        <time>2015-06-22T09:13:41Z</time>
      </trkpt>
      <trkpt lat="42.0677" lon="9.16392">
        <ele>1343.4</ele>
        <time>2015-06-22T09:13:46Z</time>
      </trkpt>
      <trkpt lat="42.06787" lon="9.16374">
        <ele>1344.8</ele>
        <time>2015-06-22T09:14:13Z</time>
      </trkpt>
      <trkpt lat="42.06789" lon="9.16371">
        <ele>1344.8</ele>
        <time>2015-06-22T09:14:15Z</time>
      </trkpt>
      <trkpt lat="42.06794" lon="9.16366">
        <ele>1345</ele>
        <time>2015-06-22T09:14:20Z</time>
      </trkpt>
      <trkpt lat="42.0683" lon="9.16327">
        <ele>1345.6</ele>
        <time>2015-06-22T09:15:09Z</time>
      </trkpt>
      <trkpt lat="42.06841" lon="9.16318">
        <ele>1346</ele>
        <time>2015-06-22T09:15:22Z</time>
      </trkpt>
      <trkpt lat="42.06857" lon="9.16297">
        <ele>1345</ele>
        <time>2015-06-22T09:15:50Z</time>
      </trkpt>
      <trkpt lat="42.06857" lon="9.16289">
        <ele>1344.6</ele>
        <time>2015-06-22T09:15:57Z</time>
      </trkpt>
      <trkpt lat="42.06857" lon="9.16283">
        <ele>1344.2</ele>
        <time>2015-06-22T09:16:02Z</time>
      </trkpt>
      <trkpt lat="42.06857" lon="9.16282">
        <ele>1344.2</ele>
        <time>2015-06-22T09:16:03Z</time>
      </trkpt>
      <trkpt lat="42.06858" lon="9.16278">
        <ele>1343.8</ele>
        <time>2015-06-22T09:16:07Z</time>
      </trkpt>
      <trkpt lat="42.06859" lon="9.16274">
        <ele>1343</ele>
        <time>2015-06-22T09:16:12Z</time>
      </trkpt>
      <trkpt lat="42.0686" lon="9.16269">
        <ele>1341.6</ele>
        <time>2015-06-22T09:16:17Z</time>
      </trkpt>
      <trkpt lat="42.0686" lon="9.16266">
        <ele>1341.6</ele>
        <time>2015-06-22T09:16:19Z</time>
      </trkpt>
      <trkpt lat="42.0686" lon="9.16256">
        <ele>1341</ele>
        <time>2015-06-22T09:16:25Z</time>
      </trkpt>
      <trkpt lat="42.06863" lon="9.16236">
        <ele>1340.4</ele>
        <time>2015-06-22T09:16:43Z</time>
      </trkpt>
      <trkpt lat="42.06865" lon="9.1623">
        <ele>1339.8</ele>
        <time>2015-06-22T09:16:48Z</time>
      </trkpt>
      <trkpt lat="42.06865" lon="9.16228">
        <ele>1339.4</ele>
        <time>2015-06-22T09:16:50Z</time>
      </trkpt>
      <trkpt lat="42.0687" lon="9.16221">
        <ele>1338.8</ele>
        <time>2015-06-22T09:16:56Z</time>
      </trkpt>
      <trkpt lat="42.06875" lon="9.16213">
        <ele>1337.4</ele>
        <time>2015-06-22T09:17:06Z</time>
      </trkpt>
      <trkpt lat="42.06879" lon="9.16212">
        <ele>1336.6</ele>
        <time>2015-06-22T09:17:13Z</time>
      </trkpt>
      <trkpt lat="42.06883" lon="9.1621">
        <ele>1335.6</ele>
        <time>2015-06-22T09:17:19Z</time>
      </trkpt>
      <trkpt lat="42.06886" lon="9.1621">
        <ele>1334.4</ele>
        <time>2015-06-22T09:17:25Z</time>
      </trkpt>
      <trkpt lat="42.06895" lon="9.1621">
        <ele>1333.4</ele>
        <time>2015-06-22T09:17:32Z</time>
      </trkpt>
      <trkpt lat="42.06897" lon="9.16209">
        <ele>1333.2</ele>
        <time>2015-06-22T09:17:34Z</time>
      </trkpt>
      <trkpt lat="42.06899" lon="9.16209">
        <ele>1333</ele>
        <time>2015-06-22T09:17:36Z</time>
      </trkpt>
      <trkpt lat="42.06901" lon="9.1621">
        <ele>1332.8</ele>
        <time>2015-06-22T09:17:37Z</time>
      </trkpt>
      <trkpt lat="42.06906" lon="9.16216">
        <ele>1332</ele>
        <time>2015-06-22T09:17:46Z</time>
      </trkpt>
      <trkpt lat="42.06913" lon="9.16218">
        <ele>1331.2</ele>
        <time>2015-06-22T09:17:52Z</time>
      </trkpt>
      <trkpt lat="42.06939" lon="9.16189">
        <ele>1331.4</ele>
        <time>2015-06-22T09:18:30Z</time>
      </trkpt>
      <trkpt lat="42.0694" lon="9.16185">
        <ele>1331.2</ele>
        <time>2015-06-22T09:18:33Z</time>
      </trkpt>
      <trkpt lat="42.06942" lon="9.16182">
        <ele>1331.2</ele>
        <time>2015-06-22T09:18:35Z</time>
      </trkpt>
      <trkpt lat="42.06969" lon="9.16132">
        <ele>1332.4</ele>
        <time>2015-06-22T09:19:19Z</time>
      </trkpt>
      <trkpt lat="42.06973" lon="9.16113">
        <ele>1331.2</ele>
        <time>2015-06-22T09:19:35Z</time>
      </trkpt>
      <trkpt lat="42.06982" lon="9.16096">
        <ele>1330.8</ele>
        <time>2015-06-22T09:19:56Z</time>
      </trkpt>
      <trkpt lat="42.06992" lon="9.16071">
        <ele>1332.4</ele>
        <time>2015-06-22T09:20:18Z</time>
      </trkpt>
      <trkpt lat="42.06993" lon="9.16069">
        <ele>1332.4</ele>
        <time>2015-06-22T09:20:20Z</time>
      </trkpt>
      <trkpt lat="42.06994" lon="9.16068">
        <ele>1332.6</ele>
        <time>2015-06-22T09:20:22Z</time>
      </trkpt>
      <trkpt lat="42.06995" lon="9.16065">
        <ele>1332.8</ele>
        <time>2015-06-22T09:20:24Z</time>
      </trkpt>
      <trkpt lat="42.06996" lon="9.16062">
        <ele>1333.2</ele>
        <time>2015-06-22T09:20:27Z</time>
      </trkpt>
      <trkpt lat="42.06995" lon="9.16058">
        <ele>1333.4</ele>
        <time>2015-06-22T09:20:30Z</time>
      </trkpt>
      <trkpt lat="42.06996" lon="9.16054">
        <ele>1333.4</ele>
        <time>2015-06-22T09:20:34Z</time>
      </trkpt>
      <trkpt lat="42.06998" lon="9.16048">
        <ele>1334</ele>
        <time>2015-06-22T09:20:43Z</time>
      </trkpt>
      <trkpt lat="42.07001" lon="9.16036">
        <ele>1334.2</ele>
        <time>2015-06-22T09:20:52Z</time>
      </trkpt>
      <trkpt lat="42.07003" lon="9.16032">
        <ele>1334.6</ele>
        <time>2015-06-22T09:20:56Z</time>
      </trkpt>
      <trkpt lat="42.07004" lon="9.16028">
        <ele>1334.8</ele>
        <time>2015-06-22T09:20:59Z</time>
      </trkpt>
      <trkpt lat="42.07007" lon="9.16023">
        <ele>1335.2</ele>
        <time>2015-06-22T09:21:04Z</time>
      </trkpt>
      <trkpt lat="42.07008" lon="9.16021">
        <ele>1335.2</ele>
        <time>2015-06-22T09:21:06Z</time>
      </trkpt>
      <trkpt lat="42.0701" lon="9.16016">
        <ele>1335.6</ele>
        <time>2015-06-22T09:21:10Z</time>
      </trkpt>
      <trkpt lat="42.07016" lon="9.16004">
        <ele>1336.8</ele>
        <time>2015-06-22T09:21:24Z</time>
      </trkpt>
      <trkpt lat="42.07019" lon="9.15998">
        <ele>1337</ele>
        <time>2015-06-22T09:21:29Z</time>
      </trkpt>
      <trkpt lat="42.07021" lon="9.15993">
        <ele>1337.2</ele>
        <time>2015-06-22T09:21:34Z</time>
      </trkpt>
      <trkpt lat="42.0702" lon="9.1599">
        <ele>1337.4</ele>
        <time>2015-06-22T09:21:36Z</time>
      </trkpt>
      <trkpt lat="42.07026" lon="9.15973">
        <ele>1337.8</ele>
        <time>2015-06-22T09:21:56Z</time>
      </trkpt>
      <trkpt lat="42.07027" lon="9.1597">
        <ele>1338</ele>
        <time>2015-06-22T09:22:00Z</time>
      </trkpt>
      <trkpt lat="42.07029" lon="9.15968">
        <ele>1338</ele>
        <time>2015-06-22T09:22:03Z</time>
      </trkpt>
      <trkpt lat="42.07031" lon="9.15964">
        <ele>1338.4</ele>
        <time>2015-06-22T09:22:08Z</time>
      </trkpt>
      <trkpt lat="42.07034" lon="9.15959">
        <ele>1338.6</ele>
        <time>2015-06-22T09:22:12Z</time>
      </trkpt>
      <trkpt lat="42.07036" lon="9.15958">
        <ele>1338.6</ele>
        <time>2015-06-22T09:22:14Z</time>
      </trkpt>
      <trkpt lat="42.07058" lon="9.15927">
        <ele>1338.2</ele>
        <time>2015-06-22T09:22:42Z</time>
      </trkpt>
      <trkpt lat="42.07069" lon="9.15917">
        <ele>1338</ele>
        <time>2015-06-22T09:22:55Z</time>
      </trkpt>
      <trkpt lat="42.07076" lon="9.15907">
        <ele>1338.8</ele>
        <time>2015-06-22T09:23:08Z</time>
      </trkpt>
      <trkpt lat="42.07088" lon="9.15881">
        <ele>1340.2</ele>
        <time>2015-06-22T09:23:29Z</time>
      </trkpt>
      <trkpt lat="42.07108" lon="9.1586">
        <ele>1341.4</ele>
        <time>2015-06-22T09:23:53Z</time>
      </trkpt>
      <trkpt lat="42.0712" lon="9.15855">
        <ele>1342</ele>
        <time>2015-06-22T09:24:05Z</time>
      </trkpt>
      <trkpt lat="42.07121" lon="9.15853">
        <ele>1342</ele>
        <time>2015-06-22T09:24:07Z</time>
      </trkpt>
      <trkpt lat="42.07121" lon="9.15838">
        <ele>1342.4</ele>
        <time>2015-06-22T09:24:23Z</time>
      </trkpt>
      <trkpt lat="42.07124" lon="9.15834">
        <ele>1343.4</ele>
        <time>2015-06-22T09:24:32Z</time>
      </trkpt>
      <trkpt lat="42.07124" lon="9.15831">
        <ele>1344.4</ele>
        <time>2015-06-22T09:24:38Z</time>
      </trkpt>
      <trkpt lat="42.07126" lon="9.1583">
        <ele>1345.8</ele>
        <time>2015-06-22T09:24:47Z</time>
      </trkpt>
      <trkpt lat="42.0713" lon="9.15834">
        <ele>1347</ele>
        <time>2015-06-22T09:24:57Z</time>
      </trkpt>
      <trkpt lat="42.07135" lon="9.15832">
        <ele>1348.4</ele>
        <time>2015-06-22T09:25:06Z</time>
      </trkpt>
      <trkpt lat="42.07139" lon="9.15827">
        <ele>1349.6</ele>
        <time>2015-06-22T09:25:18Z</time>
      </trkpt>
      <trkpt lat="42.07141" lon="9.15825">
        <ele>1350.6</ele>
        <time>2015-06-22T09:25:28Z</time>
      </trkpt>
      <trkpt lat="42.07145" lon="9.15824">
        <ele>1351.6</ele>
        <time>2015-06-22T09:25:37Z</time>
      </trkpt>
      <trkpt lat="42.07145" lon="9.15819">
        <ele>1352.4</ele>
        <time>2015-06-22T09:25:43Z</time>
      </trkpt>
      <trkpt lat="42.07144" lon="9.15813">
        <ele>1354</ele>
        <time>2015-06-22T09:25:50Z</time>
      </trkpt>
      <trkpt lat="42.0714" lon="9.15804">
        <ele>1355.4</ele>
        <time>2015-06-22T09:26:00Z</time>
      </trkpt>
      <trkpt lat="42.07136" lon="9.15798">
        <ele>1356.2</ele>
        <time>2015-06-22T09:26:08Z</time>
      </trkpt>
      <trkpt lat="42.07132" lon="9.15792">
        <ele>1356.6</ele>
        <time>2015-06-22T09:26:13Z</time>
      </trkpt>
      <trkpt lat="42.07132" lon="9.15791">
        <ele>1356.8</ele>
        <time>2015-06-22T09:26:15Z</time>
      </trkpt>
      <trkpt lat="42.07133" lon="9.1579">
        <ele>1356.8</ele>
        <time>2015-06-22T09:26:16Z</time>
      </trkpt>
      <trkpt lat="42.0714" lon="9.15791">
        <ele>1357.6</ele>
        <time>2015-06-22T09:26:27Z</time>
      </trkpt>
      <trkpt lat="42.07143" lon="9.15789">
        <ele>1358.8</ele>
        <time>2015-06-22T09:26:34Z</time>
      </trkpt>
      <trkpt lat="42.0714" lon="9.15783">
        <ele>1360.2</ele>
        <time>2015-06-22T09:26:42Z</time>
      </trkpt>
      <trkpt lat="42.07143" lon="9.15777">
        <ele>1361.4</ele>
        <time>2015-06-22T09:26:55Z</time>
      </trkpt>
      <trkpt lat="42.07142" lon="9.15773">
        <ele>1362.6</ele>
        <time>2015-06-22T09:27:03Z</time>
      </trkpt>
      <trkpt lat="42.07144" lon="9.15771">
        <ele>1363.6</ele>
        <time>2015-06-22T09:27:12Z</time>
      </trkpt>
      <trkpt lat="42.07142" lon="9.15765">
        <ele>1365</ele>
        <time>2015-06-22T09:27:21Z</time>
      </trkpt>
      <trkpt lat="42.07143" lon="9.15756">
        <ele>1366.4</ele>
        <time>2015-06-22T09:27:32Z</time>
      </trkpt>
      <trkpt lat="42.07146" lon="9.15752">
        <ele>1367.6</ele>
        <time>2015-06-22T09:27:42Z</time>
      </trkpt>
      <trkpt lat="42.07149" lon="9.15754">
        <ele>1368.8</ele>
        <time>2015-06-22T09:27:52Z</time>
      </trkpt>
      <trkpt lat="42.07152" lon="9.15753">
        <ele>1369.8</ele>
        <time>2015-06-22T09:28:03Z</time>
      </trkpt>
      <trkpt lat="42.07152" lon="9.15749">
        <ele>1370.4</ele>
        <time>2015-06-22T09:28:14Z</time>
      </trkpt>
      <trkpt lat="42.07154" lon="9.15746">
        <ele>1371</ele>
        <time>2015-06-22T09:28:24Z</time>
      </trkpt>
      <trkpt lat="42.07154" lon="9.15743">
        <ele>1372.2</ele>
        <time>2015-06-22T09:28:32Z</time>
      </trkpt>
      <trkpt lat="42.07154" lon="9.15739">
        <ele>1373</ele>
        <time>2015-06-22T09:28:35Z</time>
      </trkpt>
      <trkpt lat="42.07153" lon="9.15735">
        <ele>1373.8</ele>
        <time>2015-06-22T09:28:41Z</time>
      </trkpt>
      <trkpt lat="42.07155" lon="9.15734">
        <ele>1374.8</ele>
        <time>2015-06-22T09:28:48Z</time>
      </trkpt>
      <trkpt lat="42.07156" lon="9.15731">
        <ele>1375.6</ele>
        <time>2015-06-22T09:28:54Z</time>
      </trkpt>
      <trkpt lat="42.07158" lon="9.15726">
        <ele>1377</ele>
        <time>2015-06-22T09:29:01Z</time>
      </trkpt>
      <trkpt lat="42.07161" lon="9.15719">
        <ele>1378.6</ele>
        <time>2015-06-22T09:29:21Z</time>
      </trkpt>
      <trkpt lat="42.07157" lon="9.15702">
        <ele>1380.4</ele>
        <time>2015-06-22T09:29:42Z</time>
      </trkpt>
      <trkpt lat="42.07153" lon="9.15698">
        <ele>1381.4</ele>
        <time>2015-06-22T09:29:54Z</time>
      </trkpt>
      <trkpt lat="42.0715" lon="9.15692">
        <ele>1382</ele>
        <time>2015-06-22T09:30:00Z</time>
      </trkpt>
      <trkpt lat="42.0715" lon="9.1569">
        <ele>1382.4</ele>
        <time>2015-06-22T09:30:03Z</time>
      </trkpt>
      <trkpt lat="42.07148" lon="9.15683">
        <ele>1383.2</ele>
        <time>2015-06-22T09:30:08Z</time>
      </trkpt>
      <trkpt lat="42.07147" lon="9.15679">
        <ele>1383.4</ele>
        <time>2015-06-22T09:30:11Z</time>
      </trkpt>
      <trkpt lat="42.07146" lon="9.15667">
        <ele>1384.8</ele>
        <time>2015-06-22T09:30:24Z</time>
      </trkpt>
      <trkpt lat="42.07145" lon="9.15664">
        <ele>1385.2</ele>
        <time>2015-06-22T09:30:28Z</time>
      </trkpt>
      <trkpt lat="42.07144" lon="9.15657">
        <ele>1385.6</ele>
        <time>2015-06-22T09:30:33Z</time>
      </trkpt>
      <trkpt lat="42.07144" lon="9.15656">
        <ele>1385.8</ele>
        <time>2015-06-22T09:30:34Z</time>
      </trkpt>
      <trkpt lat="42.07143" lon="9.1565">
        <ele>1387.2</ele>
        <time>2015-06-22T09:30:42Z</time>
      </trkpt>
      <trkpt lat="42.07145" lon="9.15643">
        <ele>1388.6</ele>
        <time>2015-06-22T09:30:52Z</time>
      </trkpt>
      <trkpt lat="42.07146" lon="9.1564">
        <ele>1389.8</ele>
        <time>2015-06-22T09:30:59Z</time>
      </trkpt>
      <trkpt lat="42.07144" lon="9.15639">
        <ele>1391.6</ele>
        <time>2015-06-22T09:31:13Z</time>
      </trkpt>
      <trkpt lat="42.07149" lon="9.15639">
        <ele>1393</ele>
        <time>2015-06-22T09:31:27Z</time>
      </trkpt>
      <trkpt lat="42.07154" lon="9.15636">
        <ele>1393.4</ele>
        <time>2015-06-22T09:31:33Z</time>
      </trkpt>
      <trkpt lat="42.07154" lon="9.15635">
        <ele>1393.8</ele>
        <time>2015-06-22T09:31:35Z</time>
      </trkpt>
      <trkpt lat="42.07154" lon="9.15632">
        <ele>1395.2</ele>
        <time>2015-06-22T09:31:43Z</time>
      </trkpt>
      <trkpt lat="42.07152" lon="9.15625">
        <ele>1396.6</ele>
        <time>2015-06-22T09:31:54Z</time>
      </trkpt>
      <trkpt lat="42.07152" lon="9.1562">
        <ele>1397</ele>
        <time>2015-06-22T09:31:58Z</time>
      </trkpt>
      <trkpt lat="42.0715" lon="9.15614">
        <ele>1397.8</ele>
        <time>2015-06-22T09:32:02Z</time>
      </trkpt>
      <trkpt lat="42.0715" lon="9.15605">
        <ele>1398</ele>
        <time>2015-06-22T09:32:06Z</time>
      </trkpt>
      <trkpt lat="42.0715" lon="9.15597">
        <ele>1398.4</ele>
        <time>2015-06-22T09:32:11Z</time>
      </trkpt>
      <trkpt lat="42.07149" lon="9.15595">
        <ele>1399</ele>
        <time>2015-06-22T09:32:14Z</time>
      </trkpt>
      <trkpt lat="42.07147" lon="9.1559">
        <ele>1399.8</ele>
        <time>2015-06-22T09:32:19Z</time>
      </trkpt>
      <trkpt lat="42.07146" lon="9.15587">
        <ele>1400.2</ele>
        <time>2015-06-22T09:32:21Z</time>
      </trkpt>
      <trkpt lat="42.07144" lon="9.1558">
        <ele>1401.4</ele>
        <time>2015-06-22T09:32:28Z</time>
      </trkpt>
      <trkpt lat="42.0714" lon="9.15571">
        <ele>1403</ele>
        <time>2015-06-22T09:32:38Z</time>
      </trkpt>
      <trkpt lat="42.07141" lon="9.1556">
        <ele>1404.4</ele>
        <time>2015-06-22T09:32:49Z</time>
      </trkpt>
      <trkpt lat="42.07141" lon="9.15556">
        <ele>1404.8</ele>
        <time>2015-06-22T09:32:52Z</time>
      </trkpt>
      <trkpt lat="42.07141" lon="9.15533">
        <ele>1405.8</ele>
        <time>2015-06-22T09:33:15Z</time>
      </trkpt>
      <trkpt lat="42.07142" lon="9.15527">
        <ele>1406.6</ele>
        <time>2015-06-22T09:33:24Z</time>
      </trkpt>
      <trkpt lat="42.07145" lon="9.15522">
        <ele>1408</ele>
        <time>2015-06-22T09:33:32Z</time>
      </trkpt>
      <trkpt lat="42.07143" lon="9.15518">
        <ele>1408.4</ele>
        <time>2015-06-22T09:33:36Z</time>
      </trkpt>
      <trkpt lat="42.07143" lon="9.15515">
        <ele>1409.4</ele>
        <time>2015-06-22T09:33:41Z</time>
      </trkpt>
      <trkpt lat="42.07145" lon="9.15509">
        <ele>1410.6</ele>
        <time>2015-06-22T09:33:53Z</time>
      </trkpt>
      <trkpt lat="42.07151" lon="9.15508">
        <ele>1411.6</ele>
        <time>2015-06-22T09:34:01Z</time>
      </trkpt>
      <trkpt lat="42.07152" lon="9.15508">
        <ele>1412.2</ele>
        <time>2015-06-22T09:34:05Z</time>
      </trkpt>
      <trkpt lat="42.07157" lon="9.15506">
        <ele>1413.2</ele>
        <time>2015-06-22T09:34:16Z</time>
      </trkpt>
      <trkpt lat="42.07156" lon="9.15505">
        <ele>1414.4</ele>
        <time>2015-06-22T09:34:26Z</time>
      </trkpt>
      <trkpt lat="42.07157" lon="9.15502">
        <ele>1415.8</ele>
        <time>2015-06-22T09:34:36Z</time>
      </trkpt>
      <trkpt lat="42.07155" lon="9.15497">
        <ele>1417.2</ele>
        <time>2015-06-22T09:34:48Z</time>
      </trkpt>
      <trkpt lat="42.07154" lon="9.15491">
        <ele>1418.6</ele>
        <time>2015-06-22T09:34:59Z</time>
      </trkpt>
      <trkpt lat="42.07153" lon="9.15485">
        <ele>1419.6</ele>
        <time>2015-06-22T09:35:06Z</time>
      </trkpt>
      <trkpt lat="42.07153" lon="9.15481">
        <ele>1420.6</ele>
        <time>2015-06-22T09:35:12Z</time>
      </trkpt>
      <trkpt lat="42.07152" lon="9.15477">
        <ele>1421.6</ele>
        <time>2015-06-22T09:35:17Z</time>
      </trkpt>
      <trkpt lat="42.07152" lon="9.1547">
        <ele>1421.8</ele>
        <time>2015-06-22T09:35:23Z</time>
      </trkpt>
      <trkpt lat="42.07152" lon="9.15468">
        <ele>1422.2</ele>
        <time>2015-06-22T09:35:25Z</time>
      </trkpt>
      <trkpt lat="42.0715" lon="9.15465">
        <ele>1422.8</ele>
        <time>2015-06-22T09:35:29Z</time>
      </trkpt>
      <trkpt lat="42.0715" lon="9.15465">
        <ele>1423</ele>
        <time>2015-06-22T09:35:31Z</time>
      </trkpt>
      <trkpt lat="42.07153" lon="9.15456">
        <ele>1425.2</ele>
        <time>2015-06-22T09:35:48Z</time>
      </trkpt>
      <trkpt lat="42.07152" lon="9.15452">
        <ele>1425.8</ele>
        <time>2015-06-22T09:35:56Z</time>
      </trkpt>
      <trkpt lat="42.07153" lon="9.15445">
        <ele>1427.4</ele>
        <time>2015-06-22T09:36:04Z</time>
      </trkpt>
      <trkpt lat="42.07152" lon="9.15439">
        <ele>1428.8</ele>
        <time>2015-06-22T09:36:16Z</time>
      </trkpt>
      <trkpt lat="42.07153" lon="9.15435">
        <ele>1429.6</ele>
        <time>2015-06-22T09:36:22Z</time>
      </trkpt>
      <trkpt lat="42.07154" lon="9.15425">
        <ele>1431.4</ele>
        <time>2015-06-22T09:36:34Z</time>
      </trkpt>
      <trkpt lat="42.07154" lon="9.15421">
        <ele>1432.2</ele>
        <time>2015-06-22T09:36:42Z</time>
      </trkpt>
      <trkpt lat="42.07154" lon="9.15412">
        <ele>1434</ele>
        <time>2015-06-22T09:36:53Z</time>
      </trkpt>
      <trkpt lat="42.07156" lon="9.15401">
        <ele>1435.2</ele>
        <time>2015-06-22T09:37:05Z</time>
      </trkpt>
      <trkpt lat="42.07157" lon="9.154">
        <ele>1435.8</ele>
        <time>2015-06-22T09:37:11Z</time>
      </trkpt>
      <trkpt lat="42.07166" lon="9.154">
        <ele>1437</ele>
        <time>2015-06-22T09:37:31Z</time>
      </trkpt>
      <trkpt lat="42.07167" lon="9.15398">
        <ele>1437.2</ele>
        <time>2015-06-22T09:37:33Z</time>
      </trkpt>
      <trkpt lat="42.07166" lon="9.15392">
        <ele>1438.4</ele>
        <time>2015-06-22T09:37:43Z</time>
      </trkpt>
      <trkpt lat="42.07166" lon="9.15383">
        <ele>1439.6</ele>
        <time>2015-06-22T09:37:53Z</time>
      </trkpt>
      <trkpt lat="42.07166" lon="9.1537">
        <ele>1440.8</ele>
        <time>2015-06-22T09:38:04Z</time>
      </trkpt>
      <trkpt lat="42.07165" lon="9.15363">
        <ele>1442</ele>
        <time>2015-06-22T09:38:13Z</time>
      </trkpt>
      <trkpt lat="42.07164" lon="9.15362">
        <ele>1442.4</ele>
        <time>2015-06-22T09:38:15Z</time>
      </trkpt>
      <trkpt lat="42.07162" lon="9.15359">
        <ele>1443.4</ele>
        <time>2015-06-22T09:38:23Z</time>
      </trkpt>
      <trkpt lat="42.0716" lon="9.15351">
        <ele>1444.6</ele>
        <time>2015-06-22T09:38:31Z</time>
      </trkpt>
      <trkpt lat="42.07159" lon="9.15349">
        <ele>1444.6</ele>
        <time>2015-06-22T09:38:33Z</time>
      </trkpt>
      <trkpt lat="42.07158" lon="9.1534">
        <ele>1446</ele>
        <time>2015-06-22T09:38:43Z</time>
      </trkpt>
      <trkpt lat="42.07157" lon="9.15328">
        <ele>1448</ele>
        <time>2015-06-22T09:39:02Z</time>
      </trkpt>
      <trkpt lat="42.07156" lon="9.15322">
        <ele>1449</ele>
        <time>2015-06-22T09:39:13Z</time>
      </trkpt>
      <trkpt lat="42.07161" lon="9.15312">
        <ele>1451</ele>
        <time>2015-06-22T09:39:26Z</time>
      </trkpt>
      <trkpt lat="42.07161" lon="9.1531">
        <ele>1451.4</ele>
        <time>2015-06-22T09:39:32Z</time>
      </trkpt>
      <trkpt lat="42.07158" lon="9.15307">
        <ele>1453</ele>
        <time>2015-06-22T09:39:40Z</time>
      </trkpt>
      <trkpt lat="42.07155" lon="9.15298">
        <ele>1455</ele>
        <time>2015-06-22T09:39:53Z</time>
      </trkpt>
      <trkpt lat="42.07154" lon="9.15289">
        <ele>1456.6</ele>
        <time>2015-06-22T09:40:09Z</time>
      </trkpt>
      <trkpt lat="42.07154" lon="9.15287">
        <ele>1456.8</ele>
        <time>2015-06-22T09:40:13Z</time>
      </trkpt>
      <trkpt lat="42.07145" lon="9.15266">
        <ele>1459.6</ele>
        <time>2015-06-22T09:40:48Z</time>
      </trkpt>
      <trkpt lat="42.07145" lon="9.15265">
        <ele>1459.6</ele>
        <time>2015-06-22T09:40:49Z</time>
      </trkpt>
      <trkpt lat="42.07144" lon="9.15262">
        <ele>1460.2</ele>
        <time>2015-06-22T09:40:53Z</time>
      </trkpt>
      <trkpt lat="42.07143" lon="9.1526">
        <ele>1460.4</ele>
        <time>2015-06-22T09:40:56Z</time>
      </trkpt>
      <trkpt lat="42.0714" lon="9.15246">
        <ele>1462.6</ele>
        <time>2015-06-22T09:41:15Z</time>
      </trkpt>
      <trkpt lat="42.07138" lon="9.15241">
        <ele>1463.6</ele>
        <time>2015-06-22T09:41:22Z</time>
      </trkpt>
      <trkpt lat="42.07138" lon="9.15232">
        <ele>1464.6</ele>
        <time>2015-06-22T09:41:34Z</time>
      </trkpt>
      <trkpt lat="42.07131" lon="9.15223">
        <ele>1465.4</ele>
        <time>2015-06-22T09:41:47Z</time>
      </trkpt>
      <trkpt lat="42.07131" lon="9.1522">
        <ele>1466.8</ele>
        <time>2015-06-22T09:41:55Z</time>
      </trkpt>
      <trkpt lat="42.07129" lon="9.1521">
        <ele>1467.8</ele>
        <time>2015-06-22T09:42:04Z</time>
      </trkpt>
      <trkpt lat="42.07126" lon="9.15204">
        <ele>1469.4</ele>
        <time>2015-06-22T09:42:15Z</time>
      </trkpt>
      <trkpt lat="42.07124" lon="9.15197">
        <ele>1471</ele>
        <time>2015-06-22T09:42:26Z</time>
      </trkpt>
      <trkpt lat="42.07128" lon="9.15191">
        <ele>1472.2</ele>
        <time>2015-06-22T09:42:37Z</time>
      </trkpt>
      <trkpt lat="42.07133" lon="9.15192">
        <ele>1473</ele>
        <time>2015-06-22T09:42:44Z</time>
      </trkpt>
      <trkpt lat="42.07141" lon="9.1519">
        <ele>1474.6</ele>
        <time>2015-06-22T09:42:53Z</time>
      </trkpt>
      <trkpt lat="42.07133" lon="9.15179">
        <ele>1477</ele>
        <time>2015-06-22T09:43:26Z</time>
      </trkpt>
      <trkpt lat="42.07131" lon="9.15178">
        <ele>1477</ele>
        <time>2015-06-22T09:43:29Z</time>
      </trkpt>
      <trkpt lat="42.07129" lon="9.15179">
        <ele>1477.6</ele>
        <time>2015-06-22T09:43:38Z</time>
      </trkpt>
      <trkpt lat="42.07124" lon="9.15174">
        <ele>1480.4</ele>
        <time>2015-06-22T09:44:26Z</time>
      </trkpt>
      <trkpt lat="42.07119" lon="9.15167">
        <ele>1481.4</ele>
        <time>2015-06-22T09:44:38Z</time>
      </trkpt>
      <trkpt lat="42.07118" lon="9.15164">
        <ele>1481.8</ele>
        <time>2015-06-22T09:44:41Z</time>
      </trkpt>
      <trkpt lat="42.07118" lon="9.15163">
        <ele>1482.2</ele>
        <time>2015-06-22T09:44:43Z</time>
      </trkpt>
      <trkpt lat="42.0712" lon="9.15159">
        <ele>1483.8</ele>
        <time>2015-06-22T09:44:51Z</time>
      </trkpt>
      <trkpt lat="42.07119" lon="9.15155">
        <ele>1485</ele>
        <time>2015-06-22T09:44:58Z</time>
      </trkpt>
      <trkpt lat="42.07122" lon="9.15151">
        <ele>1486.8</ele>
        <time>2015-06-22T09:45:10Z</time>
      </trkpt>
      <trkpt lat="42.07121" lon="9.15149">
        <ele>1487.6</ele>
        <time>2015-06-22T09:45:16Z</time>
      </trkpt>
      <trkpt lat="42.07119" lon="9.15138">
        <ele>1489.4</ele>
        <time>2015-06-22T09:45:35Z</time>
      </trkpt>
      <trkpt lat="42.07117" lon="9.15129">
        <ele>1491.2</ele>
        <time>2015-06-22T09:45:47Z</time>
      </trkpt>
      <trkpt lat="42.07114" lon="9.15125">
        <ele>1491.4</ele>
        <time>2015-06-22T09:45:51Z</time>
      </trkpt>
      <trkpt lat="42.07111" lon="9.15122">
        <ele>1492</ele>
        <time>2015-06-22T09:45:57Z</time>
      </trkpt>
      <trkpt lat="42.0711" lon="9.15119">
        <ele>1493.4</ele>
        <time>2015-06-22T09:46:04Z</time>
      </trkpt>
      <trkpt lat="42.07106" lon="9.15114">
        <ele>1495.2</ele>
        <time>2015-06-22T09:46:20Z</time>
      </trkpt>
      <trkpt lat="42.07106" lon="9.15114">
        <ele>1495.8</ele>
        <time>2015-06-22T09:46:31Z</time>
      </trkpt>
      <trkpt lat="42.07104" lon="9.15101">
        <ele>1496</ele>
        <time>2015-06-22T09:46:52Z</time>
      </trkpt>
      <trkpt lat="42.07107" lon="9.15092">
        <ele>1496.8</ele>
        <time>2015-06-22T09:47:02Z</time>
      </trkpt>
      <trkpt lat="42.07105" lon="9.15088">
        <ele>1498.6</ele>
        <time>2015-06-22T09:47:12Z</time>
      </trkpt>
      <trkpt lat="42.07103" lon="9.15093">
        <ele>1499</ele>
        <time>2015-06-22T09:47:15Z</time>
      </trkpt>
      <trkpt lat="42.07103" lon="9.15092">
        <ele>1500.4</ele>
        <time>2015-06-22T09:47:21Z</time>
      </trkpt>
      <trkpt lat="42.07102" lon="9.1509">
        <ele>1502.4</ele>
        <time>2015-06-22T09:47:32Z</time>
      </trkpt>
      <trkpt lat="42.07103" lon="9.1509">
        <ele>1502.8</ele>
        <time>2015-06-22T09:47:34Z</time>
      </trkpt>
      <trkpt lat="42.07105" lon="9.15089">
        <ele>1503</ele>
        <time>2015-06-22T09:47:37Z</time>
      </trkpt>
      <trkpt lat="42.07105" lon="9.15089">
        <ele>1504</ele>
        <time>2015-06-22T09:47:39Z</time>
      </trkpt>
      <trkpt lat="42.07104" lon="9.15083">
        <ele>1507</ele>
        <time>2015-06-22T09:48:04Z</time>
      </trkpt>
      <trkpt lat="42.07107" lon="9.15079">
        <ele>1508.4</ele>
        <time>2015-06-22T09:48:20Z</time>
      </trkpt>
      <trkpt lat="42.07107" lon="9.15079">
        <ele>1508.8</ele>
        <time>2015-06-22T09:48:24Z</time>
      </trkpt>
      <trkpt lat="42.07109" lon="9.15072">
        <ele>1511.4</ele>
        <time>2015-06-22T09:48:46Z</time>
      </trkpt>
      <trkpt lat="42.07107" lon="9.15063">
        <ele>1512.6</ele>
        <time>2015-06-22T09:48:58Z</time>
      </trkpt>
      <trkpt lat="42.07111" lon="9.15053">
        <ele>1514</ele>
        <time>2015-06-22T09:49:13Z</time>
      </trkpt>
      <trkpt lat="42.07113" lon="9.15052">
        <ele>1514.2</ele>
        <time>2015-06-22T09:49:15Z</time>
      </trkpt>
      <trkpt lat="42.07119" lon="9.1504">
        <ele>1515.8</ele>
        <time>2015-06-22T09:49:38Z</time>
      </trkpt>
      <trkpt lat="42.07123" lon="9.15038">
        <ele>1516.6</ele>
        <time>2015-06-22T09:49:49Z</time>
      </trkpt>
      <trkpt lat="42.07125" lon="9.15039">
        <ele>1517</ele>
        <time>2015-06-22T09:49:53Z</time>
      </trkpt>
      <trkpt lat="42.07129" lon="9.15037">
        <ele>1519</ele>
        <time>2015-06-22T09:50:01Z</time>
      </trkpt>
      <trkpt lat="42.07131" lon="9.15034">
        <ele>1520.8</ele>
        <time>2015-06-22T09:50:14Z</time>
      </trkpt>
      <trkpt lat="42.07132" lon="9.15033">
        <ele>1521</ele>
        <time>2015-06-22T09:50:18Z</time>
      </trkpt>
      <trkpt lat="42.07139" lon="9.15034">
        <ele>1523.4</ele>
        <time>2015-06-22T09:50:33Z</time>
      </trkpt>
      <trkpt lat="42.07143" lon="9.15035">
        <ele>1524.2</ele>
        <time>2015-06-22T09:50:45Z</time>
      </trkpt>
      <trkpt lat="42.07147" lon="9.15035">
        <ele>1525.6</ele>
        <time>2015-06-22T09:50:58Z</time>
      </trkpt>
      <trkpt lat="42.07149" lon="9.15035">
        <ele>1526</ele>
        <time>2015-06-22T09:51:02Z</time>
      </trkpt>
      <trkpt lat="42.07153" lon="9.15033">
        <ele>1527.4</ele>
        <time>2015-06-22T09:51:11Z</time>
      </trkpt>
      <trkpt lat="42.07156" lon="9.15034">
        <ele>1528.4</ele>
        <time>2015-06-22T09:51:19Z</time>
      </trkpt>
      <trkpt lat="42.07159" lon="9.15034">
        <ele>1529.2</ele>
        <time>2015-06-22T09:51:25Z</time>
      </trkpt>
      <trkpt lat="42.07163" lon="9.15037">
        <ele>1530.8</ele>
        <time>2015-06-22T09:51:36Z</time>
      </trkpt>
      <trkpt lat="42.07168" lon="9.15039">
        <ele>1532</ele>
        <time>2015-06-22T09:51:49Z</time>
      </trkpt>
      <trkpt lat="42.07171" lon="9.15038">
        <ele>1533</ele>
        <time>2015-06-22T09:52:02Z</time>
      </trkpt>
      <trkpt lat="42.0718" lon="9.15041">
        <ele>1534.4</ele>
        <time>2015-06-22T09:52:37Z</time>
      </trkpt>
      <trkpt lat="42.07186" lon="9.1505">
        <ele>1535.2</ele>
        <time>2015-06-22T09:52:51Z</time>
      </trkpt>
      <trkpt lat="42.0719" lon="9.15053">
        <ele>1536</ele>
        <time>2015-06-22T09:52:59Z</time>
      </trkpt>
      <trkpt lat="42.07191" lon="9.15054">
        <ele>1536.2</ele>
        <time>2015-06-22T09:53:02Z</time>
      </trkpt>
      <trkpt lat="42.07194" lon="9.15053">
        <ele>1537.6</ele>
        <time>2015-06-22T09:53:07Z</time>
      </trkpt>
      <trkpt lat="42.07202" lon="9.15058">
        <ele>1539.6</ele>
        <time>2015-06-22T09:53:18Z</time>
      </trkpt>
      <trkpt lat="42.07208" lon="9.15062">
        <ele>1540.2</ele>
        <time>2015-06-22T09:53:29Z</time>
      </trkpt>
      <trkpt lat="42.0721" lon="9.1506">
        <ele>1541.4</ele>
        <time>2015-06-22T09:53:40Z</time>
      </trkpt>
      <trkpt lat="42.07212" lon="9.15061">
        <ele>1542</ele>
        <time>2015-06-22T09:53:46Z</time>
      </trkpt>
      <trkpt lat="42.07214" lon="9.15061">
        <ele>1543.2</ele>
        <time>2015-06-22T09:53:52Z</time>
      </trkpt>
      <trkpt lat="42.07218" lon="9.15064">
        <ele>1544.6</ele>
        <time>2015-06-22T09:54:01Z</time>
      </trkpt>
      <trkpt lat="42.07224" lon="9.15075">
        <ele>1545.8</ele>
        <time>2015-06-22T09:54:18Z</time>
      </trkpt>
      <trkpt lat="42.07228" lon="9.15075">
        <ele>1546.4</ele>
        <time>2015-06-22T09:54:24Z</time>
      </trkpt>
      <trkpt lat="42.0723" lon="9.15076">
        <ele>1547.4</ele>
        <time>2015-06-22T09:54:29Z</time>
      </trkpt>
      <trkpt lat="42.07237" lon="9.15081">
        <ele>1549.4</ele>
        <time>2015-06-22T09:54:40Z</time>
      </trkpt>
      <trkpt lat="42.0724" lon="9.15085">
        <ele>1550</ele>
        <time>2015-06-22T09:54:48Z</time>
      </trkpt>
      <trkpt lat="42.07247" lon="9.15089">
        <ele>1551.2</ele>
        <time>2015-06-22T09:54:58Z</time>
      </trkpt>
      <trkpt lat="42.07253" lon="9.15091">
        <ele>1552.4</ele>
        <time>2015-06-22T09:55:09Z</time>
      </trkpt>
      <trkpt lat="42.07254" lon="9.15091">
        <ele>1552.8</ele>
        <time>2015-06-22T09:55:13Z</time>
      </trkpt>
      <trkpt lat="42.07259" lon="9.15094">
        <ele>1554.2</ele>
        <time>2015-06-22T09:55:20Z</time>
      </trkpt>
      <trkpt lat="42.07266" lon="9.15095">
        <ele>1556</ele>
        <time>2015-06-22T09:55:36Z</time>
      </trkpt>
      <trkpt lat="42.0727" lon="9.15098">
        <ele>1556.4</ele>
        <time>2015-06-22T09:55:45Z</time>
      </trkpt>
      <trkpt lat="42.0727" lon="9.15099">
        <ele>1556.6</ele>
        <time>2015-06-22T09:55:47Z</time>
      </trkpt>
      <trkpt lat="42.07273" lon="9.151">
        <ele>1557.2</ele>
        <time>2015-06-22T09:55:50Z</time>
      </trkpt>
      <trkpt lat="42.07274" lon="9.15105">
        <ele>1557.4</ele>
        <time>2015-06-22T09:55:53Z</time>
      </trkpt>
      <trkpt lat="42.07277" lon="9.15107">
        <ele>1559.6</ele>
        <time>2015-06-22T09:55:59Z</time>
      </trkpt>
      <trkpt lat="42.07279" lon="9.1511">
        <ele>1560.6</ele>
        <time>2015-06-22T09:56:05Z</time>
      </trkpt>
      <trkpt lat="42.07281" lon="9.15111">
        <ele>1561.6</ele>
        <time>2015-06-22T09:56:10Z</time>
      </trkpt>
      <trkpt lat="42.07288" lon="9.15112">
        <ele>1563.2</ele>
        <time>2015-06-22T09:56:19Z</time>
      </trkpt>
      <trkpt lat="42.07296" lon="9.15115">
        <ele>1564.6</ele>
        <time>2015-06-22T09:56:32Z</time>
      </trkpt>
      <trkpt lat="42.07298" lon="9.15114">
        <ele>1564.8</ele>
        <time>2015-06-22T09:56:36Z</time>
      </trkpt>
      <trkpt lat="42.073" lon="9.15119">
        <ele>1565.6</ele>
        <time>2015-06-22T09:56:45Z</time>
      </trkpt>
      <trkpt lat="42.07303" lon="9.15129">
        <ele>1566.2</ele>
        <time>2015-06-22T09:56:54Z</time>
      </trkpt>
      <trkpt lat="42.07303" lon="9.1513">
        <ele>1566.4</ele>
        <time>2015-06-22T09:56:56Z</time>
      </trkpt>
      <trkpt lat="42.07303" lon="9.15132">
        <ele>1566.8</ele>
        <time>2015-06-22T09:56:58Z</time>
      </trkpt>
      <trkpt lat="42.07304" lon="9.15133">
        <ele>1567.2</ele>
        <time>2015-06-22T09:57:01Z</time>
      </trkpt>
      <trkpt lat="42.07306" lon="9.15141">
        <ele>1568</ele>
        <time>2015-06-22T09:57:06Z</time>
      </trkpt>
      <trkpt lat="42.07306" lon="9.15142">
        <ele>1568.2</ele>
        <time>2015-06-22T09:57:09Z</time>
      </trkpt>
      <trkpt lat="42.07304" lon="9.15144">
        <ele>1569.2</ele>
        <time>2015-06-22T09:57:16Z</time>
      </trkpt>
      <trkpt lat="42.07302" lon="9.15145">
        <ele>1570.8</ele>
        <time>2015-06-22T09:57:26Z</time>
      </trkpt>
      <trkpt lat="42.07302" lon="9.15149">
        <ele>1571</ele>
        <time>2015-06-22T09:57:31Z</time>
      </trkpt>
      <trkpt lat="42.07304" lon="9.15151">
        <ele>1572.6</ele>
        <time>2015-06-22T09:57:39Z</time>
      </trkpt>
      <trkpt lat="42.07304" lon="9.15154">
        <ele>1573.4</ele>
        <time>2015-06-22T09:57:47Z</time>
      </trkpt>
      <trkpt lat="42.07307" lon="9.15163">
        <ele>1574.6</ele>
        <time>2015-06-22T09:58:08Z</time>
      </trkpt>
      <trkpt lat="42.07304" lon="9.1516">
        <ele>1575.6</ele>
        <time>2015-06-22T09:58:30Z</time>
      </trkpt>
      <trkpt lat="42.07305" lon="9.15161">
        <ele>1574.6</ele>
        <time>2015-06-22T09:58:58Z</time>
      </trkpt>
      <trkpt lat="42.07302" lon="9.15172">
        <ele>1573.2</ele>
        <time>2015-06-22T09:59:36Z</time>
      </trkpt>
      <trkpt lat="42.07302" lon="9.15175">
        <ele>1572.6</ele>
        <time>2015-06-22T09:59:45Z</time>
      </trkpt>
      <trkpt lat="42.07302" lon="9.1518">
        <ele>1572</ele>
        <time>2015-06-22T09:59:50Z</time>
      </trkpt>
      <trkpt lat="42.07308" lon="9.15201">
        <ele>1570.8</ele>
        <time>2015-06-22T10:00:13Z</time>
      </trkpt>
      <trkpt lat="42.07314" lon="9.15201">
        <ele>1571.4</ele>
        <time>2015-06-22T10:00:18Z</time>
      </trkpt>
      <trkpt lat="42.07315" lon="9.15201">
        <ele>1571.4</ele>
        <time>2015-06-22T10:00:19Z</time>
      </trkpt>
      <trkpt lat="42.07318" lon="9.15202">
        <ele>1572.6</ele>
        <time>2015-06-22T10:00:26Z</time>
      </trkpt>
      <trkpt lat="42.07311" lon="9.15198">
        <ele>1573.8</ele>
        <time>2015-06-22T10:00:52Z</time>
      </trkpt>
      <trkpt lat="42.0731" lon="9.15197">
        <ele>1574</ele>
        <time>2015-06-22T10:00:55Z</time>
      </trkpt>
      <trkpt lat="42.07311" lon="9.15195">
        <ele>1574.2</ele>
        <time>2015-06-22T10:00:58Z</time>
      </trkpt>
      <trkpt lat="42.07313" lon="9.15199">
        <ele>1575</ele>
        <time>2015-06-22T10:01:06Z</time>
      </trkpt>
      <trkpt lat="42.07315" lon="9.15203">
        <ele>1575.8</ele>
        <time>2015-06-22T10:01:15Z</time>
      </trkpt>
      <trkpt lat="42.07317" lon="9.15208">
        <ele>1576</ele>
        <time>2015-06-22T10:01:20Z</time>
      </trkpt>
      <trkpt lat="42.07315" lon="9.1522">
        <ele>1577.2</ele>
        <time>2015-06-22T10:01:29Z</time>
      </trkpt>
      <trkpt lat="42.07321" lon="9.15235">
        <ele>1577.6</ele>
        <time>2015-06-22T10:01:41Z</time>
      </trkpt>
      <trkpt lat="42.07321" lon="9.15242">
        <ele>1578.2</ele>
        <time>2015-06-22T10:01:49Z</time>
      </trkpt>
      <trkpt lat="42.07321" lon="9.15247">
        <ele>1579.4</ele>
        <time>2015-06-22T10:01:57Z</time>
      </trkpt>
      <trkpt lat="42.07321" lon="9.15251">
        <ele>1580</ele>
        <time>2015-06-22T10:02:03Z</time>
      </trkpt>
      <trkpt lat="42.07326" lon="9.15269">
        <ele>1580.6</ele>
        <time>2015-06-22T10:02:17Z</time>
      </trkpt>
      <trkpt lat="42.07336" lon="9.15275">
        <ele>1579.8</ele>
        <time>2015-06-22T10:02:32Z</time>
      </trkpt>
      <trkpt lat="42.07339" lon="9.15276">
        <ele>1580</ele>
        <time>2015-06-22T10:02:36Z</time>
      </trkpt>
      <trkpt lat="42.0734" lon="9.15278">
        <ele>1580.4</ele>
        <time>2015-06-22T10:02:41Z</time>
      </trkpt>
      <trkpt lat="42.07342" lon="9.15281">
        <ele>1581.8</ele>
        <time>2015-06-22T10:02:49Z</time>
      </trkpt>
      <trkpt lat="42.07343" lon="9.15286">
        <ele>1582.4</ele>
        <time>2015-06-22T10:02:53Z</time>
      </trkpt>
      <trkpt lat="42.07344" lon="9.15291">
        <ele>1582.8</ele>
        <time>2015-06-22T10:02:57Z</time>
      </trkpt>
      <trkpt lat="42.07346" lon="9.15293">
        <ele>1583.2</ele>
        <time>2015-06-22T10:03:00Z</time>
      </trkpt>
      <trkpt lat="42.0735" lon="9.15301">
        <ele>1583.8</ele>
        <time>2015-06-22T10:03:07Z</time>
      </trkpt>
      <trkpt lat="42.0735" lon="9.15301">
        <ele>1583.8</ele>
        <time>2015-06-22T10:03:08Z</time>
      </trkpt>
      <trkpt lat="42.07352" lon="9.15304">
        <ele>1584.4</ele>
        <time>2015-06-22T10:03:14Z</time>
      </trkpt>
      <trkpt lat="42.07353" lon="9.15304">
        <ele>1584.8</ele>
        <time>2015-06-22T10:03:18Z</time>
      </trkpt>
      <trkpt lat="42.07358" lon="9.15311">
        <ele>1587.2</ele>
        <time>2015-06-22T10:03:31Z</time>
      </trkpt>
      <trkpt lat="42.07374" lon="9.15329">
        <ele>1586.8</ele>
        <time>2015-06-22T10:04:24Z</time>
      </trkpt>
      <trkpt lat="42.07381" lon="9.15318">
        <ele>1585.4</ele>
        <time>2015-06-22T10:04:37Z</time>
      </trkpt>
      <trkpt lat="42.07386" lon="9.15313">
        <ele>1586</ele>
        <time>2015-06-22T10:04:50Z</time>
      </trkpt>
      <trkpt lat="42.07397" lon="9.15309">
        <ele>1587</ele>
        <time>2015-06-22T10:05:03Z</time>
      </trkpt>
      <trkpt lat="42.07398" lon="9.15309">
        <ele>1587.2</ele>
        <time>2015-06-22T10:05:04Z</time>
      </trkpt>
      <trkpt lat="42.07403" lon="9.15306">
        <ele>1587.6</ele>
        <time>2015-06-22T10:05:09Z</time>
      </trkpt>
      <trkpt lat="42.07406" lon="9.15302">
        <ele>1588.2</ele>
        <time>2015-06-22T10:05:14Z</time>
      </trkpt>
      <trkpt lat="42.0741" lon="9.15299">
        <ele>1588.8</ele>
        <time>2015-06-22T10:05:18Z</time>
      </trkpt>
      <trkpt lat="42.07415" lon="9.15295">
        <ele>1589.4</ele>
        <time>2015-06-22T10:05:25Z</time>
      </trkpt>
      <trkpt lat="42.07418" lon="9.15289">
        <ele>1590.4</ele>
        <time>2015-06-22T10:05:33Z</time>
      </trkpt>
      <trkpt lat="42.07422" lon="9.15286">
        <ele>1591.2</ele>
        <time>2015-06-22T10:05:39Z</time>
      </trkpt>
      <trkpt lat="42.07425" lon="9.15283">
        <ele>1592.2</ele>
        <time>2015-06-22T10:05:46Z</time>
      </trkpt>
      <trkpt lat="42.07429" lon="9.15279">
        <ele>1593.4</ele>
        <time>2015-06-22T10:05:53Z</time>
      </trkpt>
      <trkpt lat="42.07433" lon="9.15277">
        <ele>1594</ele>
        <time>2015-06-22T10:05:59Z</time>
      </trkpt>
      <trkpt lat="42.07435" lon="9.15277">
        <ele>1595.2</ele>
        <time>2015-06-22T10:06:06Z</time>
      </trkpt>
      <trkpt lat="42.07437" lon="9.15276">
        <ele>1596.6</ele>
        <time>2015-06-22T10:06:16Z</time>
      </trkpt>
      <trkpt lat="42.07439" lon="9.15272">
        <ele>1597.4</ele>
        <time>2015-06-22T10:06:23Z</time>
      </trkpt>
      <trkpt lat="42.07441" lon="9.15267">
        <ele>1598.4</ele>
        <time>2015-06-22T10:06:32Z</time>
      </trkpt>
      <trkpt lat="42.07442" lon="9.15263">
        <ele>1598.8</ele>
        <time>2015-06-22T10:06:38Z</time>
      </trkpt>
      <trkpt lat="42.07444" lon="9.15261">
        <ele>1599.8</ele>
        <time>2015-06-22T10:06:43Z</time>
      </trkpt>
      <trkpt lat="42.07447" lon="9.15254">
        <ele>1601.2</ele>
        <time>2015-06-22T10:06:53Z</time>
      </trkpt>
      <trkpt lat="42.07458" lon="9.15253">
        <ele>1602.4</ele>
        <time>2015-06-22T10:07:09Z</time>
      </trkpt>
      <trkpt lat="42.07459" lon="9.15253">
        <ele>1602.4</ele>
        <time>2015-06-22T10:07:10Z</time>
      </trkpt>
      <trkpt lat="42.07461" lon="9.15252">
        <ele>1602.4</ele>
        <time>2015-06-22T10:07:12Z</time>
      </trkpt>
      <trkpt lat="42.07467" lon="9.15251">
        <ele>1603</ele>
        <time>2015-06-22T10:07:21Z</time>
      </trkpt>
      <trkpt lat="42.07468" lon="9.15253">
        <ele>1603.4</ele>
        <time>2015-06-22T10:07:27Z</time>
      </trkpt>
      <trkpt lat="42.0747" lon="9.1525">
        <ele>1604.6</ele>
        <time>2015-06-22T10:07:36Z</time>
      </trkpt>
      <trkpt lat="42.07479" lon="9.15251">
        <ele>1605.8</ele>
        <time>2015-06-22T10:07:52Z</time>
      </trkpt>
      <trkpt lat="42.07482" lon="9.15248">
        <ele>1606</ele>
        <time>2015-06-22T10:07:58Z</time>
      </trkpt>
      <trkpt lat="42.07484" lon="9.15245">
        <ele>1606.8</ele>
        <time>2015-06-22T10:08:02Z</time>
      </trkpt>
      <trkpt lat="42.07487" lon="9.15244">
        <ele>1608.2</ele>
        <time>2015-06-22T10:08:09Z</time>
      </trkpt>
      <trkpt lat="42.07501" lon="9.15238">
        <ele>1609.6</ele>
        <time>2015-06-22T10:08:23Z</time>
      </trkpt>
      <trkpt lat="42.07508" lon="9.15229">
        <ele>1609.6</ele>
        <time>2015-06-22T10:08:34Z</time>
      </trkpt>
      <trkpt lat="42.07509" lon="9.15223">
        <ele>1609.4</ele>
        <time>2015-06-22T10:08:40Z</time>
      </trkpt>
      <trkpt lat="42.07511" lon="9.15214">
        <ele>1610</ele>
        <time>2015-06-22T10:08:55Z</time>
      </trkpt>
      <trkpt lat="42.07519" lon="9.15208">
        <ele>1610.2</ele>
        <time>2015-06-22T10:09:05Z</time>
      </trkpt>
      <trkpt lat="42.07522" lon="9.15205">
        <ele>1610.2</ele>
        <time>2015-06-22T10:09:08Z</time>
      </trkpt>
      <trkpt lat="42.07528" lon="9.15192">
        <ele>1609.4</ele>
        <time>2015-06-22T10:09:18Z</time>
      </trkpt>
      <trkpt lat="42.07534" lon="9.15181">
        <ele>1609.2</ele>
        <time>2015-06-22T10:09:29Z</time>
      </trkpt>
      <trkpt lat="42.07536" lon="9.15179">
        <ele>1609</ele>
        <time>2015-06-22T10:09:31Z</time>
      </trkpt>
      <trkpt lat="42.07541" lon="9.15176">
        <ele>1609.4</ele>
        <time>2015-06-22T10:09:38Z</time>
      </trkpt>
      <trkpt lat="42.0755" lon="9.15171">
        <ele>1610</ele>
        <time>2015-06-22T10:09:48Z</time>
      </trkpt>
      <trkpt lat="42.07558" lon="9.15164">
        <ele>1610.4</ele>
        <time>2015-06-22T10:09:57Z</time>
      </trkpt>
      <trkpt lat="42.07561" lon="9.15161">
        <ele>1611</ele>
        <time>2015-06-22T10:10:03Z</time>
      </trkpt>
      <trkpt lat="42.07561" lon="9.15159">
        <ele>1612.2</ele>
        <time>2015-06-22T10:10:10Z</time>
      </trkpt>
      <trkpt lat="42.07565" lon="9.15158">
        <ele>1613.4</ele>
        <time>2015-06-22T10:10:19Z</time>
      </trkpt>
      <trkpt lat="42.07574" lon="9.15163">
        <ele>1613.2</ele>
        <time>2015-06-22T10:11:27Z</time>
      </trkpt>
      <trkpt lat="42.07578" lon="9.15165">
        <ele>1613.2</ele>
        <time>2015-06-22T10:11:43Z</time>
      </trkpt>
      <trkpt lat="42.07578" lon="9.15164">
        <ele>1613</ele>
        <time>2015-06-22T10:11:46Z</time>
      </trkpt>
      <trkpt lat="42.07581" lon="9.15158">
        <ele>1612</ele>
        <time>2015-06-22T10:11:57Z</time>
      </trkpt>
      <trkpt lat="42.07585" lon="9.15155">
        <ele>1610.6</ele>
        <time>2015-06-22T10:12:06Z</time>
      </trkpt>
      <trkpt lat="42.0759" lon="9.15143">
        <ele>1608.6</ele>
        <time>2015-06-22T10:12:23Z</time>
      </trkpt>
      <trkpt lat="42.07596" lon="9.15125">
        <ele>1607</ele>
        <time>2015-06-22T10:12:49Z</time>
      </trkpt>
      <trkpt lat="42.07599" lon="9.15121">
        <ele>1605.8</ele>
        <time>2015-06-22T10:13:07Z</time>
      </trkpt>
      <trkpt lat="42.07605" lon="9.15115">
        <ele>1604.4</ele>
        <time>2015-06-22T10:13:38Z</time>
      </trkpt>
      <trkpt lat="42.07608" lon="9.15114">
        <ele>1603.8</ele>
        <time>2015-06-22T10:13:45Z</time>
      </trkpt>
      <trkpt lat="42.07615" lon="9.15092">
        <ele>1601.8</ele>
        <time>2015-06-22T10:14:19Z</time>
      </trkpt>
      <trkpt lat="42.07617" lon="9.15088">
        <ele>1600.8</ele>
        <time>2015-06-22T10:14:28Z</time>
      </trkpt>
      <trkpt lat="42.07619" lon="9.15087">
        <ele>1600.2</ele>
        <time>2015-06-22T10:14:33Z</time>
      </trkpt>
      <trkpt lat="42.07622" lon="9.15087">
        <ele>1598.4</ele>
        <time>2015-06-22T10:14:40Z</time>
      </trkpt>
      <trkpt lat="42.07626" lon="9.15078">
        <ele>1596.8</ele>
        <time>2015-06-22T10:14:52Z</time>
      </trkpt>
      <trkpt lat="42.0763" lon="9.15068">
        <ele>1595.8</ele>
        <time>2015-06-22T10:15:03Z</time>
      </trkpt>
      <trkpt lat="42.07632" lon="9.15061">
        <ele>1594.6</ele>
        <time>2015-06-22T10:15:13Z</time>
      </trkpt>
      <trkpt lat="42.07636" lon="9.15055">
        <ele>1593.4</ele>
        <time>2015-06-22T10:15:22Z</time>
      </trkpt>
      <trkpt lat="42.07639" lon="9.15052">
        <ele>1592.4</ele>
        <time>2015-06-22T10:15:30Z</time>
      </trkpt>
      <trkpt lat="42.07643" lon="9.15049">
        <ele>1591</ele>
        <time>2015-06-22T10:15:40Z</time>
      </trkpt>
      <trkpt lat="42.07645" lon="9.15042">
        <ele>1589.8</ele>
        <time>2015-06-22T10:15:50Z</time>
      </trkpt>
      <trkpt lat="42.07653" lon="9.15038">
        <ele>1588.4</ele>
        <time>2015-06-22T10:16:02Z</time>
      </trkpt>
      <trkpt lat="42.07659" lon="9.15029">
        <ele>1587</ele>
        <time>2015-06-22T10:16:20Z</time>
      </trkpt>
      <trkpt lat="42.07663" lon="9.15019">
        <ele>1586</ele>
        <time>2015-06-22T10:16:29Z</time>
      </trkpt>
      <trkpt lat="42.07665" lon="9.15013">
        <ele>1585</ele>
        <time>2015-06-22T10:16:36Z</time>
      </trkpt>
      <trkpt lat="42.0767" lon="9.15002">
        <ele>1583.2</ele>
        <time>2015-06-22T10:16:50Z</time>
      </trkpt>
      <trkpt lat="42.07675" lon="9.15001">
        <ele>1582.8</ele>
        <time>2015-06-22T10:16:56Z</time>
      </trkpt>
      <trkpt lat="42.07684" lon="9.15007">
        <ele>1581.2</ele>
        <time>2015-06-22T10:17:07Z</time>
      </trkpt>
      <trkpt lat="42.07698" lon="9.15011">
        <ele>1579.8</ele>
        <time>2015-06-22T10:17:20Z</time>
      </trkpt>
      <trkpt lat="42.07702" lon="9.15016">
        <ele>1579.4</ele>
        <time>2015-06-22T10:17:25Z</time>
      </trkpt>
      <trkpt lat="42.07705" lon="9.1502">
        <ele>1579.4</ele>
        <time>2015-06-22T10:17:29Z</time>
      </trkpt>
      <trkpt lat="42.0771" lon="9.15026">
        <ele>1579.4</ele>
        <time>2015-06-22T10:17:36Z</time>
      </trkpt>
      <trkpt lat="42.07721" lon="9.15024">
        <ele>1579.8</ele>
        <time>2015-06-22T10:17:52Z</time>
      </trkpt>
      <trkpt lat="42.07723" lon="9.15025">
        <ele>1580.8</ele>
        <time>2015-06-22T10:17:57Z</time>
      </trkpt>
      <trkpt lat="42.07726" lon="9.15026">
        <ele>1582</ele>
        <time>2015-06-22T10:18:03Z</time>
      </trkpt>
      <trkpt lat="42.07727" lon="9.15029">
        <ele>1583.2</ele>
        <time>2015-06-22T10:18:11Z</time>
      </trkpt>
      <trkpt lat="42.07728" lon="9.1503">
        <ele>1584.6</ele>
        <time>2015-06-22T10:18:35Z</time>
      </trkpt>
      <trkpt lat="42.07728" lon="9.15024">
        <ele>1585</ele>
        <time>2015-06-22T10:19:08Z</time>
      </trkpt>
      <trkpt lat="42.07726" lon="9.15032">
        <ele>1585.4</ele>
        <time>2015-06-22T10:19:24Z</time>
      </trkpt>
      <trkpt lat="42.07726" lon="9.15036">
        <ele>1585</ele>
        <time>2015-06-22T10:19:30Z</time>
      </trkpt>
      <trkpt lat="42.07727" lon="9.15041">
        <ele>1585</ele>
        <time>2015-06-22T10:19:37Z</time>
      </trkpt>
      <trkpt lat="42.07727" lon="9.15042">
        <ele>1585</ele>
        <time>2015-06-22T10:19:39Z</time>
      </trkpt>
    </trkseg>
  </trk>
</gpx>